<?xml version="1.0" encoding="UTF-8" standalone="no" ?>
<gpx xmlns="http://www.topografix.com/GPX/1/1" xmlns:xsi="http://www.w3.org/2001/XMLSchema-instance" xsi:schemaLocation="http://www.topografix.com/GPX/1/1 http://www.topografix.com/GPX/1/1/gpx.xsd" version="1.1" creator="VisuGPX - https://www.visugpx.com">
  <metadata>
    <name>Gorges du loup - Est</name>
    <desc><![CDATA[Vues superbes, singles tracks techniques cassants et rapides]]></desc>
  </metadata>
  <trk>
    <name><![CDATA[courmettes avec sergi]]></name>
    <trkseg>
      <trkpt lat="43.7021" lon="6.99503">
        <ele>222</ele>
        <time>2012-04-20T05:26:47Z</time>
      </trkpt>
      <trkpt lat="43.7021" lon="6.99503">
        <ele>222</ele>
        <time>2012-04-20T05:26:50Z</time>
      </trkpt>
      <trkpt lat="43.70206" lon="6.99502">
        <ele>223</ele>
        <time>2012-04-20T05:26:53Z</time>
      </trkpt>
      <trkpt lat="43.70198" lon="6.99506">
        <ele>223</ele>
        <time>2012-04-20T05:26:58Z</time>
      </trkpt>
      <trkpt lat="43.70186" lon="6.99522">
        <ele>223</ele>
        <time>2012-04-20T05:27:02Z</time>
      </trkpt>
      <trkpt lat="43.70174" lon="6.99528">
        <ele>222</ele>
        <time>2012-04-20T05:27:05Z</time>
      </trkpt>
      <trkpt lat="43.70115" lon="6.99492">
        <ele>234</ele>
      </trkpt>
      <trkpt lat="43.70094" lon="6.99497">
        <ele>232</ele>
      </trkpt>
      <trkpt lat="43.70072" lon="6.99497">
        <ele>231</ele>
      </trkpt>
      <trkpt lat="43.70052" lon="6.99497">
        <ele>230</ele>
      </trkpt>
      <trkpt lat="43.70034" lon="6.99497">
        <ele>229</ele>
      </trkpt>
      <trkpt lat="43.70016" lon="6.99488">
        <ele>228</ele>
      </trkpt>
      <trkpt lat="43.69997" lon="6.99481">
        <ele>222</ele>
      </trkpt>
      <trkpt lat="43.69982" lon="6.99466">
        <ele>223</ele>
      </trkpt>
      <trkpt lat="43.6997" lon="6.99446">
        <ele>224</ele>
      </trkpt>
      <trkpt lat="43.69952" lon="6.99438">
        <ele>223</ele>
      </trkpt>
      <trkpt lat="43.69934" lon="6.99431">
        <ele>222</ele>
      </trkpt>
      <trkpt lat="43.69921" lon="6.99413">
        <ele>224</ele>
      </trkpt>
      <trkpt lat="43.69907" lon="6.99396">
        <ele>221</ele>
      </trkpt>
      <trkpt lat="43.69892" lon="6.99381">
        <ele>222</ele>
      </trkpt>
      <trkpt lat="43.69878" lon="6.99365">
        <ele>221</ele>
      </trkpt>
      <trkpt lat="43.69865" lon="6.99348">
        <ele>221</ele>
      </trkpt>
      <trkpt lat="43.69855" lon="6.9933">
        <ele>225</ele>
      </trkpt>
      <trkpt lat="43.69844" lon="6.99308">
        <ele>226</ele>
      </trkpt>
      <trkpt lat="43.69837" lon="6.99286">
        <ele>229</ele>
      </trkpt>
      <trkpt lat="43.69828" lon="6.99264">
        <ele>222</ele>
      </trkpt>
      <trkpt lat="43.69821" lon="6.99242">
        <ele>226</ele>
      </trkpt>
      <trkpt lat="43.69813" lon="6.9922">
        <ele>225</ele>
      </trkpt>
      <trkpt lat="43.6981" lon="6.99196">
        <ele>226</ele>
      </trkpt>
      <trkpt lat="43.69806" lon="6.99174">
        <ele>227</ele>
      </trkpt>
      <trkpt lat="43.69759" lon="6.99095">
        <ele>230</ele>
      </trkpt>
      <trkpt lat="43.695" lon="6.99466">
        <ele>169</ele>
        <time>2012-04-20T05:33:40Z</time>
      </trkpt>
      <trkpt lat="43.69505" lon="6.99471">
        <ele>169</ele>
        <time>2012-04-20T05:33:41Z</time>
      </trkpt>
      <trkpt lat="43.69515" lon="6.9948">
        <ele>169</ele>
        <time>2012-04-20T05:33:42Z</time>
      </trkpt>
      <trkpt lat="43.69541" lon="6.99489">
        <ele>169</ele>
        <time>2012-04-20T05:33:47Z</time>
      </trkpt>
      <trkpt lat="43.69552" lon="6.99489">
        <ele>169</ele>
        <time>2012-04-20T05:33:49Z</time>
      </trkpt>
      <trkpt lat="43.6957" lon="6.99502">
        <ele>167</ele>
        <time>2012-04-20T05:33:53Z</time>
      </trkpt>
      <trkpt lat="43.69577" lon="6.99527">
        <ele>167</ele>
        <time>2012-04-20T05:33:56Z</time>
      </trkpt>
      <trkpt lat="43.69597" lon="6.99602">
        <ele>165</ele>
        <time>2012-04-20T05:34:05Z</time>
      </trkpt>
      <trkpt lat="43.69608" lon="6.99645">
        <ele>164</ele>
        <time>2012-04-20T05:34:10Z</time>
      </trkpt>
      <trkpt lat="43.69617" lon="6.99699">
        <ele>165</ele>
        <time>2012-04-20T05:34:16Z</time>
      </trkpt>
      <trkpt lat="43.69626" lon="6.99734">
        <ele>165</ele>
        <time>2012-04-20T05:34:20Z</time>
      </trkpt>
      <trkpt lat="43.69647" lon="6.99794">
        <ele>165</ele>
        <time>2012-04-20T05:34:27Z</time>
      </trkpt>
      <trkpt lat="43.69653" lon="6.99808">
        <ele>164</ele>
        <time>2012-04-20T05:34:29Z</time>
      </trkpt>
      <trkpt lat="43.69675" lon="6.99835">
        <ele>158</ele>
        <time>2012-04-20T05:34:34Z</time>
      </trkpt>
      <trkpt lat="43.69691" lon="6.99841">
        <ele>158</ele>
        <time>2012-04-20T05:34:37Z</time>
      </trkpt>
      <trkpt lat="43.69719" lon="6.99845">
        <ele>158</ele>
        <time>2012-04-20T05:34:42Z</time>
      </trkpt>
      <trkpt lat="43.69737" lon="6.99859">
        <ele>158</ele>
        <time>2012-04-20T05:34:46Z</time>
      </trkpt>
      <trkpt lat="43.69755" lon="6.99885">
        <ele>153</ele>
        <time>2012-04-20T05:34:51Z</time>
      </trkpt>
      <trkpt lat="43.69784" lon="6.99907">
        <ele>152</ele>
        <time>2012-04-20T05:34:56Z</time>
      </trkpt>
      <trkpt lat="43.6983" lon="6.99926">
        <ele>145</ele>
        <time>2012-04-20T05:35:02Z</time>
      </trkpt>
      <trkpt lat="43.69844" lon="6.9993">
        <ele>144</ele>
        <time>2012-04-20T05:35:04Z</time>
      </trkpt>
      <trkpt lat="43.69878" lon="6.99919">
        <ele>143</ele>
        <time>2012-04-20T05:35:09Z</time>
      </trkpt>
      <trkpt lat="43.69914" lon="6.99903">
        <ele>147</ele>
        <time>2012-04-20T05:35:15Z</time>
      </trkpt>
      <trkpt lat="43.69948" lon="6.99891">
        <ele>152</ele>
        <time>2012-04-20T05:35:21Z</time>
      </trkpt>
      <trkpt lat="43.69968" lon="6.99891">
        <ele>153</ele>
        <time>2012-04-20T05:35:25Z</time>
      </trkpt>
      <trkpt lat="43.69997" lon="6.99902">
        <ele>150</ele>
        <time>2012-04-20T05:35:31Z</time>
      </trkpt>
      <trkpt lat="43.70024" lon="6.99917">
        <ele>143</ele>
        <time>2012-04-20T05:35:37Z</time>
      </trkpt>
      <trkpt lat="43.70033" lon="6.99919">
        <ele>143</ele>
        <time>2012-04-20T05:35:39Z</time>
      </trkpt>
      <trkpt lat="43.70063" lon="6.99917">
        <ele>144</ele>
        <time>2012-04-20T05:35:46Z</time>
      </trkpt>
      <trkpt lat="43.70087" lon="6.99906">
        <ele>149</ele>
        <time>2012-04-20T05:35:52Z</time>
      </trkpt>
      <trkpt lat="43.70129" lon="6.9989">
        <ele>151</ele>
        <time>2012-04-20T05:36:01Z</time>
      </trkpt>
      <trkpt lat="43.70156" lon="6.99882">
        <ele>150</ele>
        <time>2012-04-20T05:36:07Z</time>
      </trkpt>
      <trkpt lat="43.70186" lon="6.99872">
        <ele>147</ele>
        <time>2012-04-20T05:36:14Z</time>
      </trkpt>
      <trkpt lat="43.7021" lon="6.99859">
        <ele>148</ele>
        <time>2012-04-20T05:36:20Z</time>
      </trkpt>
      <trkpt lat="43.70234" lon="6.99837">
        <ele>150</ele>
        <time>2012-04-20T05:36:27Z</time>
      </trkpt>
      <trkpt lat="43.70252" lon="6.99834">
        <ele>152</ele>
        <time>2012-04-20T05:36:32Z</time>
      </trkpt>
      <trkpt lat="43.70262" lon="6.99846">
        <ele>150</ele>
        <time>2012-04-20T05:36:36Z</time>
      </trkpt>
      <trkpt lat="43.7027" lon="6.99876">
        <ele>148</ele>
        <time>2012-04-20T05:36:43Z</time>
      </trkpt>
      <trkpt lat="43.70281" lon="6.99891">
        <ele>147</ele>
        <time>2012-04-20T05:36:47Z</time>
      </trkpt>
      <trkpt lat="43.70291" lon="6.99912">
        <ele>146</ele>
        <time>2012-04-20T05:36:51Z</time>
      </trkpt>
      <trkpt lat="43.70302" lon="6.99915">
        <ele>146</ele>
        <time>2012-04-20T05:36:53Z</time>
      </trkpt>
      <trkpt lat="43.70314" lon="6.99918">
        <ele>141</ele>
        <time>2012-04-20T05:36:55Z</time>
      </trkpt>
      <trkpt lat="43.7033" lon="6.99935">
        <ele>141</ele>
        <time>2012-04-20T05:36:59Z</time>
      </trkpt>
      <trkpt lat="43.70332" lon="6.99958">
        <ele>140</ele>
        <time>2012-04-20T05:37:02Z</time>
      </trkpt>
      <trkpt lat="43.70339" lon="6.99991">
        <ele>141</ele>
        <time>2012-04-20T05:37:07Z</time>
      </trkpt>
      <trkpt lat="43.70366" lon="7.00023">
        <ele>144</ele>
        <time>2012-04-20T05:37:15Z</time>
      </trkpt>
      <trkpt lat="43.70383" lon="7.00029">
        <ele>145</ele>
        <time>2012-04-20T05:37:20Z</time>
      </trkpt>
      <trkpt lat="43.70403" lon="7.00033">
        <ele>146</ele>
        <time>2012-04-20T05:37:27Z</time>
      </trkpt>
      <trkpt lat="43.70415" lon="7.00041">
        <ele>147</ele>
        <time>2012-04-20T05:37:33Z</time>
      </trkpt>
      <trkpt lat="43.70431" lon="7.00047">
        <ele>151</ele>
        <time>2012-04-20T05:37:40Z</time>
      </trkpt>
      <trkpt lat="43.70448" lon="7.0005">
        <ele>151</ele>
        <time>2012-04-20T05:37:47Z</time>
      </trkpt>
      <trkpt lat="43.7045" lon="7.00062">
        <ele>152</ele>
        <time>2012-04-20T05:37:52Z</time>
      </trkpt>
      <trkpt lat="43.70442" lon="7.00066">
        <ele>153</ele>
        <time>2012-04-20T05:37:56Z</time>
      </trkpt>
      <trkpt lat="43.7044" lon="7.00066">
        <ele>153</ele>
        <time>2012-04-20T05:37:57Z</time>
      </trkpt>
      <trkpt lat="43.70421" lon="7.00063">
        <ele>153</ele>
        <time>2012-04-20T05:38:06Z</time>
      </trkpt>
      <trkpt lat="43.70403" lon="7.00069">
        <ele>150</ele>
        <time>2012-04-20T05:38:15Z</time>
      </trkpt>
      <trkpt lat="43.7039" lon="7.0008">
        <ele>149</ele>
        <time>2012-04-20T05:38:23Z</time>
      </trkpt>
      <trkpt lat="43.70376" lon="7.00095">
        <ele>156</ele>
        <time>2012-04-20T05:38:29Z</time>
      </trkpt>
      <trkpt lat="43.70358" lon="7.00123">
        <ele>156</ele>
        <time>2012-04-20T05:38:36Z</time>
      </trkpt>
      <trkpt lat="43.70345" lon="7.00158">
        <ele>157</ele>
        <time>2012-04-20T05:38:43Z</time>
      </trkpt>
      <trkpt lat="43.70331" lon="7.00203">
        <ele>155</ele>
        <time>2012-04-20T05:38:52Z</time>
      </trkpt>
      <trkpt lat="43.7032" lon="7.0023">
        <ele>158</ele>
        <time>2012-04-20T05:38:58Z</time>
      </trkpt>
      <trkpt lat="43.70304" lon="7.00246">
        <ele>157</ele>
        <time>2012-04-20T05:39:03Z</time>
      </trkpt>
      <trkpt lat="43.70287" lon="7.00258">
        <ele>160</ele>
        <time>2012-04-20T05:39:09Z</time>
      </trkpt>
      <trkpt lat="43.7027" lon="7.00269">
        <ele>159</ele>
        <time>2012-04-20T05:39:15Z</time>
      </trkpt>
      <trkpt lat="43.70247" lon="7.00293">
        <ele>152</ele>
        <time>2012-04-20T05:39:23Z</time>
      </trkpt>
      <trkpt lat="43.70242" lon="7.00313">
        <ele>154</ele>
        <time>2012-04-20T05:39:27Z</time>
      </trkpt>
      <trkpt lat="43.7024" lon="7.00327">
        <ele>156</ele>
        <time>2012-04-20T05:39:31Z</time>
      </trkpt>
      <trkpt lat="43.70237" lon="7.00354">
        <ele>158</ele>
        <time>2012-04-20T05:39:40Z</time>
      </trkpt>
      <trkpt lat="43.70237" lon="7.00382">
        <ele>160</ele>
        <time>2012-04-20T05:39:50Z</time>
      </trkpt>
      <trkpt lat="43.70239" lon="7.00404">
        <ele>163</ele>
        <time>2012-04-20T05:39:58Z</time>
      </trkpt>
      <trkpt lat="43.7024" lon="7.0042">
        <ele>168</ele>
        <time>2012-04-20T05:40:05Z</time>
      </trkpt>
      <trkpt lat="43.70245" lon="7.00433">
        <ele>168</ele>
        <time>2012-04-20T05:40:11Z</time>
      </trkpt>
      <trkpt lat="43.70251" lon="7.00448">
        <ele>177</ele>
        <time>2012-04-20T05:40:19Z</time>
      </trkpt>
      <trkpt lat="43.70258" lon="7.0046">
        <ele>178</ele>
        <time>2012-04-20T05:40:28Z</time>
      </trkpt>
      <trkpt lat="43.70264" lon="7.00471">
        <ele>179</ele>
        <time>2012-04-20T05:40:36Z</time>
      </trkpt>
      <trkpt lat="43.70266" lon="7.00477">
        <ele>180</ele>
        <time>2012-04-20T05:40:40Z</time>
      </trkpt>
      <trkpt lat="43.70267" lon="7.00486">
        <ele>180</ele>
        <time>2012-04-20T05:40:45Z</time>
      </trkpt>
      <trkpt lat="43.70259" lon="7.00499">
        <ele>181</ele>
        <time>2012-04-20T05:40:55Z</time>
      </trkpt>
      <trkpt lat="43.70254" lon="7.00506">
        <ele>185</ele>
        <time>2012-04-20T05:41:02Z</time>
      </trkpt>
      <trkpt lat="43.70249" lon="7.00515">
        <ele>181</ele>
        <time>2012-04-20T05:41:09Z</time>
      </trkpt>
      <trkpt lat="43.7024" lon="7.00526">
        <ele>181</ele>
        <time>2012-04-20T05:41:19Z</time>
      </trkpt>
      <trkpt lat="43.70233" lon="7.00537">
        <ele>181</ele>
        <time>2012-04-20T05:41:28Z</time>
      </trkpt>
      <trkpt lat="43.70227" lon="7.00549">
        <ele>182</ele>
        <time>2012-04-20T05:41:37Z</time>
      </trkpt>
      <trkpt lat="43.70223" lon="7.00558">
        <ele>183</ele>
        <time>2012-04-20T05:41:43Z</time>
      </trkpt>
      <trkpt lat="43.70219" lon="7.00571">
        <ele>184</ele>
        <time>2012-04-20T05:41:52Z</time>
      </trkpt>
      <trkpt lat="43.70216" lon="7.00586">
        <ele>191</ele>
        <time>2012-04-20T05:42:01Z</time>
      </trkpt>
      <trkpt lat="43.70216" lon="7.006">
        <ele>192</ele>
        <time>2012-04-20T05:42:09Z</time>
      </trkpt>
      <trkpt lat="43.70215" lon="7.00617">
        <ele>192</ele>
        <time>2012-04-20T05:42:19Z</time>
      </trkpt>
      <trkpt lat="43.70215" lon="7.00638">
        <ele>194</ele>
        <time>2012-04-20T05:42:31Z</time>
      </trkpt>
      <trkpt lat="43.70215" lon="7.00649">
        <ele>194</ele>
        <time>2012-04-20T05:42:38Z</time>
      </trkpt>
      <trkpt lat="43.70214" lon="7.00665">
        <ele>195</ele>
        <time>2012-04-20T05:42:48Z</time>
      </trkpt>
      <trkpt lat="43.70216" lon="7.00679">
        <ele>202</ele>
        <time>2012-04-20T05:42:57Z</time>
      </trkpt>
      <trkpt lat="43.70216" lon="7.00694">
        <ele>203</ele>
        <time>2012-04-20T05:43:06Z</time>
      </trkpt>
      <trkpt lat="43.70217" lon="7.00715">
        <ele>204</ele>
        <time>2012-04-20T05:43:18Z</time>
      </trkpt>
      <trkpt lat="43.70218" lon="7.00732">
        <ele>205</ele>
        <time>2012-04-20T05:43:28Z</time>
      </trkpt>
      <trkpt lat="43.70218" lon="7.00752">
        <ele>211</ele>
        <time>2012-04-20T05:43:40Z</time>
      </trkpt>
      <trkpt lat="43.70218" lon="7.00774">
        <ele>212</ele>
        <time>2012-04-20T05:43:52Z</time>
      </trkpt>
      <trkpt lat="43.70219" lon="7.00796">
        <ele>213</ele>
        <time>2012-04-20T05:44:05Z</time>
      </trkpt>
      <trkpt lat="43.70222" lon="7.00814">
        <ele>214</ele>
        <time>2012-04-20T05:44:16Z</time>
      </trkpt>
      <trkpt lat="43.70227" lon="7.00827">
        <ele>216</ele>
        <time>2012-04-20T05:44:24Z</time>
      </trkpt>
      <trkpt lat="43.70233" lon="7.00839">
        <ele>220</ele>
        <time>2012-04-20T05:44:33Z</time>
      </trkpt>
      <trkpt lat="43.70241" lon="7.00856">
        <ele>220</ele>
        <time>2012-04-20T05:44:44Z</time>
      </trkpt>
      <trkpt lat="43.70247" lon="7.00872">
        <ele>220</ele>
        <time>2012-04-20T05:44:54Z</time>
      </trkpt>
      <trkpt lat="43.7025" lon="7.0089">
        <ele>230</ele>
        <time>2012-04-20T05:45:03Z</time>
      </trkpt>
      <trkpt lat="43.70255" lon="7.00913">
        <ele>228</ele>
        <time>2012-04-20T05:45:13Z</time>
      </trkpt>
      <trkpt lat="43.70261" lon="7.00933">
        <ele>230</ele>
        <time>2012-04-20T05:45:22Z</time>
      </trkpt>
      <trkpt lat="43.70269" lon="7.00949">
        <ele>231</ele>
        <time>2012-04-20T05:45:29Z</time>
      </trkpt>
      <trkpt lat="43.70281" lon="7.00966">
        <ele>231</ele>
        <time>2012-04-20T05:45:37Z</time>
      </trkpt>
      <trkpt lat="43.70294" lon="7.00982">
        <ele>232</ele>
        <time>2012-04-20T05:45:45Z</time>
      </trkpt>
      <trkpt lat="43.70312" lon="7.00993">
        <ele>234</ele>
        <time>2012-04-20T05:45:53Z</time>
      </trkpt>
      <trkpt lat="43.70318" lon="7.01001">
        <ele>236</ele>
        <time>2012-04-20T05:45:57Z</time>
      </trkpt>
      <trkpt lat="43.70315" lon="7.01021">
        <ele>235</ele>
        <time>2012-04-20T05:46:02Z</time>
      </trkpt>
      <trkpt lat="43.70307" lon="7.01043">
        <ele>234</ele>
        <time>2012-04-20T05:46:08Z</time>
      </trkpt>
      <trkpt lat="43.70305" lon="7.01049">
        <ele>234</ele>
        <time>2012-04-20T05:46:10Z</time>
      </trkpt>
      <trkpt lat="43.70297" lon="7.01064">
        <ele>234</ele>
        <time>2012-04-20T05:46:16Z</time>
      </trkpt>
      <trkpt lat="43.70284" lon="7.01077">
        <ele>233</ele>
        <time>2012-04-20T05:46:22Z</time>
      </trkpt>
      <trkpt lat="43.7027" lon="7.01095">
        <ele>235</ele>
        <time>2012-04-20T05:46:30Z</time>
      </trkpt>
      <trkpt lat="43.70264" lon="7.01115">
        <ele>237</ele>
        <time>2012-04-20T05:46:37Z</time>
      </trkpt>
      <trkpt lat="43.70258" lon="7.01139">
        <ele>239</ele>
        <time>2012-04-20T05:46:45Z</time>
      </trkpt>
      <trkpt lat="43.70248" lon="7.01157">
        <ele>234</ele>
        <time>2012-04-20T05:46:54Z</time>
      </trkpt>
      <trkpt lat="43.70243" lon="7.01167">
        <ele>238</ele>
        <time>2012-04-20T05:46:59Z</time>
      </trkpt>
      <trkpt lat="43.70239" lon="7.01185">
        <ele>238</ele>
        <time>2012-04-20T05:47:06Z</time>
      </trkpt>
      <trkpt lat="43.70232" lon="7.01209">
        <ele>239</ele>
        <time>2012-04-20T05:47:15Z</time>
      </trkpt>
      <trkpt lat="43.70225" lon="7.01237">
        <ele>241</ele>
        <time>2012-04-20T05:47:24Z</time>
      </trkpt>
      <trkpt lat="43.70224" lon="7.01263">
        <ele>245</ele>
        <time>2012-04-20T05:47:32Z</time>
      </trkpt>
      <trkpt lat="43.70225" lon="7.01302">
        <ele>245</ele>
        <time>2012-04-20T05:47:44Z</time>
      </trkpt>
      <trkpt lat="43.70226" lon="7.01334">
        <ele>246</ele>
        <time>2012-04-20T05:47:53Z</time>
      </trkpt>
      <trkpt lat="43.70228" lon="7.0136">
        <ele>245</ele>
        <time>2012-04-20T05:47:59Z</time>
      </trkpt>
      <trkpt lat="43.70235" lon="7.01403">
        <ele>246</ele>
        <time>2012-04-20T05:48:06Z</time>
      </trkpt>
      <trkpt lat="43.70235" lon="7.01409">
        <ele>247</ele>
        <time>2012-04-20T05:48:07Z</time>
      </trkpt>
      <trkpt lat="43.70236" lon="7.01442">
        <ele>247</ele>
        <time>2012-04-20T05:48:14Z</time>
      </trkpt>
      <trkpt lat="43.70238" lon="7.01466">
        <ele>248</ele>
        <time>2012-04-20T05:48:22Z</time>
      </trkpt>
      <trkpt lat="43.70242" lon="7.01477">
        <ele>250</ele>
        <time>2012-04-20T05:48:27Z</time>
      </trkpt>
      <trkpt lat="43.70247" lon="7.01494">
        <ele>255</ele>
        <time>2012-04-20T05:48:34Z</time>
      </trkpt>
      <trkpt lat="43.70243" lon="7.01509">
        <ele>257</ele>
        <time>2012-04-20T05:48:41Z</time>
      </trkpt>
      <trkpt lat="43.70237" lon="7.01522">
        <ele>257</ele>
        <time>2012-04-20T05:48:49Z</time>
      </trkpt>
      <trkpt lat="43.7023" lon="7.01535">
        <ele>257</ele>
        <time>2012-04-20T05:48:57Z</time>
      </trkpt>
      <trkpt lat="43.70222" lon="7.01554">
        <ele>257</ele>
        <time>2012-04-20T05:49:07Z</time>
      </trkpt>
      <trkpt lat="43.70217" lon="7.0157">
        <ele>258</ele>
        <time>2012-04-20T05:49:16Z</time>
      </trkpt>
      <trkpt lat="43.70212" lon="7.01591">
        <ele>266</ele>
        <time>2012-04-20T05:49:26Z</time>
      </trkpt>
      <trkpt lat="43.70208" lon="7.01606">
        <ele>266</ele>
        <time>2012-04-20T05:49:33Z</time>
      </trkpt>
      <trkpt lat="43.70202" lon="7.0162">
        <ele>266</ele>
        <time>2012-04-20T05:49:41Z</time>
      </trkpt>
      <trkpt lat="43.70194" lon="7.01631">
        <ele>266</ele>
        <time>2012-04-20T05:49:49Z</time>
      </trkpt>
      <trkpt lat="43.70186" lon="7.01641">
        <ele>266</ele>
        <time>2012-04-20T05:49:56Z</time>
      </trkpt>
      <trkpt lat="43.7018" lon="7.01654">
        <ele>266</ele>
        <time>2012-04-20T05:50:04Z</time>
      </trkpt>
      <trkpt lat="43.70179" lon="7.01666">
        <ele>266</ele>
        <time>2012-04-20T05:50:10Z</time>
      </trkpt>
      <trkpt lat="43.7018" lon="7.01686">
        <ele>270</ele>
        <time>2012-04-20T05:50:19Z</time>
      </trkpt>
      <trkpt lat="43.70185" lon="7.01702">
        <ele>271</ele>
        <time>2012-04-20T05:50:27Z</time>
      </trkpt>
      <trkpt lat="43.70192" lon="7.01715">
        <ele>272</ele>
        <time>2012-04-20T05:50:34Z</time>
      </trkpt>
      <trkpt lat="43.70199" lon="7.01718">
        <ele>273</ele>
        <time>2012-04-20T05:50:38Z</time>
      </trkpt>
      <trkpt lat="43.70206" lon="7.0171">
        <ele>274</ele>
        <time>2012-04-20T05:50:45Z</time>
      </trkpt>
      <trkpt lat="43.70207" lon="7.01704">
        <ele>274</ele>
        <time>2012-04-20T05:50:48Z</time>
      </trkpt>
      <trkpt lat="43.70211" lon="7.01688">
        <ele>274</ele>
        <time>2012-04-20T05:50:56Z</time>
      </trkpt>
      <trkpt lat="43.70219" lon="7.01681">
        <ele>276</ele>
        <time>2012-04-20T05:51:02Z</time>
      </trkpt>
      <trkpt lat="43.70231" lon="7.01675">
        <ele>278</ele>
        <time>2012-04-20T05:51:10Z</time>
      </trkpt>
      <trkpt lat="43.7024" lon="7.01665">
        <ele>278</ele>
        <time>2012-04-20T05:51:18Z</time>
      </trkpt>
      <trkpt lat="43.70245" lon="7.01662">
        <ele>279</ele>
        <time>2012-04-20T05:51:22Z</time>
      </trkpt>
      <trkpt lat="43.70255" lon="7.01668">
        <ele>285</ele>
        <time>2012-04-20T05:51:30Z</time>
      </trkpt>
      <trkpt lat="43.7026" lon="7.01677">
        <ele>287</ele>
        <time>2012-04-20T05:51:36Z</time>
      </trkpt>
      <trkpt lat="43.70266" lon="7.0169">
        <ele>290</ele>
        <time>2012-04-20T05:51:44Z</time>
      </trkpt>
      <trkpt lat="43.70271" lon="7.01702">
        <ele>291</ele>
        <time>2012-04-20T05:51:52Z</time>
      </trkpt>
      <trkpt lat="43.70275" lon="7.01705">
        <ele>291</ele>
        <time>2012-04-20T05:51:55Z</time>
      </trkpt>
      <trkpt lat="43.70281" lon="7.01705">
        <ele>292</ele>
        <time>2012-04-20T05:51:59Z</time>
      </trkpt>
      <trkpt lat="43.70285" lon="7.01692">
        <ele>292</ele>
        <time>2012-04-20T05:52:06Z</time>
      </trkpt>
      <trkpt lat="43.70293" lon="7.0168">
        <ele>293</ele>
        <time>2012-04-20T05:52:14Z</time>
      </trkpt>
      <trkpt lat="43.70303" lon="7.01677">
        <ele>294</ele>
        <time>2012-04-20T05:52:21Z</time>
      </trkpt>
      <trkpt lat="43.70314" lon="7.0168">
        <ele>296</ele>
        <time>2012-04-20T05:52:29Z</time>
      </trkpt>
      <trkpt lat="43.7032" lon="7.01689">
        <ele>296</ele>
        <time>2012-04-20T05:52:36Z</time>
      </trkpt>
      <trkpt lat="43.70321" lon="7.01704">
        <ele>296</ele>
        <time>2012-04-20T05:52:42Z</time>
      </trkpt>
      <trkpt lat="43.70322" lon="7.01721">
        <ele>297</ele>
        <time>2012-04-20T05:52:49Z</time>
      </trkpt>
      <trkpt lat="43.70332" lon="7.01731">
        <ele>299</ele>
        <time>2012-04-20T05:52:53Z</time>
      </trkpt>
      <trkpt lat="43.70342" lon="7.01732">
        <ele>308</ele>
        <time>2012-04-20T05:52:58Z</time>
      </trkpt>
      <trkpt lat="43.7035" lon="7.01738">
        <ele>309</ele>
        <time>2012-04-20T05:53:05Z</time>
      </trkpt>
      <trkpt lat="43.70355" lon="7.01752">
        <ele>311</ele>
        <time>2012-04-20T05:53:14Z</time>
      </trkpt>
      <trkpt lat="43.70359" lon="7.01766">
        <ele>313</ele>
        <time>2012-04-20T05:53:23Z</time>
      </trkpt>
      <trkpt lat="43.70359" lon="7.01768">
        <ele>313</ele>
        <time>2012-04-20T05:53:24Z</time>
      </trkpt>
      <trkpt lat="43.70364" lon="7.01779">
        <ele>314</ele>
        <time>2012-04-20T05:53:33Z</time>
      </trkpt>
      <trkpt lat="43.70368" lon="7.01779">
        <ele>314</ele>
        <time>2012-04-20T05:53:37Z</time>
      </trkpt>
      <trkpt lat="43.70376" lon="7.01769">
        <ele>315</ele>
        <time>2012-04-20T05:53:46Z</time>
      </trkpt>
      <trkpt lat="43.70385" lon="7.01755">
        <ele>316</ele>
        <time>2012-04-20T05:53:56Z</time>
      </trkpt>
      <trkpt lat="43.70393" lon="7.01743">
        <ele>316</ele>
        <time>2012-04-20T05:54:04Z</time>
      </trkpt>
      <trkpt lat="43.70401" lon="7.0173">
        <ele>316</ele>
        <time>2012-04-20T05:54:12Z</time>
      </trkpt>
      <trkpt lat="43.70411" lon="7.01717">
        <ele>316</ele>
        <time>2012-04-20T05:54:21Z</time>
      </trkpt>
      <trkpt lat="43.70423" lon="7.01713">
        <ele>326</ele>
        <time>2012-04-20T05:54:29Z</time>
      </trkpt>
      <trkpt lat="43.70436" lon="7.01713">
        <ele>327</ele>
        <time>2012-04-20T05:54:38Z</time>
      </trkpt>
      <trkpt lat="43.70451" lon="7.01709">
        <ele>328</ele>
        <time>2012-04-20T05:54:47Z</time>
      </trkpt>
      <trkpt lat="43.70463" lon="7.01694">
        <ele>329</ele>
        <time>2012-04-20T05:54:57Z</time>
      </trkpt>
      <trkpt lat="43.70468" lon="7.0168">
        <ele>330</ele>
        <time>2012-04-20T05:55:05Z</time>
      </trkpt>
      <trkpt lat="43.7047" lon="7.01677">
        <ele>330</ele>
        <time>2012-04-20T05:55:07Z</time>
      </trkpt>
      <trkpt lat="43.70477" lon="7.01683">
        <ele>331</ele>
        <time>2012-04-20T05:55:13Z</time>
      </trkpt>
      <trkpt lat="43.70478" lon="7.01684">
        <ele>331</ele>
        <time>2012-04-20T05:55:14Z</time>
      </trkpt>
      <trkpt lat="43.70486" lon="7.01699">
        <ele>331</ele>
        <time>2012-04-20T05:55:25Z</time>
      </trkpt>
      <trkpt lat="43.70494" lon="7.01709">
        <ele>332</ele>
        <time>2012-04-20T05:55:33Z</time>
      </trkpt>
      <trkpt lat="43.70505" lon="7.01724">
        <ele>342</ele>
        <time>2012-04-20T05:55:44Z</time>
      </trkpt>
      <trkpt lat="43.70514" lon="7.01736">
        <ele>342</ele>
        <time>2012-04-20T05:55:53Z</time>
      </trkpt>
      <trkpt lat="43.70524" lon="7.01748">
        <ele>343</ele>
        <time>2012-04-20T05:56:02Z</time>
      </trkpt>
      <trkpt lat="43.70534" lon="7.0176">
        <ele>346</ele>
        <time>2012-04-20T05:56:11Z</time>
      </trkpt>
      <trkpt lat="43.70543" lon="7.01771">
        <ele>347</ele>
        <time>2012-04-20T05:56:20Z</time>
      </trkpt>
      <trkpt lat="43.70549" lon="7.01779">
        <ele>348</ele>
        <time>2012-04-20T05:56:28Z</time>
      </trkpt>
      <trkpt lat="43.70558" lon="7.01787">
        <ele>349</ele>
        <time>2012-04-20T05:56:36Z</time>
      </trkpt>
      <trkpt lat="43.70566" lon="7.01799">
        <ele>350</ele>
        <time>2012-04-20T05:56:45Z</time>
      </trkpt>
      <trkpt lat="43.70571" lon="7.01808">
        <ele>351</ele>
        <time>2012-04-20T05:56:51Z</time>
      </trkpt>
      <trkpt lat="43.70576" lon="7.01823">
        <ele>354</ele>
        <time>2012-04-20T05:57:00Z</time>
      </trkpt>
      <trkpt lat="43.7058" lon="7.01837">
        <ele>356</ele>
        <time>2012-04-20T05:57:09Z</time>
      </trkpt>
      <trkpt lat="43.70582" lon="7.01849">
        <ele>354</ele>
        <time>2012-04-20T05:57:16Z</time>
      </trkpt>
      <trkpt lat="43.70583" lon="7.01861">
        <ele>363</ele>
        <time>2012-04-20T05:57:23Z</time>
      </trkpt>
      <trkpt lat="43.70584" lon="7.01876">
        <ele>364</ele>
        <time>2012-04-20T05:57:32Z</time>
      </trkpt>
      <trkpt lat="43.70587" lon="7.0189">
        <ele>363</ele>
        <time>2012-04-20T05:57:41Z</time>
      </trkpt>
      <trkpt lat="43.70588" lon="7.01891">
        <ele>363</ele>
        <time>2012-04-20T05:57:42Z</time>
      </trkpt>
      <trkpt lat="43.70597" lon="7.01891">
        <ele>364</ele>
        <time>2012-04-20T05:57:50Z</time>
      </trkpt>
      <trkpt lat="43.70605" lon="7.01882">
        <ele>365</ele>
        <time>2012-04-20T05:57:59Z</time>
      </trkpt>
      <trkpt lat="43.70612" lon="7.01869">
        <ele>366</ele>
        <time>2012-04-20T05:58:08Z</time>
      </trkpt>
      <trkpt lat="43.70621" lon="7.01853">
        <ele>367</ele>
        <time>2012-04-20T05:58:18Z</time>
      </trkpt>
      <trkpt lat="43.70631" lon="7.01836">
        <ele>369</ele>
        <time>2012-04-20T05:58:29Z</time>
      </trkpt>
      <trkpt lat="43.70639" lon="7.01822">
        <ele>371</ele>
        <time>2012-04-20T05:58:38Z</time>
      </trkpt>
      <trkpt lat="43.70645" lon="7.0181">
        <ele>371</ele>
        <time>2012-04-20T05:58:45Z</time>
      </trkpt>
      <trkpt lat="43.70651" lon="7.01793">
        <ele>371</ele>
        <time>2012-04-20T05:58:55Z</time>
      </trkpt>
      <trkpt lat="43.70657" lon="7.01779">
        <ele>373</ele>
        <time>2012-04-20T05:59:04Z</time>
      </trkpt>
      <trkpt lat="43.70663" lon="7.01766">
        <ele>375</ele>
        <time>2012-04-20T05:59:12Z</time>
      </trkpt>
      <trkpt lat="43.7067" lon="7.01754">
        <ele>383</ele>
        <time>2012-04-20T05:59:20Z</time>
      </trkpt>
      <trkpt lat="43.70681" lon="7.01745">
        <ele>388</ele>
        <time>2012-04-20T05:59:29Z</time>
      </trkpt>
      <trkpt lat="43.70687" lon="7.01732">
        <ele>391</ele>
        <time>2012-04-20T05:59:37Z</time>
      </trkpt>
      <trkpt lat="43.70689" lon="7.01721">
        <ele>392</ele>
        <time>2012-04-20T05:59:44Z</time>
      </trkpt>
      <trkpt lat="43.70695" lon="7.01703">
        <ele>393</ele>
        <time>2012-04-20T05:59:53Z</time>
      </trkpt>
      <trkpt lat="43.70699" lon="7.01687">
        <ele>393</ele>
        <time>2012-04-20T06:00:01Z</time>
      </trkpt>
      <trkpt lat="43.70703" lon="7.0167">
        <ele>394</ele>
        <time>2012-04-20T06:00:10Z</time>
      </trkpt>
      <trkpt lat="43.70707" lon="7.01654">
        <ele>396</ele>
        <time>2012-04-20T06:00:19Z</time>
      </trkpt>
      <trkpt lat="43.70709" lon="7.01639">
        <ele>397</ele>
        <time>2012-04-20T06:00:28Z</time>
      </trkpt>
      <trkpt lat="43.70711" lon="7.01626">
        <ele>397</ele>
        <time>2012-04-20T06:00:36Z</time>
      </trkpt>
      <trkpt lat="43.70711" lon="7.01619">
        <ele>398</ele>
        <time>2012-04-20T06:00:40Z</time>
      </trkpt>
      <trkpt lat="43.70715" lon="7.01601">
        <ele>399</ele>
        <time>2012-04-20T06:00:51Z</time>
      </trkpt>
      <trkpt lat="43.7072" lon="7.01583">
        <ele>402</ele>
        <time>2012-04-20T06:01:02Z</time>
      </trkpt>
      <trkpt lat="43.70724" lon="7.01571">
        <ele>403</ele>
        <time>2012-04-20T06:01:10Z</time>
      </trkpt>
      <trkpt lat="43.70731" lon="7.01552">
        <ele>403</ele>
        <time>2012-04-20T06:01:22Z</time>
      </trkpt>
      <trkpt lat="43.70735" lon="7.01541">
        <ele>404</ele>
        <time>2012-04-20T06:01:30Z</time>
      </trkpt>
      <trkpt lat="43.70737" lon="7.01528">
        <ele>405</ele>
        <time>2012-04-20T06:01:39Z</time>
      </trkpt>
      <trkpt lat="43.70742" lon="7.01512">
        <ele>409</ele>
        <time>2012-04-20T06:01:49Z</time>
      </trkpt>
      <trkpt lat="43.70744" lon="7.01501">
        <ele>413</ele>
        <time>2012-04-20T06:01:56Z</time>
      </trkpt>
      <trkpt lat="43.70749" lon="7.01486">
        <ele>410</ele>
        <time>2012-04-20T06:02:05Z</time>
      </trkpt>
      <trkpt lat="43.70754" lon="7.01472">
        <ele>426</ele>
        <time>2012-04-20T06:02:15Z</time>
      </trkpt>
      <trkpt lat="43.70761" lon="7.01457">
        <ele>427</ele>
        <time>2012-04-20T06:02:25Z</time>
      </trkpt>
      <trkpt lat="43.70769" lon="7.0144">
        <ele>427</ele>
        <time>2012-04-20T06:02:36Z</time>
      </trkpt>
      <trkpt lat="43.70776" lon="7.01429">
        <ele>428</ele>
        <time>2012-04-20T06:02:44Z</time>
      </trkpt>
      <trkpt lat="43.70781" lon="7.0142">
        <ele>429</ele>
        <time>2012-04-20T06:02:51Z</time>
      </trkpt>
      <trkpt lat="43.70787" lon="7.01409">
        <ele>427</ele>
        <time>2012-04-20T06:02:58Z</time>
      </trkpt>
      <trkpt lat="43.70795" lon="7.014">
        <ele>428</ele>
        <time>2012-04-20T06:03:06Z</time>
      </trkpt>
      <trkpt lat="43.70797" lon="7.01399">
        <ele>429</ele>
        <time>2012-04-20T06:03:08Z</time>
      </trkpt>
      <trkpt lat="43.70802" lon="7.01407">
        <ele>431</ele>
        <time>2012-04-20T06:03:14Z</time>
      </trkpt>
      <trkpt lat="43.70802" lon="7.01409">
        <ele>431</ele>
        <time>2012-04-20T06:03:15Z</time>
      </trkpt>
      <trkpt lat="43.70802" lon="7.01425">
        <ele>435</ele>
        <time>2012-04-20T06:03:23Z</time>
      </trkpt>
      <trkpt lat="43.70803" lon="7.01441">
        <ele>434</ele>
        <time>2012-04-20T06:03:32Z</time>
      </trkpt>
      <trkpt lat="43.70803" lon="7.01454">
        <ele>434</ele>
        <time>2012-04-20T06:03:39Z</time>
      </trkpt>
      <trkpt lat="43.70804" lon="7.0147">
        <ele>435</ele>
        <time>2012-04-20T06:03:47Z</time>
      </trkpt>
      <trkpt lat="43.70809" lon="7.0149">
        <ele>437</ele>
        <time>2012-04-20T06:03:57Z</time>
      </trkpt>
      <trkpt lat="43.70813" lon="7.01507">
        <ele>439</ele>
        <time>2012-04-20T06:04:06Z</time>
      </trkpt>
      <trkpt lat="43.70817" lon="7.01521">
        <ele>438</ele>
        <time>2012-04-20T06:04:14Z</time>
      </trkpt>
      <trkpt lat="43.7082" lon="7.0154">
        <ele>437</ele>
        <time>2012-04-20T06:04:24Z</time>
      </trkpt>
      <trkpt lat="43.70821" lon="7.0156">
        <ele>439</ele>
        <time>2012-04-20T06:04:34Z</time>
      </trkpt>
      <trkpt lat="43.70823" lon="7.01578">
        <ele>443</ele>
        <time>2012-04-20T06:04:43Z</time>
      </trkpt>
      <trkpt lat="43.70829" lon="7.01597">
        <ele>441</ele>
        <time>2012-04-20T06:04:53Z</time>
      </trkpt>
      <trkpt lat="43.70835" lon="7.01609">
        <ele>457</ele>
        <time>2012-04-20T06:05:00Z</time>
      </trkpt>
      <trkpt lat="43.70848" lon="7.01626">
        <ele>458</ele>
        <time>2012-04-20T06:05:11Z</time>
      </trkpt>
      <trkpt lat="43.7086" lon="7.0164">
        <ele>459</ele>
        <time>2012-04-20T06:05:21Z</time>
      </trkpt>
      <trkpt lat="43.70871" lon="7.01655">
        <ele>461</ele>
        <time>2012-04-20T06:05:31Z</time>
      </trkpt>
      <trkpt lat="43.7088" lon="7.01668">
        <ele>457</ele>
        <time>2012-04-20T06:05:39Z</time>
      </trkpt>
      <trkpt lat="43.70888" lon="7.0168">
        <ele>459</ele>
        <time>2012-04-20T06:05:47Z</time>
      </trkpt>
      <trkpt lat="43.70896" lon="7.01696">
        <ele>459</ele>
        <time>2012-04-20T06:05:57Z</time>
      </trkpt>
      <trkpt lat="43.70904" lon="7.01715">
        <ele>459</ele>
        <time>2012-04-20T06:06:08Z</time>
      </trkpt>
      <trkpt lat="43.70907" lon="7.01725">
        <ele>459</ele>
        <time>2012-04-20T06:06:14Z</time>
      </trkpt>
      <trkpt lat="43.70912" lon="7.01731">
        <ele>460</ele>
        <time>2012-04-20T06:06:20Z</time>
      </trkpt>
      <trkpt lat="43.70917" lon="7.01726">
        <ele>482</ele>
        <time>2012-04-20T06:06:26Z</time>
      </trkpt>
      <trkpt lat="43.70915" lon="7.01712">
        <ele>460</ele>
        <time>2012-04-20T06:06:34Z</time>
      </trkpt>
      <trkpt lat="43.70914" lon="7.01696">
        <ele>461</ele>
        <time>2012-04-20T06:06:42Z</time>
      </trkpt>
      <trkpt lat="43.70914" lon="7.01684">
        <ele>464</ele>
        <time>2012-04-20T06:06:49Z</time>
      </trkpt>
      <trkpt lat="43.70915" lon="7.01666">
        <ele>473</ele>
        <time>2012-04-20T06:06:58Z</time>
      </trkpt>
      <trkpt lat="43.70916" lon="7.0165">
        <ele>470</ele>
        <time>2012-04-20T06:07:07Z</time>
      </trkpt>
      <trkpt lat="43.70916" lon="7.01636">
        <ele>469</ele>
        <time>2012-04-20T06:07:15Z</time>
      </trkpt>
      <trkpt lat="43.70914" lon="7.01621">
        <ele>471</ele>
        <time>2012-04-20T06:07:23Z</time>
      </trkpt>
      <trkpt lat="43.70906" lon="7.01603">
        <ele>474</ele>
        <time>2012-04-20T06:07:34Z</time>
      </trkpt>
      <trkpt lat="43.70905" lon="7.01599">
        <ele>475</ele>
        <time>2012-04-20T06:07:36Z</time>
      </trkpt>
      <trkpt lat="43.70909" lon="7.0159">
        <ele>481</ele>
        <time>2012-04-20T06:07:42Z</time>
      </trkpt>
      <trkpt lat="43.70915" lon="7.01592">
        <ele>481</ele>
        <time>2012-04-20T06:07:47Z</time>
      </trkpt>
      <trkpt lat="43.70921" lon="7.01604">
        <ele>497</ele>
        <time>2012-04-20T06:07:54Z</time>
      </trkpt>
      <trkpt lat="43.70931" lon="7.01628">
        <ele>498</ele>
        <time>2012-04-20T06:08:07Z</time>
      </trkpt>
      <trkpt lat="43.70938" lon="7.01642">
        <ele>497</ele>
        <time>2012-04-20T06:08:16Z</time>
      </trkpt>
      <trkpt lat="43.70945" lon="7.01658">
        <ele>497</ele>
        <time>2012-04-20T06:08:27Z</time>
      </trkpt>
      <trkpt lat="43.70951" lon="7.01674">
        <ele>493</ele>
        <time>2012-04-20T06:08:37Z</time>
      </trkpt>
      <trkpt lat="43.70956" lon="7.01687">
        <ele>494</ele>
        <time>2012-04-20T06:08:46Z</time>
      </trkpt>
      <trkpt lat="43.70965" lon="7.01703">
        <ele>496</ele>
        <time>2012-04-20T06:08:57Z</time>
      </trkpt>
      <trkpt lat="43.7097" lon="7.01717">
        <ele>497</ele>
        <time>2012-04-20T06:09:06Z</time>
      </trkpt>
      <trkpt lat="43.70975" lon="7.01736">
        <ele>499</ele>
        <time>2012-04-20T06:09:17Z</time>
      </trkpt>
      <trkpt lat="43.70977" lon="7.01739">
        <ele>500</ele>
        <time>2012-04-20T06:09:19Z</time>
      </trkpt>
      <trkpt lat="43.70981" lon="7.0174">
        <ele>501</ele>
        <time>2012-04-20T06:09:22Z</time>
      </trkpt>
      <trkpt lat="43.70984" lon="7.01736">
        <ele>502</ele>
        <time>2012-04-20T06:09:26Z</time>
      </trkpt>
      <trkpt lat="43.70981" lon="7.0172">
        <ele>500</ele>
        <time>2012-04-20T06:09:35Z</time>
      </trkpt>
      <trkpt lat="43.70977" lon="7.01706">
        <ele>499</ele>
        <time>2012-04-20T06:09:42Z</time>
      </trkpt>
      <trkpt lat="43.70974" lon="7.01683">
        <ele>502</ele>
        <time>2012-04-20T06:09:54Z</time>
      </trkpt>
      <trkpt lat="43.70974" lon="7.01669">
        <ele>503</ele>
        <time>2012-04-20T06:10:01Z</time>
      </trkpt>
      <trkpt lat="43.70973" lon="7.01652">
        <ele>509</ele>
        <time>2012-04-20T06:10:10Z</time>
      </trkpt>
      <trkpt lat="43.70972" lon="7.01637">
        <ele>509</ele>
        <time>2012-04-20T06:10:18Z</time>
      </trkpt>
      <trkpt lat="43.70971" lon="7.01613">
        <ele>511</ele>
        <time>2012-04-20T06:10:30Z</time>
      </trkpt>
      <trkpt lat="43.70969" lon="7.01598">
        <ele>512</ele>
        <time>2012-04-20T06:10:38Z</time>
      </trkpt>
      <trkpt lat="43.70968" lon="7.01582">
        <ele>519</ele>
        <time>2012-04-20T06:10:47Z</time>
      </trkpt>
      <trkpt lat="43.70966" lon="7.01565">
        <ele>518</ele>
        <time>2012-04-20T06:10:56Z</time>
      </trkpt>
      <trkpt lat="43.70965" lon="7.01547">
        <ele>518</ele>
        <time>2012-04-20T06:11:06Z</time>
      </trkpt>
      <trkpt lat="43.70964" lon="7.01531">
        <ele>518</ele>
        <time>2012-04-20T06:11:15Z</time>
      </trkpt>
      <trkpt lat="43.70965" lon="7.01516">
        <ele>519</ele>
        <time>2012-04-20T06:11:23Z</time>
      </trkpt>
      <trkpt lat="43.70965" lon="7.01498">
        <ele>521</ele>
        <time>2012-04-20T06:11:32Z</time>
      </trkpt>
      <trkpt lat="43.7097" lon="7.01488">
        <ele>523</ele>
        <time>2012-04-20T06:11:38Z</time>
      </trkpt>
      <trkpt lat="43.70974" lon="7.01488">
        <ele>525</ele>
        <time>2012-04-20T06:11:41Z</time>
      </trkpt>
      <trkpt lat="43.70978" lon="7.01494">
        <ele>528</ele>
        <time>2012-04-20T06:11:45Z</time>
      </trkpt>
      <trkpt lat="43.70985" lon="7.01511">
        <ele>529</ele>
        <time>2012-04-20T06:11:56Z</time>
      </trkpt>
      <trkpt lat="43.70989" lon="7.01525">
        <ele>526</ele>
        <time>2012-04-20T06:12:05Z</time>
      </trkpt>
      <trkpt lat="43.7099" lon="7.01528">
        <ele>526</ele>
        <time>2012-04-20T06:12:07Z</time>
      </trkpt>
      <trkpt lat="43.70995" lon="7.01544">
        <ele>524</ele>
        <time>2012-04-20T06:12:17Z</time>
      </trkpt>
      <trkpt lat="43.71" lon="7.01558">
        <ele>526</ele>
        <time>2012-04-20T06:12:25Z</time>
      </trkpt>
      <trkpt lat="43.71006" lon="7.01574">
        <ele>548</ele>
        <time>2012-04-20T06:12:35Z</time>
      </trkpt>
      <trkpt lat="43.71012" lon="7.01585">
        <ele>545</ele>
        <time>2012-04-20T06:12:43Z</time>
      </trkpt>
      <trkpt lat="43.71018" lon="7.01596">
        <ele>549</ele>
        <time>2012-04-20T06:12:51Z</time>
      </trkpt>
      <trkpt lat="43.71028" lon="7.01613">
        <ele>553</ele>
        <time>2012-04-20T06:13:03Z</time>
      </trkpt>
      <trkpt lat="43.71036" lon="7.01629">
        <ele>555</ele>
        <time>2012-04-20T06:13:14Z</time>
      </trkpt>
      <trkpt lat="43.71042" lon="7.0164">
        <ele>556</ele>
        <time>2012-04-20T06:13:22Z</time>
      </trkpt>
      <trkpt lat="43.71047" lon="7.01655">
        <ele>557</ele>
        <time>2012-04-20T06:13:31Z</time>
      </trkpt>
      <trkpt lat="43.7105" lon="7.01668">
        <ele>550</ele>
        <time>2012-04-20T06:13:38Z</time>
      </trkpt>
      <trkpt lat="43.71053" lon="7.0168">
        <ele>550</ele>
        <time>2012-04-20T06:13:45Z</time>
      </trkpt>
      <trkpt lat="43.71056" lon="7.01693">
        <ele>549</ele>
        <time>2012-04-20T06:13:53Z</time>
      </trkpt>
      <trkpt lat="43.71058" lon="7.01709">
        <ele>547</ele>
        <time>2012-04-20T06:14:01Z</time>
      </trkpt>
      <trkpt lat="43.71064" lon="7.01719">
        <ele>548</ele>
        <time>2012-04-20T06:14:09Z</time>
      </trkpt>
      <trkpt lat="43.71065" lon="7.01719">
        <ele>549</ele>
        <time>2012-04-20T06:14:10Z</time>
      </trkpt>
      <trkpt lat="43.71068" lon="7.01709">
        <ele>550</ele>
        <time>2012-04-20T06:14:16Z</time>
      </trkpt>
      <trkpt lat="43.71064" lon="7.01683">
        <ele>554</ele>
        <time>2012-04-20T06:14:29Z</time>
      </trkpt>
      <trkpt lat="43.71064" lon="7.01661">
        <ele>564</ele>
        <time>2012-04-20T06:14:39Z</time>
      </trkpt>
      <trkpt lat="43.71064" lon="7.01646">
        <ele>563</ele>
        <time>2012-04-20T06:14:47Z</time>
      </trkpt>
      <trkpt lat="43.71063" lon="7.01629">
        <ele>563</ele>
        <time>2012-04-20T06:14:57Z</time>
      </trkpt>
      <trkpt lat="43.71064" lon="7.01619">
        <ele>565</ele>
        <time>2012-04-20T06:15:03Z</time>
      </trkpt>
      <trkpt lat="43.71062" lon="7.01602">
        <ele>568</ele>
        <time>2012-04-20T06:15:13Z</time>
      </trkpt>
      <trkpt lat="43.71059" lon="7.01589">
        <ele>569</ele>
        <time>2012-04-20T06:15:21Z</time>
      </trkpt>
      <trkpt lat="43.71055" lon="7.01572">
        <ele>573</ele>
        <time>2012-04-20T06:15:31Z</time>
      </trkpt>
      <trkpt lat="43.71052" lon="7.01558">
        <ele>571</ele>
        <time>2012-04-20T06:15:39Z</time>
      </trkpt>
      <trkpt lat="43.71054" lon="7.01541">
        <ele>572</ele>
        <time>2012-04-20T06:15:48Z</time>
      </trkpt>
      <trkpt lat="43.71056" lon="7.01533">
        <ele>573</ele>
        <time>2012-04-20T06:15:53Z</time>
      </trkpt>
      <trkpt lat="43.7106" lon="7.0152">
        <ele>577</ele>
        <time>2012-04-20T06:16:01Z</time>
      </trkpt>
      <trkpt lat="43.7106" lon="7.01509">
        <ele>579</ele>
        <time>2012-04-20T06:16:09Z</time>
      </trkpt>
      <trkpt lat="43.71058" lon="7.01496">
        <ele>580</ele>
        <time>2012-04-20T06:16:17Z</time>
      </trkpt>
      <trkpt lat="43.71059" lon="7.01481">
        <ele>578</ele>
        <time>2012-04-20T06:16:25Z</time>
      </trkpt>
      <trkpt lat="43.71063" lon="7.01464">
        <ele>577</ele>
        <time>2012-04-20T06:16:34Z</time>
      </trkpt>
      <trkpt lat="43.71068" lon="7.01446">
        <ele>579</ele>
        <time>2012-04-20T06:16:44Z</time>
      </trkpt>
      <trkpt lat="43.71072" lon="7.01429">
        <ele>584</ele>
        <time>2012-04-20T06:16:53Z</time>
      </trkpt>
      <trkpt lat="43.71078" lon="7.01414">
        <ele>589</ele>
        <time>2012-04-20T06:17:01Z</time>
      </trkpt>
      <trkpt lat="43.71085" lon="7.01397">
        <ele>605</ele>
        <time>2012-04-20T06:17:10Z</time>
      </trkpt>
      <trkpt lat="43.71093" lon="7.01378">
        <ele>607</ele>
        <time>2012-04-20T06:17:20Z</time>
      </trkpt>
      <trkpt lat="43.711" lon="7.01359">
        <ele>606</ele>
        <time>2012-04-20T06:17:30Z</time>
      </trkpt>
      <trkpt lat="43.71105" lon="7.01346">
        <ele>605</ele>
        <time>2012-04-20T06:17:38Z</time>
      </trkpt>
      <trkpt lat="43.7111" lon="7.01329">
        <ele>599</ele>
        <time>2012-04-20T06:17:48Z</time>
      </trkpt>
      <trkpt lat="43.71116" lon="7.01314">
        <ele>601</ele>
        <time>2012-04-20T06:17:58Z</time>
      </trkpt>
      <trkpt lat="43.7112" lon="7.01302">
        <ele>602</ele>
        <time>2012-04-20T06:18:06Z</time>
      </trkpt>
      <trkpt lat="43.71123" lon="7.01294">
        <ele>602</ele>
        <time>2012-04-20T06:18:11Z</time>
      </trkpt>
      <trkpt lat="43.71128" lon="7.01279">
        <ele>602</ele>
        <time>2012-04-20T06:18:21Z</time>
      </trkpt>
      <trkpt lat="43.71128" lon="7.01276">
        <ele>602</ele>
        <time>2012-04-20T06:18:23Z</time>
      </trkpt>
      <trkpt lat="43.71134" lon="7.01266">
        <ele>604</ele>
        <time>2012-04-20T06:18:31Z</time>
      </trkpt>
      <trkpt lat="43.71137" lon="7.01262">
        <ele>605</ele>
        <time>2012-04-20T06:18:34Z</time>
      </trkpt>
      <trkpt lat="43.71145" lon="7.01253">
        <ele>609</ele>
        <time>2012-04-20T06:18:43Z</time>
      </trkpt>
      <trkpt lat="43.71154" lon="7.01245">
        <ele>609</ele>
        <time>2012-04-20T06:18:52Z</time>
      </trkpt>
      <trkpt lat="43.71161" lon="7.01237">
        <ele>609</ele>
        <time>2012-04-20T06:19:00Z</time>
      </trkpt>
      <trkpt lat="43.71168" lon="7.01222">
        <ele>630</ele>
        <time>2012-04-20T06:19:10Z</time>
      </trkpt>
      <trkpt lat="43.71171" lon="7.01205">
        <ele>631</ele>
        <time>2012-04-20T06:19:20Z</time>
      </trkpt>
      <trkpt lat="43.71167" lon="7.01191">
        <ele>629</ele>
        <time>2012-04-20T06:19:28Z</time>
      </trkpt>
      <trkpt lat="43.71162" lon="7.01179">
        <ele>608</ele>
        <time>2012-04-20T06:19:35Z</time>
      </trkpt>
      <trkpt lat="43.71158" lon="7.01167">
        <ele>610</ele>
        <time>2012-04-20T06:19:42Z</time>
      </trkpt>
      <trkpt lat="43.71158" lon="7.01152">
        <ele>601</ele>
        <time>2012-04-20T06:19:51Z</time>
      </trkpt>
      <trkpt lat="43.71161" lon="7.01141">
        <ele>596</ele>
        <time>2012-04-20T06:19:58Z</time>
      </trkpt>
      <trkpt lat="43.71167" lon="7.01134">
        <ele>619</ele>
        <time>2012-04-20T06:20:04Z</time>
      </trkpt>
      <trkpt lat="43.71174" lon="7.01141">
        <ele>620</ele>
        <time>2012-04-20T06:20:10Z</time>
      </trkpt>
      <trkpt lat="43.71177" lon="7.01156">
        <ele>620</ele>
        <time>2012-04-20T06:20:19Z</time>
      </trkpt>
      <trkpt lat="43.71177" lon="7.01158">
        <ele>620</ele>
        <time>2012-04-20T06:20:20Z</time>
      </trkpt>
      <trkpt lat="43.71184" lon="7.01168">
        <ele>628</ele>
        <time>2012-04-20T06:20:28Z</time>
      </trkpt>
      <trkpt lat="43.71191" lon="7.01174">
        <ele>632</ele>
        <time>2012-04-20T06:20:35Z</time>
      </trkpt>
      <trkpt lat="43.712" lon="7.01182">
        <ele>635</ele>
        <time>2012-04-20T06:20:43Z</time>
      </trkpt>
      <trkpt lat="43.71208" lon="7.01189">
        <ele>638</ele>
        <time>2012-04-20T06:20:50Z</time>
      </trkpt>
      <trkpt lat="43.71213" lon="7.01202">
        <ele>640</ele>
        <time>2012-04-20T06:20:57Z</time>
      </trkpt>
      <trkpt lat="43.7121" lon="7.01217">
        <ele>640</ele>
        <time>2012-04-20T06:21:05Z</time>
      </trkpt>
      <trkpt lat="43.71207" lon="7.01234">
        <ele>639</ele>
        <time>2012-04-20T06:21:14Z</time>
      </trkpt>
      <trkpt lat="43.71203" lon="7.01249">
        <ele>638</ele>
        <time>2012-04-20T06:21:23Z</time>
      </trkpt>
      <trkpt lat="43.712" lon="7.01264">
        <ele>643</ele>
        <time>2012-04-20T06:21:31Z</time>
      </trkpt>
      <trkpt lat="43.71198" lon="7.01281">
        <ele>645</ele>
        <time>2012-04-20T06:21:40Z</time>
      </trkpt>
      <trkpt lat="43.71197" lon="7.01303">
        <ele>646</ele>
        <time>2012-04-20T06:21:51Z</time>
      </trkpt>
      <trkpt lat="43.71196" lon="7.0132">
        <ele>646</ele>
        <time>2012-04-20T06:21:59Z</time>
      </trkpt>
      <trkpt lat="43.71194" lon="7.01343">
        <ele>654</ele>
        <time>2012-04-20T06:22:10Z</time>
      </trkpt>
      <trkpt lat="43.71191" lon="7.01359">
        <ele>656</ele>
        <time>2012-04-20T06:22:18Z</time>
      </trkpt>
      <trkpt lat="43.71191" lon="7.01367">
        <ele>657</ele>
        <time>2012-04-20T06:22:22Z</time>
      </trkpt>
      <trkpt lat="43.71199" lon="7.01368">
        <ele>659</ele>
        <time>2012-04-20T06:22:28Z</time>
      </trkpt>
      <trkpt lat="43.71201" lon="7.01364">
        <ele>660</ele>
        <time>2012-04-20T06:22:31Z</time>
      </trkpt>
      <trkpt lat="43.71204" lon="7.01354">
        <ele>659</ele>
        <time>2012-04-20T06:22:37Z</time>
      </trkpt>
      <trkpt lat="43.71207" lon="7.01343">
        <ele>660</ele>
        <time>2012-04-20T06:22:43Z</time>
      </trkpt>
      <trkpt lat="43.71214" lon="7.01327">
        <ele>653</ele>
        <time>2012-04-20T06:22:52Z</time>
      </trkpt>
      <trkpt lat="43.7122" lon="7.01314">
        <ele>654</ele>
        <time>2012-04-20T06:23:00Z</time>
      </trkpt>
      <trkpt lat="43.71225" lon="7.01301">
        <ele>654</ele>
        <time>2012-04-20T06:23:08Z</time>
      </trkpt>
      <trkpt lat="43.7123" lon="7.01291">
        <ele>654</ele>
        <time>2012-04-20T06:23:14Z</time>
      </trkpt>
      <trkpt lat="43.71236" lon="7.01281">
        <ele>654</ele>
        <time>2012-04-20T06:23:21Z</time>
      </trkpt>
      <trkpt lat="43.71244" lon="7.01274">
        <ele>656</ele>
        <time>2012-04-20T06:23:28Z</time>
      </trkpt>
      <trkpt lat="43.71253" lon="7.01268">
        <ele>677</ele>
        <time>2012-04-20T06:23:36Z</time>
      </trkpt>
      <trkpt lat="43.71266" lon="7.01264">
        <ele>679</ele>
        <time>2012-04-20T06:23:45Z</time>
      </trkpt>
      <trkpt lat="43.71275" lon="7.01258">
        <ele>682</ele>
        <time>2012-04-20T06:23:53Z</time>
      </trkpt>
      <trkpt lat="43.71283" lon="7.01249">
        <ele>677</ele>
        <time>2012-04-20T06:24:01Z</time>
      </trkpt>
      <trkpt lat="43.71289" lon="7.0124">
        <ele>679</ele>
        <time>2012-04-20T06:24:09Z</time>
      </trkpt>
      <trkpt lat="43.71292" lon="7.01234">
        <ele>680</ele>
        <time>2012-04-20T06:24:13Z</time>
      </trkpt>
      <trkpt lat="43.71296" lon="7.01227">
        <ele>681</ele>
        <time>2012-04-20T06:24:18Z</time>
      </trkpt>
      <trkpt lat="43.71299" lon="7.01216">
        <ele>681</ele>
        <time>2012-04-20T06:24:26Z</time>
      </trkpt>
      <trkpt lat="43.71299" lon="7.01206">
        <ele>681</ele>
        <time>2012-04-20T06:24:33Z</time>
      </trkpt>
      <trkpt lat="43.71298" lon="7.01195">
        <ele>680</ele>
        <time>2012-04-20T06:24:41Z</time>
      </trkpt>
      <trkpt lat="43.71295" lon="7.01183">
        <ele>679</ele>
        <time>2012-04-20T06:24:49Z</time>
      </trkpt>
      <trkpt lat="43.71293" lon="7.01167">
        <ele>678</ele>
        <time>2012-04-20T06:24:58Z</time>
      </trkpt>
      <trkpt lat="43.71293" lon="7.01165">
        <ele>668</ele>
        <time>2012-04-20T06:24:59Z</time>
      </trkpt>
      <trkpt lat="43.71301" lon="7.01159">
        <ele>671</ele>
        <time>2012-04-20T06:25:05Z</time>
      </trkpt>
      <trkpt lat="43.71311" lon="7.01175">
        <ele>684</ele>
        <time>2012-04-20T06:25:16Z</time>
      </trkpt>
      <trkpt lat="43.71318" lon="7.0119">
        <ele>685</ele>
        <time>2012-04-20T06:25:26Z</time>
      </trkpt>
      <trkpt lat="43.71322" lon="7.012">
        <ele>685</ele>
        <time>2012-04-20T06:25:33Z</time>
      </trkpt>
      <trkpt lat="43.71327" lon="7.01214">
        <ele>686</ele>
        <time>2012-04-20T06:25:42Z</time>
      </trkpt>
      <trkpt lat="43.71329" lon="7.01228">
        <ele>690</ele>
        <time>2012-04-20T06:25:50Z</time>
      </trkpt>
      <trkpt lat="43.71332" lon="7.01246">
        <ele>699</ele>
        <time>2012-04-20T06:26:00Z</time>
      </trkpt>
      <trkpt lat="43.71333" lon="7.01264">
        <ele>699</ele>
        <time>2012-04-20T06:26:09Z</time>
      </trkpt>
      <trkpt lat="43.7133" lon="7.01279">
        <ele>698</ele>
        <time>2012-04-20T06:26:17Z</time>
      </trkpt>
      <trkpt lat="43.71326" lon="7.01289">
        <ele>698</ele>
        <time>2012-04-20T06:26:23Z</time>
      </trkpt>
      <trkpt lat="43.71319" lon="7.01298">
        <ele>698</ele>
        <time>2012-04-20T06:26:30Z</time>
      </trkpt>
      <trkpt lat="43.7131" lon="7.01306">
        <ele>698</ele>
        <time>2012-04-20T06:26:38Z</time>
      </trkpt>
      <trkpt lat="43.713" lon="7.01317">
        <ele>696</ele>
        <time>2012-04-20T06:26:47Z</time>
      </trkpt>
      <trkpt lat="43.71292" lon="7.01329">
        <ele>695</ele>
        <time>2012-04-20T06:26:56Z</time>
      </trkpt>
      <trkpt lat="43.71291" lon="7.01347">
        <ele>703</ele>
        <time>2012-04-20T06:27:05Z</time>
      </trkpt>
      <trkpt lat="43.71293" lon="7.01366">
        <ele>705</ele>
        <time>2012-04-20T06:27:15Z</time>
      </trkpt>
      <trkpt lat="43.71292" lon="7.01383">
        <ele>706</ele>
        <time>2012-04-20T06:27:24Z</time>
      </trkpt>
      <trkpt lat="43.71291" lon="7.01395">
        <ele>706</ele>
        <time>2012-04-20T06:27:31Z</time>
      </trkpt>
      <trkpt lat="43.71292" lon="7.01403">
        <ele>707</ele>
        <time>2012-04-20T06:27:35Z</time>
      </trkpt>
      <trkpt lat="43.71299" lon="7.01407">
        <ele>710</ele>
        <time>2012-04-20T06:27:42Z</time>
      </trkpt>
      <trkpt lat="43.71304" lon="7.01398">
        <ele>710</ele>
        <time>2012-04-20T06:27:48Z</time>
      </trkpt>
      <trkpt lat="43.71308" lon="7.01387">
        <ele>710</ele>
        <time>2012-04-20T06:27:56Z</time>
      </trkpt>
      <trkpt lat="43.71311" lon="7.01376">
        <ele>709</ele>
        <time>2012-04-20T06:28:02Z</time>
      </trkpt>
      <trkpt lat="43.71315" lon="7.01361">
        <ele>710</ele>
        <time>2012-04-20T06:28:10Z</time>
      </trkpt>
      <trkpt lat="43.71322" lon="7.01345">
        <ele>713</ele>
        <time>2012-04-20T06:28:19Z</time>
      </trkpt>
      <trkpt lat="43.71331" lon="7.01331">
        <ele>717</ele>
        <time>2012-04-20T06:28:30Z</time>
      </trkpt>
      <trkpt lat="43.71341" lon="7.01323">
        <ele>724</ele>
        <time>2012-04-20T06:28:39Z</time>
      </trkpt>
      <trkpt lat="43.71351" lon="7.01314">
        <ele>727</ele>
        <time>2012-04-20T06:28:48Z</time>
      </trkpt>
      <trkpt lat="43.71361" lon="7.01299">
        <ele>729</ele>
        <time>2012-04-20T06:28:59Z</time>
      </trkpt>
      <trkpt lat="43.71363" lon="7.01295">
        <ele>729</ele>
        <time>2012-04-20T06:29:02Z</time>
      </trkpt>
      <trkpt lat="43.7137" lon="7.01277">
        <ele>729</ele>
        <time>2012-04-20T06:29:13Z</time>
      </trkpt>
      <trkpt lat="43.71372" lon="7.01264">
        <ele>729</ele>
        <time>2012-04-20T06:29:20Z</time>
      </trkpt>
      <trkpt lat="43.71376" lon="7.01246">
        <ele>723</ele>
        <time>2012-04-20T06:29:30Z</time>
      </trkpt>
      <trkpt lat="43.71383" lon="7.01225">
        <ele>724</ele>
        <time>2012-04-20T06:29:42Z</time>
      </trkpt>
      <trkpt lat="43.71388" lon="7.01213">
        <ele>724</ele>
        <time>2012-04-20T06:29:50Z</time>
      </trkpt>
      <trkpt lat="43.71391" lon="7.01201">
        <ele>724</ele>
        <time>2012-04-20T06:29:58Z</time>
      </trkpt>
      <trkpt lat="43.71395" lon="7.0119">
        <ele>725</ele>
        <time>2012-04-20T06:30:05Z</time>
      </trkpt>
      <trkpt lat="43.71404" lon="7.01178">
        <ele>728</ele>
        <time>2012-04-20T06:30:14Z</time>
      </trkpt>
      <trkpt lat="43.71414" lon="7.01172">
        <ele>732</ele>
        <time>2012-04-20T06:30:22Z</time>
      </trkpt>
      <trkpt lat="43.71423" lon="7.01173">
        <ele>740</ele>
        <time>2012-04-20T06:30:29Z</time>
      </trkpt>
      <trkpt lat="43.71435" lon="7.0118">
        <ele>745</ele>
        <time>2012-04-20T06:30:38Z</time>
      </trkpt>
      <trkpt lat="43.71445" lon="7.01183">
        <ele>747</ele>
        <time>2012-04-20T06:30:47Z</time>
      </trkpt>
      <trkpt lat="43.71459" lon="7.01182">
        <ele>750</ele>
        <time>2012-04-20T06:30:57Z</time>
      </trkpt>
      <trkpt lat="43.71472" lon="7.01178">
        <ele>751</ele>
        <time>2012-04-20T06:31:06Z</time>
      </trkpt>
      <trkpt lat="43.71482" lon="7.01174">
        <ele>753</ele>
        <time>2012-04-20T06:31:14Z</time>
      </trkpt>
      <trkpt lat="43.71492" lon="7.01171">
        <ele>754</ele>
        <time>2012-04-20T06:31:22Z</time>
      </trkpt>
      <trkpt lat="43.71502" lon="7.01167">
        <ele>756</ele>
        <time>2012-04-20T06:31:31Z</time>
      </trkpt>
      <trkpt lat="43.71509" lon="7.01164">
        <ele>753</ele>
        <time>2012-04-20T06:31:38Z</time>
      </trkpt>
      <trkpt lat="43.71517" lon="7.01163">
        <ele>752</ele>
        <time>2012-04-20T06:31:45Z</time>
      </trkpt>
      <trkpt lat="43.71528" lon="7.01165">
        <ele>753</ele>
        <time>2012-04-20T06:31:54Z</time>
      </trkpt>
      <trkpt lat="43.71537" lon="7.01174">
        <ele>765</ele>
        <time>2012-04-20T06:32:02Z</time>
      </trkpt>
      <trkpt lat="43.71547" lon="7.01185">
        <ele>767</ele>
        <time>2012-04-20T06:32:11Z</time>
      </trkpt>
      <trkpt lat="43.71553" lon="7.01193">
        <ele>768</ele>
        <time>2012-04-20T06:32:18Z</time>
      </trkpt>
      <trkpt lat="43.71561" lon="7.012">
        <ele>769</ele>
        <time>2012-04-20T06:32:26Z</time>
      </trkpt>
      <trkpt lat="43.71571" lon="7.01203">
        <ele>770</ele>
        <time>2012-04-20T06:32:33Z</time>
      </trkpt>
      <trkpt lat="43.71579" lon="7.01202">
        <ele>770</ele>
        <time>2012-04-20T06:32:40Z</time>
      </trkpt>
      <trkpt lat="43.71584" lon="7.012">
        <ele>784</ele>
        <time>2012-04-20T06:32:44Z</time>
      </trkpt>
      <trkpt lat="43.71595" lon="7.01194">
        <ele>785</ele>
        <time>2012-04-20T06:32:54Z</time>
      </trkpt>
      <trkpt lat="43.71602" lon="7.01195">
        <ele>786</ele>
        <time>2012-04-20T06:33:01Z</time>
      </trkpt>
      <trkpt lat="43.71608" lon="7.012">
        <ele>788</ele>
        <time>2012-04-20T06:33:06Z</time>
      </trkpt>
      <trkpt lat="43.71612" lon="7.01214">
        <ele>790</ele>
        <time>2012-04-20T06:33:14Z</time>
      </trkpt>
      <trkpt lat="43.71615" lon="7.01237">
        <ele>791</ele>
        <time>2012-04-20T06:33:25Z</time>
      </trkpt>
      <trkpt lat="43.71617" lon="7.01253">
        <ele>796</ele>
        <time>2012-04-20T06:33:33Z</time>
      </trkpt>
      <trkpt lat="43.71619" lon="7.01274">
        <ele>797</ele>
        <time>2012-04-20T06:33:43Z</time>
      </trkpt>
      <trkpt lat="43.71621" lon="7.01295">
        <ele>798</ele>
        <time>2012-04-20T06:33:53Z</time>
      </trkpt>
      <trkpt lat="43.71623" lon="7.01306">
        <ele>799</ele>
        <time>2012-04-20T06:33:59Z</time>
      </trkpt>
      <trkpt lat="43.71625" lon="7.01321">
        <ele>800</ele>
        <time>2012-04-20T06:34:06Z</time>
      </trkpt>
      <trkpt lat="43.71627" lon="7.01337">
        <ele>801</ele>
        <time>2012-04-20T06:34:14Z</time>
      </trkpt>
      <trkpt lat="43.71627" lon="7.01354">
        <ele>801</ele>
        <time>2012-04-20T06:34:22Z</time>
      </trkpt>
      <trkpt lat="43.71627" lon="7.0137">
        <ele>801</ele>
        <time>2012-04-20T06:34:30Z</time>
      </trkpt>
      <trkpt lat="43.71627" lon="7.01387">
        <ele>801</ele>
        <time>2012-04-20T06:34:39Z</time>
      </trkpt>
      <trkpt lat="43.7163" lon="7.01404">
        <ele>802</ele>
        <time>2012-04-20T06:34:48Z</time>
      </trkpt>
      <trkpt lat="43.71637" lon="7.01424">
        <ele>802</ele>
        <time>2012-04-20T06:34:58Z</time>
      </trkpt>
      <trkpt lat="43.71647" lon="7.01439">
        <ele>803</ele>
        <time>2012-04-20T06:35:07Z</time>
      </trkpt>
      <trkpt lat="43.71651" lon="7.01446">
        <ele>803</ele>
        <time>2012-04-20T06:35:13Z</time>
      </trkpt>
      <trkpt lat="43.71655" lon="7.01451">
        <ele>803</ele>
        <time>2012-04-20T06:35:18Z</time>
      </trkpt>
      <trkpt lat="43.71667" lon="7.01472">
        <ele>820</ele>
        <time>2012-04-20T06:35:30Z</time>
      </trkpt>
      <trkpt lat="43.71676" lon="7.01491">
        <ele>816</ele>
        <time>2012-04-20T06:35:40Z</time>
      </trkpt>
      <trkpt lat="43.71681" lon="7.01506">
        <ele>814</ele>
        <time>2012-04-20T06:35:48Z</time>
      </trkpt>
      <trkpt lat="43.71688" lon="7.01518">
        <ele>816</ele>
        <time>2012-04-20T06:35:57Z</time>
      </trkpt>
      <trkpt lat="43.71694" lon="7.0153">
        <ele>818</ele>
        <time>2012-04-20T06:36:05Z</time>
      </trkpt>
      <trkpt lat="43.71698" lon="7.0154">
        <ele>818</ele>
        <time>2012-04-20T06:36:11Z</time>
      </trkpt>
      <trkpt lat="43.71699" lon="7.01542">
        <ele>818</ele>
        <time>2012-04-20T06:36:13Z</time>
      </trkpt>
      <trkpt lat="43.71711" lon="7.01547">
        <ele>820</ele>
        <time>2012-04-20T06:36:21Z</time>
      </trkpt>
      <trkpt lat="43.71719" lon="7.01552">
        <ele>821</ele>
        <time>2012-04-20T06:36:28Z</time>
      </trkpt>
      <trkpt lat="43.7173" lon="7.01558">
        <ele>822</ele>
        <time>2012-04-20T06:36:37Z</time>
      </trkpt>
      <trkpt lat="43.71739" lon="7.01562">
        <ele>823</ele>
        <time>2012-04-20T06:36:45Z</time>
      </trkpt>
      <trkpt lat="43.71746" lon="7.01564">
        <ele>824</ele>
        <time>2012-04-20T06:36:51Z</time>
      </trkpt>
      <trkpt lat="43.71755" lon="7.01569">
        <ele>832</ele>
        <time>2012-04-20T06:36:59Z</time>
      </trkpt>
      <trkpt lat="43.71764" lon="7.01575">
        <ele>833</ele>
        <time>2012-04-20T06:37:07Z</time>
      </trkpt>
      <trkpt lat="43.71771" lon="7.01577">
        <ele>834</ele>
        <time>2012-04-20T06:37:13Z</time>
      </trkpt>
      <trkpt lat="43.71776" lon="7.01577">
        <ele>835</ele>
        <time>2012-04-20T06:37:17Z</time>
      </trkpt>
      <trkpt lat="43.71779" lon="7.01581">
        <ele>836</ele>
        <time>2012-04-20T06:37:21Z</time>
      </trkpt>
      <trkpt lat="43.71788" lon="7.01583">
        <ele>832</ele>
        <time>2012-04-20T06:37:29Z</time>
      </trkpt>
      <trkpt lat="43.71796" lon="7.01586">
        <ele>833</ele>
        <time>2012-04-20T06:37:36Z</time>
      </trkpt>
      <trkpt lat="43.71808" lon="7.01592">
        <ele>835</ele>
        <time>2012-04-20T06:37:47Z</time>
      </trkpt>
      <trkpt lat="43.71816" lon="7.01598">
        <ele>835</ele>
        <time>2012-04-20T06:37:54Z</time>
      </trkpt>
      <trkpt lat="43.71826" lon="7.01606">
        <ele>836</ele>
        <time>2012-04-20T06:38:03Z</time>
      </trkpt>
      <trkpt lat="43.7183" lon="7.01607">
        <ele>836</ele>
        <time>2012-04-20T06:38:06Z</time>
      </trkpt>
      <trkpt lat="43.71838" lon="7.01613">
        <ele>843</ele>
        <time>2012-04-20T06:38:13Z</time>
      </trkpt>
      <trkpt lat="43.71839" lon="7.01615">
        <ele>843</ele>
        <time>2012-04-20T06:38:15Z</time>
      </trkpt>
      <trkpt lat="43.71847" lon="7.01618">
        <ele>843</ele>
        <time>2012-04-20T06:38:21Z</time>
      </trkpt>
      <trkpt lat="43.71856" lon="7.01623">
        <ele>843</ele>
        <time>2012-04-20T06:38:29Z</time>
      </trkpt>
      <trkpt lat="43.71867" lon="7.01629">
        <ele>844</ele>
        <time>2012-04-20T06:38:37Z</time>
      </trkpt>
      <trkpt lat="43.71875" lon="7.01637">
        <ele>844</ele>
        <time>2012-04-20T06:38:45Z</time>
      </trkpt>
      <trkpt lat="43.71883" lon="7.01643">
        <ele>844</ele>
        <time>2012-04-20T06:38:52Z</time>
      </trkpt>
      <trkpt lat="43.71892" lon="7.01651">
        <ele>845</ele>
        <time>2012-04-20T06:39:00Z</time>
      </trkpt>
      <trkpt lat="43.71901" lon="7.01659">
        <ele>846</ele>
        <time>2012-04-20T06:39:08Z</time>
      </trkpt>
      <trkpt lat="43.7191" lon="7.01669">
        <ele>845</ele>
        <time>2012-04-20T06:39:16Z</time>
      </trkpt>
      <trkpt lat="43.71912" lon="7.01671">
        <ele>845</ele>
        <time>2012-04-20T06:39:17Z</time>
      </trkpt>
      <trkpt lat="43.71922" lon="7.01674">
        <ele>849</ele>
        <time>2012-04-20T06:39:25Z</time>
      </trkpt>
      <trkpt lat="43.71929" lon="7.01673">
        <ele>850</ele>
        <time>2012-04-20T06:39:30Z</time>
      </trkpt>
      <trkpt lat="43.71933" lon="7.01666">
        <ele>853</ele>
        <time>2012-04-20T06:39:35Z</time>
      </trkpt>
      <trkpt lat="43.71934" lon="7.01648">
        <ele>855</ele>
        <time>2012-04-20T06:39:44Z</time>
      </trkpt>
      <trkpt lat="43.71934" lon="7.01644">
        <ele>855</ele>
        <time>2012-04-20T06:39:46Z</time>
      </trkpt>
      <trkpt lat="43.71935" lon="7.01629">
        <ele>856</ele>
        <time>2012-04-20T06:39:53Z</time>
      </trkpt>
      <trkpt lat="43.71935" lon="7.01613">
        <ele>857</ele>
        <time>2012-04-20T06:40:00Z</time>
      </trkpt>
      <trkpt lat="43.71934" lon="7.01599">
        <ele>857</ele>
        <time>2012-04-20T06:40:06Z</time>
      </trkpt>
      <trkpt lat="43.71932" lon="7.01583">
        <ele>857</ele>
        <time>2012-04-20T06:40:13Z</time>
      </trkpt>
      <trkpt lat="43.71928" lon="7.01569">
        <ele>859</ele>
        <time>2012-04-20T06:40:19Z</time>
      </trkpt>
      <trkpt lat="43.71925" lon="7.01556">
        <ele>860</ele>
        <time>2012-04-20T06:40:25Z</time>
      </trkpt>
      <trkpt lat="43.71923" lon="7.01536">
        <ele>862</ele>
        <time>2012-04-20T06:40:34Z</time>
      </trkpt>
      <trkpt lat="43.71923" lon="7.01526">
        <ele>862</ele>
        <time>2012-04-20T06:40:38Z</time>
      </trkpt>
      <trkpt lat="43.71935" lon="7.01514">
        <ele>862</ele>
        <time>2012-04-20T06:40:46Z</time>
      </trkpt>
      <trkpt lat="43.71953" lon="7.01515">
        <ele>863</ele>
        <time>2012-04-20T06:40:55Z</time>
      </trkpt>
      <trkpt lat="43.71957" lon="7.01516">
        <ele>863</ele>
        <time>2012-04-20T06:40:57Z</time>
      </trkpt>
      <trkpt lat="43.71965" lon="7.0151">
        <ele>864</ele>
        <time>2012-04-20T06:41:01Z</time>
      </trkpt>
      <trkpt lat="43.71976" lon="7.01477">
        <ele>866</ele>
        <time>2012-04-20T06:41:11Z</time>
      </trkpt>
      <trkpt lat="43.71983" lon="7.01455">
        <ele>866</ele>
        <time>2012-04-20T06:41:18Z</time>
      </trkpt>
      <trkpt lat="43.71989" lon="7.01433">
        <ele>866</ele>
        <time>2012-04-20T06:41:25Z</time>
      </trkpt>
      <trkpt lat="43.71993" lon="7.01402">
        <ele>867</ele>
        <time>2012-04-20T06:41:34Z</time>
      </trkpt>
      <trkpt lat="43.71991" lon="7.01374">
        <ele>866</ele>
        <time>2012-04-20T06:41:42Z</time>
      </trkpt>
      <trkpt lat="43.71985" lon="7.01337">
        <ele>867</ele>
        <time>2012-04-20T06:41:52Z</time>
      </trkpt>
      <trkpt lat="43.71977" lon="7.0131">
        <ele>868</ele>
        <time>2012-04-20T06:42:00Z</time>
      </trkpt>
      <trkpt lat="43.71969" lon="7.01284">
        <ele>868</ele>
        <time>2012-04-20T06:42:08Z</time>
      </trkpt>
      <trkpt lat="43.71971" lon="7.01263">
        <ele>868</ele>
        <time>2012-04-20T06:42:14Z</time>
      </trkpt>
      <trkpt lat="43.71979" lon="7.01243">
        <ele>871</ele>
        <time>2012-04-20T06:42:20Z</time>
      </trkpt>
      <trkpt lat="43.71993" lon="7.01213">
        <ele>872</ele>
        <time>2012-04-20T06:42:29Z</time>
      </trkpt>
      <trkpt lat="43.72002" lon="7.01184">
        <ele>874</ele>
        <time>2012-04-20T06:42:37Z</time>
      </trkpt>
      <trkpt lat="43.72007" lon="7.01155">
        <ele>874</ele>
        <time>2012-04-20T06:42:44Z</time>
      </trkpt>
      <trkpt lat="43.72013" lon="7.0113">
        <ele>873</ele>
        <time>2012-04-20T06:42:50Z</time>
      </trkpt>
      <trkpt lat="43.72018" lon="7.01107">
        <ele>872</ele>
        <time>2012-04-20T06:42:55Z</time>
      </trkpt>
      <trkpt lat="43.72027" lon="7.01077">
        <ele>868</ele>
        <time>2012-04-20T06:43:02Z</time>
      </trkpt>
      <trkpt lat="43.72035" lon="7.01067">
        <ele>867</ele>
        <time>2012-04-20T06:43:06Z</time>
      </trkpt>
      <trkpt lat="43.72039" lon="7.01066">
        <ele>867</ele>
        <time>2012-04-20T06:43:10Z</time>
      </trkpt>
      <trkpt lat="43.72039" lon="7.01066">
        <ele>867</ele>
        <time>2012-04-20T06:44:25Z</time>
      </trkpt>
      <trkpt lat="43.72043" lon="7.01065">
        <ele>867</ele>
        <time>2012-04-20T06:44:48Z</time>
      </trkpt>
      <trkpt lat="43.72042" lon="7.01066">
        <ele>867</ele>
        <time>2012-04-20T06:45:05Z</time>
      </trkpt>
      <trkpt lat="43.72053" lon="7.01077">
        <ele>867</ele>
        <time>2012-04-20T06:45:12Z</time>
      </trkpt>
      <trkpt lat="43.72056" lon="7.01093">
        <ele>872</ele>
        <time>2012-04-20T06:45:16Z</time>
      </trkpt>
      <trkpt lat="43.72061" lon="7.01122">
        <ele>873</ele>
        <time>2012-04-20T06:45:23Z</time>
      </trkpt>
      <trkpt lat="43.72065" lon="7.01142">
        <ele>873</ele>
        <time>2012-04-20T06:45:29Z</time>
      </trkpt>
      <trkpt lat="43.72076" lon="7.0116">
        <ele>874</ele>
        <time>2012-04-20T06:45:36Z</time>
      </trkpt>
      <trkpt lat="43.72088" lon="7.01173">
        <ele>876</ele>
        <time>2012-04-20T06:45:43Z</time>
      </trkpt>
      <trkpt lat="43.72098" lon="7.01191">
        <ele>878</ele>
        <time>2012-04-20T06:45:51Z</time>
      </trkpt>
      <trkpt lat="43.72112" lon="7.01205">
        <ele>879</ele>
        <time>2012-04-20T06:46:00Z</time>
      </trkpt>
      <trkpt lat="43.72122" lon="7.01214">
        <ele>879</ele>
        <time>2012-04-20T06:46:07Z</time>
      </trkpt>
      <trkpt lat="43.72138" lon="7.01222">
        <ele>880</ele>
        <time>2012-04-20T06:46:15Z</time>
      </trkpt>
      <trkpt lat="43.72153" lon="7.01219">
        <ele>881</ele>
        <time>2012-04-20T06:46:21Z</time>
      </trkpt>
      <trkpt lat="43.72171" lon="7.01214">
        <ele>883</ele>
        <time>2012-04-20T06:46:28Z</time>
      </trkpt>
      <trkpt lat="43.72189" lon="7.01208">
        <ele>882</ele>
        <time>2012-04-20T06:46:35Z</time>
      </trkpt>
      <trkpt lat="43.72207" lon="7.0121">
        <ele>882</ele>
        <time>2012-04-20T06:46:41Z</time>
      </trkpt>
      <trkpt lat="43.72221" lon="7.01219">
        <ele>883</ele>
        <time>2012-04-20T06:46:47Z</time>
      </trkpt>
      <trkpt lat="43.72225" lon="7.01236">
        <ele>884</ele>
        <time>2012-04-20T06:46:52Z</time>
      </trkpt>
      <trkpt lat="43.72222" lon="7.01264">
        <ele>890</ele>
        <time>2012-04-20T06:47:00Z</time>
      </trkpt>
      <trkpt lat="43.72219" lon="7.01296">
        <ele>891</ele>
        <time>2012-04-20T06:47:10Z</time>
      </trkpt>
      <trkpt lat="43.72216" lon="7.01323">
        <ele>892</ele>
        <time>2012-04-20T06:47:19Z</time>
      </trkpt>
      <trkpt lat="43.72214" lon="7.01347">
        <ele>896</ele>
        <time>2012-04-20T06:47:27Z</time>
      </trkpt>
      <trkpt lat="43.72212" lon="7.01373">
        <ele>897</ele>
        <time>2012-04-20T06:47:36Z</time>
      </trkpt>
      <trkpt lat="43.72211" lon="7.01395">
        <ele>897</ele>
        <time>2012-04-20T06:47:44Z</time>
      </trkpt>
      <trkpt lat="43.72211" lon="7.01414">
        <ele>898</ele>
        <time>2012-04-20T06:47:51Z</time>
      </trkpt>
      <trkpt lat="43.72216" lon="7.01444">
        <ele>903</ele>
        <time>2012-04-20T06:48:02Z</time>
      </trkpt>
      <trkpt lat="43.7222" lon="7.01468">
        <ele>904</ele>
        <time>2012-04-20T06:48:12Z</time>
      </trkpt>
      <trkpt lat="43.72222" lon="7.01471">
        <ele>904</ele>
        <time>2012-04-20T06:48:14Z</time>
      </trkpt>
      <trkpt lat="43.72231" lon="7.01465">
        <ele>905</ele>
        <time>2012-04-20T06:48:20Z</time>
      </trkpt>
      <trkpt lat="43.72233" lon="7.01461">
        <ele>905</ele>
        <time>2012-04-20T06:48:22Z</time>
      </trkpt>
      <trkpt lat="43.72238" lon="7.01446">
        <ele>905</ele>
        <time>2012-04-20T06:48:30Z</time>
      </trkpt>
      <trkpt lat="43.72245" lon="7.01435">
        <ele>905</ele>
        <time>2012-04-20T06:48:36Z</time>
      </trkpt>
      <trkpt lat="43.72258" lon="7.01421">
        <ele>911</ele>
        <time>2012-04-20T06:48:44Z</time>
      </trkpt>
      <trkpt lat="43.72269" lon="7.01415">
        <ele>909</ele>
        <time>2012-04-20T06:48:50Z</time>
      </trkpt>
      <trkpt lat="43.72288" lon="7.01404">
        <ele>910</ele>
        <time>2012-04-20T06:48:59Z</time>
      </trkpt>
      <trkpt lat="43.72307" lon="7.014">
        <ele>911</ele>
        <time>2012-04-20T06:49:07Z</time>
      </trkpt>
      <trkpt lat="43.72328" lon="7.01397">
        <ele>913</ele>
        <time>2012-04-20T06:49:16Z</time>
      </trkpt>
      <trkpt lat="43.72348" lon="7.01396">
        <ele>919</ele>
        <time>2012-04-20T06:49:25Z</time>
      </trkpt>
      <trkpt lat="43.72365" lon="7.01392">
        <ele>919</ele>
        <time>2012-04-20T06:49:33Z</time>
      </trkpt>
      <trkpt lat="43.72387" lon="7.01381">
        <ele>920</ele>
        <time>2012-04-20T06:49:43Z</time>
      </trkpt>
      <trkpt lat="43.72404" lon="7.01373">
        <ele>920</ele>
        <time>2012-04-20T06:49:50Z</time>
      </trkpt>
      <trkpt lat="43.72429" lon="7.01358">
        <ele>927</ele>
        <time>2012-04-20T06:50:00Z</time>
      </trkpt>
      <trkpt lat="43.72456" lon="7.01338">
        <ele>930</ele>
        <time>2012-04-20T06:50:10Z</time>
      </trkpt>
      <trkpt lat="43.72484" lon="7.0132">
        <ele>924</ele>
        <time>2012-04-20T06:50:19Z</time>
      </trkpt>
      <trkpt lat="43.72512" lon="7.013">
        <ele>932</ele>
        <time>2012-04-20T06:50:29Z</time>
      </trkpt>
      <trkpt lat="43.72534" lon="7.01282">
        <ele>932</ele>
        <time>2012-04-20T06:50:38Z</time>
      </trkpt>
      <trkpt lat="43.72552" lon="7.01261">
        <ele>932</ele>
        <time>2012-04-20T06:50:47Z</time>
      </trkpt>
      <trkpt lat="43.72566" lon="7.01245">
        <ele>922</ele>
        <time>2012-04-20T06:50:54Z</time>
      </trkpt>
      <trkpt lat="43.72585" lon="7.01234">
        <ele>929</ele>
        <time>2012-04-20T06:51:02Z</time>
      </trkpt>
      <trkpt lat="43.72604" lon="7.01226">
        <ele>927</ele>
        <time>2012-04-20T06:51:10Z</time>
      </trkpt>
      <trkpt lat="43.72624" lon="7.01216">
        <ele>927</ele>
        <time>2012-04-20T06:51:19Z</time>
      </trkpt>
      <trkpt lat="43.72638" lon="7.01205">
        <ele>926</ele>
        <time>2012-04-20T06:51:26Z</time>
      </trkpt>
      <trkpt lat="43.72657" lon="7.01195">
        <ele>925</ele>
        <time>2012-04-20T06:51:35Z</time>
      </trkpt>
      <trkpt lat="43.72666" lon="7.01192">
        <ele>924</ele>
        <time>2012-04-20T06:51:41Z</time>
      </trkpt>
      <trkpt lat="43.72665" lon="7.01194">
        <ele>925</ele>
        <time>2012-04-20T06:52:37Z</time>
      </trkpt>
      <trkpt lat="43.72664" lon="7.01193">
        <ele>925</ele>
        <time>2012-04-20T06:52:52Z</time>
      </trkpt>
      <trkpt lat="43.72663" lon="7.01193">
        <ele>925</ele>
        <time>2012-04-20T06:52:57Z</time>
      </trkpt>
      <trkpt lat="43.72661" lon="7.01191">
        <ele>924</ele>
        <time>2012-04-20T06:53:03Z</time>
      </trkpt>
      <trkpt lat="43.7266" lon="7.01192">
        <ele>924</ele>
        <time>2012-04-20T06:53:15Z</time>
      </trkpt>
      <trkpt lat="43.72663" lon="7.01195">
        <ele>925</ele>
        <time>2012-04-20T06:53:19Z</time>
      </trkpt>
      <trkpt lat="43.72664" lon="7.01194">
        <ele>925</ele>
        <time>2012-04-20T06:53:25Z</time>
      </trkpt>
      <trkpt lat="43.72665" lon="7.01193">
        <ele>925</ele>
        <time>2012-04-20T06:53:42Z</time>
      </trkpt>
      <trkpt lat="43.72667" lon="7.01193">
        <ele>926</ele>
        <time>2012-04-20T06:53:57Z</time>
      </trkpt>
      <trkpt lat="43.72668" lon="7.01194">
        <ele>927</ele>
        <time>2012-04-20T06:54:01Z</time>
      </trkpt>
      <trkpt lat="43.72676" lon="7.01198">
        <ele>928</ele>
        <time>2012-04-20T06:54:05Z</time>
      </trkpt>
      <trkpt lat="43.72695" lon="7.01206">
        <ele>929</ele>
        <time>2012-04-20T06:54:11Z</time>
      </trkpt>
      <trkpt lat="43.72705" lon="7.01214">
        <ele>929</ele>
        <time>2012-04-20T06:54:14Z</time>
      </trkpt>
      <trkpt lat="43.72725" lon="7.01244">
        <ele>931</ele>
        <time>2012-04-20T06:54:20Z</time>
      </trkpt>
      <trkpt lat="43.72742" lon="7.01265">
        <ele>938</ele>
        <time>2012-04-20T06:54:23Z</time>
      </trkpt>
      <trkpt lat="43.72773" lon="7.01323">
        <ele>929</ele>
        <time>2012-04-20T06:54:29Z</time>
      </trkpt>
      <trkpt lat="43.72804" lon="7.01351">
        <ele>929</ele>
        <time>2012-04-20T06:54:33Z</time>
      </trkpt>
      <trkpt lat="43.72824" lon="7.01361">
        <ele>927</ele>
        <time>2012-04-20T06:54:36Z</time>
      </trkpt>
      <trkpt lat="43.72839" lon="7.01381">
        <ele>914</ele>
        <time>2012-04-20T06:54:40Z</time>
      </trkpt>
      <trkpt lat="43.72848" lon="7.01387">
        <ele>914</ele>
        <time>2012-04-20T06:54:42Z</time>
      </trkpt>
      <trkpt lat="43.72857" lon="7.01399">
        <ele>914</ele>
        <time>2012-04-20T06:54:46Z</time>
      </trkpt>
      <trkpt lat="43.72862" lon="7.01402">
        <ele>913</ele>
        <time>2012-04-20T06:54:50Z</time>
      </trkpt>
      <trkpt lat="43.72868" lon="7.01399">
        <ele>911</ele>
        <time>2012-04-20T06:54:54Z</time>
      </trkpt>
      <trkpt lat="43.72873" lon="7.01396">
        <ele>910</ele>
        <time>2012-04-20T06:54:57Z</time>
      </trkpt>
      <trkpt lat="43.72881" lon="7.01392">
        <ele>909</ele>
        <time>2012-04-20T06:55:02Z</time>
      </trkpt>
      <trkpt lat="43.72884" lon="7.01391">
        <ele>908</ele>
        <time>2012-04-20T06:55:08Z</time>
      </trkpt>
      <trkpt lat="43.72887" lon="7.01392">
        <ele>908</ele>
        <time>2012-04-20T06:55:10Z</time>
      </trkpt>
      <trkpt lat="43.72896" lon="7.014">
        <ele>907</ele>
        <time>2012-04-20T06:55:15Z</time>
      </trkpt>
      <trkpt lat="43.72898" lon="7.01402">
        <ele>906</ele>
        <time>2012-04-20T06:55:16Z</time>
      </trkpt>
      <trkpt lat="43.72911" lon="7.0141">
        <ele>903</ele>
        <time>2012-04-20T06:55:21Z</time>
      </trkpt>
      <trkpt lat="43.72928" lon="7.0143">
        <ele>899</ele>
        <time>2012-04-20T06:55:27Z</time>
      </trkpt>
      <trkpt lat="43.72941" lon="7.01444">
        <ele>897</ele>
        <time>2012-04-20T06:55:31Z</time>
      </trkpt>
      <trkpt lat="43.7296" lon="7.01466">
        <ele>896</ele>
        <time>2012-04-20T06:55:36Z</time>
      </trkpt>
      <trkpt lat="43.72967" lon="7.01476">
        <ele>896</ele>
        <time>2012-04-20T06:55:39Z</time>
      </trkpt>
      <trkpt lat="43.72973" lon="7.01478">
        <ele>895</ele>
        <time>2012-04-20T06:55:43Z</time>
      </trkpt>
      <trkpt lat="43.72975" lon="7.01472">
        <ele>895</ele>
        <time>2012-04-20T06:55:45Z</time>
      </trkpt>
      <trkpt lat="43.72976" lon="7.01464">
        <ele>894</ele>
        <time>2012-04-20T06:55:48Z</time>
      </trkpt>
      <trkpt lat="43.7298" lon="7.01456">
        <ele>894</ele>
        <time>2012-04-20T06:55:51Z</time>
      </trkpt>
      <trkpt lat="43.72985" lon="7.01429">
        <ele>890</ele>
        <time>2012-04-20T06:55:56Z</time>
      </trkpt>
      <trkpt lat="43.72979" lon="7.01411">
        <ele>887</ele>
        <time>2012-04-20T06:55:59Z</time>
      </trkpt>
      <trkpt lat="43.7297" lon="7.01386">
        <ele>888</ele>
        <time>2012-04-20T06:56:04Z</time>
      </trkpt>
      <trkpt lat="43.72971" lon="7.01382">
        <ele>888</ele>
        <time>2012-04-20T06:56:05Z</time>
      </trkpt>
      <trkpt lat="43.72985" lon="7.01369">
        <ele>886</ele>
        <time>2012-04-20T06:56:11Z</time>
      </trkpt>
      <trkpt lat="43.72991" lon="7.01358">
        <ele>885</ele>
        <time>2012-04-20T06:56:13Z</time>
      </trkpt>
      <trkpt lat="43.73012" lon="7.01315">
        <ele>874</ele>
        <time>2012-04-20T06:56:20Z</time>
      </trkpt>
      <trkpt lat="43.73013" lon="7.01308">
        <ele>874</ele>
        <time>2012-04-20T06:56:21Z</time>
      </trkpt>
      <trkpt lat="43.73023" lon="7.01279">
        <ele>872</ele>
        <time>2012-04-20T06:56:25Z</time>
      </trkpt>
      <trkpt lat="43.73034" lon="7.01243">
        <ele>869</ele>
        <time>2012-04-20T06:56:29Z</time>
      </trkpt>
      <trkpt lat="43.73036" lon="7.01213">
        <ele>868</ele>
        <time>2012-04-20T06:56:33Z</time>
      </trkpt>
      <trkpt lat="43.73049" lon="7.01204">
        <ele>867</ele>
        <time>2012-04-20T06:56:37Z</time>
      </trkpt>
      <trkpt lat="43.73063" lon="7.01217">
        <ele>866</ele>
        <time>2012-04-20T06:56:41Z</time>
      </trkpt>
      <trkpt lat="43.73066" lon="7.01222">
        <ele>866</ele>
        <time>2012-04-20T06:56:42Z</time>
      </trkpt>
      <trkpt lat="43.73081" lon="7.01265">
        <ele>867</ele>
        <time>2012-04-20T06:56:49Z</time>
      </trkpt>
      <trkpt lat="43.73083" lon="7.01272">
        <ele>862</ele>
        <time>2012-04-20T06:56:50Z</time>
      </trkpt>
      <trkpt lat="43.73095" lon="7.01301">
        <ele>862</ele>
        <time>2012-04-20T06:56:55Z</time>
      </trkpt>
      <trkpt lat="43.73112" lon="7.01303">
        <ele>861</ele>
        <time>2012-04-20T06:56:59Z</time>
      </trkpt>
      <trkpt lat="43.73135" lon="7.01302">
        <ele>859</ele>
        <time>2012-04-20T06:57:03Z</time>
      </trkpt>
      <trkpt lat="43.73158" lon="7.0131">
        <ele>858</ele>
        <time>2012-04-20T06:57:07Z</time>
      </trkpt>
      <trkpt lat="43.73184" lon="7.01338">
        <ele>855</ele>
        <time>2012-04-20T06:57:13Z</time>
      </trkpt>
      <trkpt lat="43.73189" lon="7.01343">
        <ele>854</ele>
        <time>2012-04-20T06:57:15Z</time>
      </trkpt>
      <trkpt lat="43.73196" lon="7.01352">
        <ele>853</ele>
        <time>2012-04-20T06:57:17Z</time>
      </trkpt>
      <trkpt lat="43.73218" lon="7.01392">
        <ele>852</ele>
        <time>2012-04-20T06:57:23Z</time>
      </trkpt>
      <trkpt lat="43.73228" lon="7.01407">
        <ele>850</ele>
        <time>2012-04-20T06:57:25Z</time>
      </trkpt>
      <trkpt lat="43.73263" lon="7.01439">
        <ele>844</ele>
        <time>2012-04-20T06:57:31Z</time>
      </trkpt>
      <trkpt lat="43.733" lon="7.01472">
        <ele>843</ele>
        <time>2012-04-20T06:57:39Z</time>
      </trkpt>
      <trkpt lat="43.73324" lon="7.01499">
        <ele>840</ele>
        <time>2012-04-20T06:57:44Z</time>
      </trkpt>
      <trkpt lat="43.73346" lon="7.01534">
        <ele>840</ele>
        <time>2012-04-20T06:57:49Z</time>
      </trkpt>
      <trkpt lat="43.73351" lon="7.0154">
        <ele>840</ele>
        <time>2012-04-20T06:57:50Z</time>
      </trkpt>
      <trkpt lat="43.73384" lon="7.01566">
        <ele>840</ele>
        <time>2012-04-20T06:57:56Z</time>
      </trkpt>
      <trkpt lat="43.73416" lon="7.01593">
        <ele>843</ele>
        <time>2012-04-20T06:58:03Z</time>
      </trkpt>
      <trkpt lat="43.73452" lon="7.01625">
        <ele>840</ele>
        <time>2012-04-20T06:58:10Z</time>
      </trkpt>
      <trkpt lat="43.73488" lon="7.01651">
        <ele>840</ele>
        <time>2012-04-20T06:58:17Z</time>
      </trkpt>
      <trkpt lat="43.7351" lon="7.01676">
        <ele>839</ele>
        <time>2012-04-20T06:58:23Z</time>
      </trkpt>
      <trkpt lat="43.73528" lon="7.01698">
        <ele>837</ele>
        <time>2012-04-20T06:58:30Z</time>
      </trkpt>
      <trkpt lat="43.73536" lon="7.01711">
        <ele>837</ele>
        <time>2012-04-20T06:58:34Z</time>
      </trkpt>
      <trkpt lat="43.7354" lon="7.01739">
        <ele>838</ele>
        <time>2012-04-20T06:58:38Z</time>
      </trkpt>
      <trkpt lat="43.73542" lon="7.01763">
        <ele>845</ele>
        <time>2012-04-20T06:58:41Z</time>
      </trkpt>
      <trkpt lat="43.73557" lon="7.01782">
        <ele>844</ele>
        <time>2012-04-20T06:58:45Z</time>
      </trkpt>
      <trkpt lat="43.73562" lon="7.01785">
        <ele>844</ele>
        <time>2012-04-20T06:58:46Z</time>
      </trkpt>
      <trkpt lat="43.7358" lon="7.01781">
        <ele>842</ele>
        <time>2012-04-20T06:58:50Z</time>
      </trkpt>
      <trkpt lat="43.73585" lon="7.01774">
        <ele>836</ele>
        <time>2012-04-20T06:58:52Z</time>
      </trkpt>
      <trkpt lat="43.736" lon="7.01768">
        <ele>835</ele>
        <time>2012-04-20T06:58:57Z</time>
      </trkpt>
      <trkpt lat="43.73616" lon="7.01778">
        <ele>836</ele>
        <time>2012-04-20T06:59:02Z</time>
      </trkpt>
      <trkpt lat="43.73626" lon="7.01784">
        <ele>836</ele>
        <time>2012-04-20T06:59:05Z</time>
      </trkpt>
      <trkpt lat="43.73633" lon="7.01791">
        <ele>836</ele>
        <time>2012-04-20T06:59:07Z</time>
      </trkpt>
      <trkpt lat="43.73653" lon="7.01798">
        <ele>837</ele>
        <time>2012-04-20T06:59:11Z</time>
      </trkpt>
      <trkpt lat="43.73678" lon="7.01798">
        <ele>837</ele>
        <time>2012-04-20T06:59:16Z</time>
      </trkpt>
      <trkpt lat="43.73708" lon="7.0179">
        <ele>836</ele>
        <time>2012-04-20T06:59:22Z</time>
      </trkpt>
      <trkpt lat="43.7373" lon="7.01784">
        <ele>836</ele>
        <time>2012-04-20T06:59:28Z</time>
      </trkpt>
      <trkpt lat="43.73745" lon="7.01787">
        <ele>837</ele>
        <time>2012-04-20T06:59:33Z</time>
      </trkpt>
      <trkpt lat="43.73763" lon="7.01788">
        <ele>839</ele>
        <time>2012-04-20T06:59:39Z</time>
      </trkpt>
      <trkpt lat="43.73779" lon="7.01787">
        <ele>840</ele>
        <time>2012-04-20T06:59:45Z</time>
      </trkpt>
      <trkpt lat="43.73796" lon="7.01786">
        <ele>840</ele>
        <time>2012-04-20T06:59:49Z</time>
      </trkpt>
      <trkpt lat="43.7381" lon="7.01785">
        <ele>840</ele>
        <time>2012-04-20T06:59:53Z</time>
      </trkpt>
      <trkpt lat="43.73824" lon="7.01777">
        <ele>838</ele>
        <time>2012-04-20T06:59:58Z</time>
      </trkpt>
      <trkpt lat="43.73827" lon="7.01777">
        <ele>838</ele>
        <time>2012-04-20T06:59:59Z</time>
      </trkpt>
      <trkpt lat="43.73855" lon="7.01778">
        <ele>843</ele>
        <time>2012-04-20T07:00:07Z</time>
      </trkpt>
      <trkpt lat="43.73871" lon="7.0178">
        <ele>845</ele>
        <time>2012-04-20T07:00:12Z</time>
      </trkpt>
      <trkpt lat="43.73884" lon="7.01778">
        <ele>845</ele>
        <time>2012-04-20T07:00:17Z</time>
      </trkpt>
      <trkpt lat="43.73894" lon="7.01775">
        <ele>845</ele>
        <time>2012-04-20T07:00:23Z</time>
      </trkpt>
      <trkpt lat="43.73906" lon="7.01776">
        <ele>845</ele>
        <time>2012-04-20T07:00:31Z</time>
      </trkpt>
      <trkpt lat="43.73917" lon="7.01771">
        <ele>846</ele>
        <time>2012-04-20T07:00:39Z</time>
      </trkpt>
      <trkpt lat="43.73929" lon="7.01767">
        <ele>846</ele>
        <time>2012-04-20T07:00:45Z</time>
      </trkpt>
      <trkpt lat="43.73948" lon="7.01766">
        <ele>848</ele>
        <time>2012-04-20T07:00:52Z</time>
      </trkpt>
      <trkpt lat="43.73969" lon="7.0177">
        <ele>849</ele>
        <time>2012-04-20T07:00:59Z</time>
      </trkpt>
      <trkpt lat="43.73987" lon="7.01778">
        <ele>850</ele>
        <time>2012-04-20T07:01:06Z</time>
      </trkpt>
      <trkpt lat="43.73996" lon="7.01781">
        <ele>850</ele>
        <time>2012-04-20T07:01:11Z</time>
      </trkpt>
      <trkpt lat="43.7401" lon="7.01785">
        <ele>851</ele>
        <time>2012-04-20T07:01:16Z</time>
      </trkpt>
      <trkpt lat="43.74024" lon="7.01788">
        <ele>851</ele>
        <time>2012-04-20T07:01:21Z</time>
      </trkpt>
      <trkpt lat="43.74041" lon="7.01794">
        <ele>852</ele>
        <time>2012-04-20T07:01:27Z</time>
      </trkpt>
      <trkpt lat="43.74062" lon="7.01802">
        <ele>853</ele>
        <time>2012-04-20T07:01:35Z</time>
      </trkpt>
      <trkpt lat="43.74085" lon="7.01809">
        <ele>855</ele>
        <time>2012-04-20T07:01:43Z</time>
      </trkpt>
      <trkpt lat="43.74108" lon="7.01815">
        <ele>855</ele>
        <time>2012-04-20T07:01:51Z</time>
      </trkpt>
      <trkpt lat="43.74128" lon="7.01813">
        <ele>855</ele>
        <time>2012-04-20T07:01:57Z</time>
      </trkpt>
      <trkpt lat="43.74146" lon="7.01806">
        <ele>856</ele>
        <time>2012-04-20T07:02:03Z</time>
      </trkpt>
      <trkpt lat="43.74165" lon="7.01799">
        <ele>855</ele>
        <time>2012-04-20T07:02:09Z</time>
      </trkpt>
      <trkpt lat="43.74182" lon="7.01795">
        <ele>860</ele>
        <time>2012-04-20T07:02:15Z</time>
      </trkpt>
      <trkpt lat="43.74201" lon="7.0179">
        <ele>860</ele>
        <time>2012-04-20T07:02:22Z</time>
      </trkpt>
      <trkpt lat="43.74219" lon="7.01785">
        <ele>861</ele>
        <time>2012-04-20T07:02:30Z</time>
      </trkpt>
      <trkpt lat="43.74237" lon="7.01779">
        <ele>860</ele>
        <time>2012-04-20T07:02:39Z</time>
      </trkpt>
      <trkpt lat="43.74251" lon="7.01775">
        <ele>867</ele>
        <time>2012-04-20T07:02:45Z</time>
      </trkpt>
      <trkpt lat="43.7427" lon="7.01771">
        <ele>869</ele>
        <time>2012-04-20T07:02:52Z</time>
      </trkpt>
      <trkpt lat="43.74295" lon="7.01764">
        <ele>872</ele>
        <time>2012-04-20T07:03:01Z</time>
      </trkpt>
      <trkpt lat="43.7431" lon="7.01757">
        <ele>872</ele>
        <time>2012-04-20T07:03:08Z</time>
      </trkpt>
      <trkpt lat="43.74326" lon="7.01748">
        <ele>861</ele>
        <time>2012-04-20T07:03:15Z</time>
      </trkpt>
      <trkpt lat="43.74343" lon="7.01742">
        <ele>868</ele>
        <time>2012-04-20T07:03:22Z</time>
      </trkpt>
      <trkpt lat="43.74353" lon="7.0173">
        <ele>868</ele>
        <time>2012-04-20T07:03:27Z</time>
      </trkpt>
      <trkpt lat="43.74366" lon="7.01717">
        <ele>867</ele>
        <time>2012-04-20T07:03:34Z</time>
      </trkpt>
      <trkpt lat="43.74382" lon="7.01703">
        <ele>867</ele>
        <time>2012-04-20T07:03:41Z</time>
      </trkpt>
      <trkpt lat="43.74392" lon="7.01692">
        <ele>867</ele>
        <time>2012-04-20T07:03:46Z</time>
      </trkpt>
      <trkpt lat="43.74409" lon="7.0168">
        <ele>866</ele>
        <time>2012-04-20T07:03:52Z</time>
      </trkpt>
      <trkpt lat="43.74424" lon="7.01666">
        <ele>866</ele>
        <time>2012-04-20T07:03:58Z</time>
      </trkpt>
      <trkpt lat="43.7444" lon="7.0165">
        <ele>868</ele>
        <time>2012-04-20T07:04:06Z</time>
      </trkpt>
      <trkpt lat="43.74452" lon="7.01636">
        <ele>868</ele>
        <time>2012-04-20T07:04:11Z</time>
      </trkpt>
      <trkpt lat="43.74471" lon="7.01618">
        <ele>869</ele>
        <time>2012-04-20T07:04:17Z</time>
      </trkpt>
      <trkpt lat="43.74484" lon="7.01602">
        <ele>868</ele>
        <time>2012-04-20T07:04:23Z</time>
      </trkpt>
      <trkpt lat="43.74497" lon="7.01592">
        <ele>868</ele>
        <time>2012-04-20T07:04:30Z</time>
      </trkpt>
      <trkpt lat="43.74512" lon="7.01577">
        <ele>867</ele>
        <time>2012-04-20T07:04:37Z</time>
      </trkpt>
      <trkpt lat="43.74528" lon="7.01558">
        <ele>866</ele>
        <time>2012-04-20T07:04:44Z</time>
      </trkpt>
      <trkpt lat="43.74539" lon="7.01545">
        <ele>866</ele>
        <time>2012-04-20T07:04:50Z</time>
      </trkpt>
      <trkpt lat="43.74556" lon="7.01541">
        <ele>868</ele>
        <time>2012-04-20T07:04:56Z</time>
      </trkpt>
      <trkpt lat="43.74561" lon="7.0154">
        <ele>868</ele>
        <time>2012-04-20T07:04:58Z</time>
      </trkpt>
      <trkpt lat="43.74579" lon="7.01532">
        <ele>868</ele>
        <time>2012-04-20T07:05:05Z</time>
      </trkpt>
      <trkpt lat="43.74596" lon="7.01527">
        <ele>883</ele>
        <time>2012-04-20T07:05:11Z</time>
      </trkpt>
      <trkpt lat="43.74611" lon="7.01526">
        <ele>885</ele>
        <time>2012-04-20T07:05:17Z</time>
      </trkpt>
      <trkpt lat="43.74623" lon="7.01525">
        <ele>887</ele>
        <time>2012-04-20T07:05:22Z</time>
      </trkpt>
      <trkpt lat="43.74638" lon="7.01519">
        <ele>889</ele>
        <time>2012-04-20T07:05:29Z</time>
      </trkpt>
      <trkpt lat="43.74651" lon="7.01512">
        <ele>888</ele>
        <time>2012-04-20T07:05:36Z</time>
      </trkpt>
      <trkpt lat="43.74659" lon="7.01506">
        <ele>887</ele>
        <time>2012-04-20T07:05:41Z</time>
      </trkpt>
      <trkpt lat="43.74671" lon="7.01493">
        <ele>885</ele>
        <time>2012-04-20T07:05:49Z</time>
      </trkpt>
      <trkpt lat="43.74685" lon="7.01476">
        <ele>884</ele>
        <time>2012-04-20T07:05:58Z</time>
      </trkpt>
      <trkpt lat="43.74696" lon="7.01459">
        <ele>883</ele>
        <time>2012-04-20T07:06:05Z</time>
      </trkpt>
      <trkpt lat="43.74707" lon="7.01439">
        <ele>881</ele>
        <time>2012-04-20T07:06:13Z</time>
      </trkpt>
      <trkpt lat="43.74717" lon="7.0142">
        <ele>881</ele>
        <time>2012-04-20T07:06:20Z</time>
      </trkpt>
      <trkpt lat="43.74722" lon="7.01408">
        <ele>865</ele>
        <time>2012-04-20T07:06:27Z</time>
      </trkpt>
      <trkpt lat="43.74721" lon="7.01408">
        <ele>865</ele>
        <time>2012-04-20T07:07:08Z</time>
      </trkpt>
      <trkpt lat="43.74721" lon="7.01409">
        <ele>865</ele>
        <time>2012-04-20T07:09:10Z</time>
      </trkpt>
      <trkpt lat="43.74722" lon="7.01409">
        <ele>865</ele>
        <time>2012-04-20T07:10:26Z</time>
      </trkpt>
      <trkpt lat="43.7473" lon="7.014">
        <ele>866</ele>
        <time>2012-04-20T07:10:34Z</time>
      </trkpt>
      <trkpt lat="43.74742" lon="7.01398">
        <ele>869</ele>
        <time>2012-04-20T07:10:40Z</time>
      </trkpt>
      <trkpt lat="43.74755" lon="7.01409">
        <ele>877</ele>
        <time>2012-04-20T07:10:45Z</time>
      </trkpt>
      <trkpt lat="43.74763" lon="7.01419">
        <ele>885</ele>
        <time>2012-04-20T07:10:50Z</time>
      </trkpt>
      <trkpt lat="43.74777" lon="7.01437">
        <ele>886</ele>
        <time>2012-04-20T07:10:57Z</time>
      </trkpt>
      <trkpt lat="43.7479" lon="7.01453">
        <ele>887</ele>
        <time>2012-04-20T07:11:04Z</time>
      </trkpt>
      <trkpt lat="43.74801" lon="7.01461">
        <ele>886</ele>
        <time>2012-04-20T07:11:10Z</time>
      </trkpt>
      <trkpt lat="43.74811" lon="7.01475">
        <ele>888</ele>
        <time>2012-04-20T07:11:15Z</time>
      </trkpt>
      <trkpt lat="43.74826" lon="7.01498">
        <ele>889</ele>
        <time>2012-04-20T07:11:21Z</time>
      </trkpt>
      <trkpt lat="43.74844" lon="7.01528">
        <ele>894</ele>
        <time>2012-04-20T07:11:28Z</time>
      </trkpt>
      <trkpt lat="43.74851" lon="7.01542">
        <ele>896</ele>
        <time>2012-04-20T07:11:33Z</time>
      </trkpt>
      <trkpt lat="43.74859" lon="7.01552">
        <ele>898</ele>
        <time>2012-04-20T07:11:38Z</time>
      </trkpt>
      <trkpt lat="43.74865" lon="7.01557">
        <ele>898</ele>
        <time>2012-04-20T07:11:42Z</time>
      </trkpt>
      <trkpt lat="43.74875" lon="7.01565">
        <ele>897</ele>
        <time>2012-04-20T07:11:48Z</time>
      </trkpt>
      <trkpt lat="43.74887" lon="7.01572">
        <ele>897</ele>
        <time>2012-04-20T07:11:54Z</time>
      </trkpt>
      <trkpt lat="43.74904" lon="7.01579">
        <ele>898</ele>
        <time>2012-04-20T07:12:03Z</time>
      </trkpt>
      <trkpt lat="43.74914" lon="7.01582">
        <ele>900</ele>
        <time>2012-04-20T07:12:10Z</time>
      </trkpt>
      <trkpt lat="43.74918" lon="7.01583">
        <ele>900</ele>
        <time>2012-04-20T07:12:15Z</time>
      </trkpt>
      <trkpt lat="43.74921" lon="7.01584">
        <ele>904</ele>
        <time>2012-04-20T07:12:21Z</time>
      </trkpt>
      <trkpt lat="43.74924" lon="7.01585">
        <ele>906</ele>
        <time>2012-04-20T07:12:27Z</time>
      </trkpt>
      <trkpt lat="43.74928" lon="7.01587">
        <ele>908</ele>
        <time>2012-04-20T07:12:32Z</time>
      </trkpt>
      <trkpt lat="43.74934" lon="7.01591">
        <ele>911</ele>
        <time>2012-04-20T07:12:37Z</time>
      </trkpt>
      <trkpt lat="43.7494" lon="7.01593">
        <ele>913</ele>
        <time>2012-04-20T07:12:44Z</time>
      </trkpt>
      <trkpt lat="43.74945" lon="7.01594">
        <ele>914</ele>
        <time>2012-04-20T07:12:50Z</time>
      </trkpt>
      <trkpt lat="43.7495" lon="7.01597">
        <ele>915</ele>
        <time>2012-04-20T07:12:58Z</time>
      </trkpt>
      <trkpt lat="43.74953" lon="7.01598">
        <ele>915</ele>
        <time>2012-04-20T07:13:04Z</time>
      </trkpt>
      <trkpt lat="43.74955" lon="7.016">
        <ele>915</ele>
        <time>2012-04-20T07:13:10Z</time>
      </trkpt>
      <trkpt lat="43.74961" lon="7.01602">
        <ele>916</ele>
        <time>2012-04-20T07:13:18Z</time>
      </trkpt>
      <trkpt lat="43.74966" lon="7.01604">
        <ele>916</ele>
        <time>2012-04-20T07:13:25Z</time>
      </trkpt>
      <trkpt lat="43.74971" lon="7.01606">
        <ele>916</ele>
        <time>2012-04-20T07:13:32Z</time>
      </trkpt>
      <trkpt lat="43.74977" lon="7.01607">
        <ele>916</ele>
        <time>2012-04-20T07:13:41Z</time>
      </trkpt>
      <trkpt lat="43.74984" lon="7.01608">
        <ele>916</ele>
        <time>2012-04-20T07:13:50Z</time>
      </trkpt>
      <trkpt lat="43.74994" lon="7.0161">
        <ele>916</ele>
        <time>2012-04-20T07:14:02Z</time>
      </trkpt>
      <trkpt lat="43.75002" lon="7.01612">
        <ele>919</ele>
        <time>2012-04-20T07:14:11Z</time>
      </trkpt>
      <trkpt lat="43.7501" lon="7.01613">
        <ele>920</ele>
        <time>2012-04-20T07:14:19Z</time>
      </trkpt>
      <trkpt lat="43.75011" lon="7.01614">
        <ele>920</ele>
        <time>2012-04-20T07:14:20Z</time>
      </trkpt>
      <trkpt lat="43.75014" lon="7.01615">
        <ele>921</ele>
        <time>2012-04-20T07:14:23Z</time>
      </trkpt>
      <trkpt lat="43.75021" lon="7.01617">
        <ele>922</ele>
        <time>2012-04-20T07:14:28Z</time>
      </trkpt>
      <trkpt lat="43.75033" lon="7.01618">
        <ele>923</ele>
        <time>2012-04-20T07:14:37Z</time>
      </trkpt>
      <trkpt lat="43.75042" lon="7.01622">
        <ele>924</ele>
        <time>2012-04-20T07:14:44Z</time>
      </trkpt>
      <trkpt lat="43.7505" lon="7.01621">
        <ele>924</ele>
        <time>2012-04-20T07:14:51Z</time>
      </trkpt>
      <trkpt lat="43.75058" lon="7.01622">
        <ele>925</ele>
        <time>2012-04-20T07:14:59Z</time>
      </trkpt>
      <trkpt lat="43.75066" lon="7.01624">
        <ele>926</ele>
        <time>2012-04-20T07:15:08Z</time>
      </trkpt>
      <trkpt lat="43.75073" lon="7.01626">
        <ele>926</ele>
        <time>2012-04-20T07:15:16Z</time>
      </trkpt>
      <trkpt lat="43.75077" lon="7.01626">
        <ele>927</ele>
        <time>2012-04-20T07:15:22Z</time>
      </trkpt>
      <trkpt lat="43.75077" lon="7.01626">
        <ele>927</ele>
        <time>2012-04-20T07:15:29Z</time>
      </trkpt>
      <trkpt lat="43.75078" lon="7.01626">
        <ele>927</ele>
        <time>2012-04-20T07:15:34Z</time>
      </trkpt>
      <trkpt lat="43.75082" lon="7.01626">
        <ele>927</ele>
        <time>2012-04-20T07:15:39Z</time>
      </trkpt>
      <trkpt lat="43.75086" lon="7.01626">
        <ele>928</ele>
        <time>2012-04-20T07:15:45Z</time>
      </trkpt>
      <trkpt lat="43.75087" lon="7.01626">
        <ele>928</ele>
        <time>2012-04-20T07:15:46Z</time>
      </trkpt>
      <trkpt lat="43.75092" lon="7.0162">
        <ele>927</ele>
        <time>2012-04-20T07:15:54Z</time>
      </trkpt>
      <trkpt lat="43.75094" lon="7.01615">
        <ele>925</ele>
        <time>2012-04-20T07:16:00Z</time>
      </trkpt>
      <trkpt lat="43.75097" lon="7.01611">
        <ele>924</ele>
        <time>2012-04-20T07:16:06Z</time>
      </trkpt>
      <trkpt lat="43.75102" lon="7.01604">
        <ele>923</ele>
        <time>2012-04-20T07:16:14Z</time>
      </trkpt>
      <trkpt lat="43.75103" lon="7.01604">
        <ele>923</ele>
        <time>2012-04-20T07:16:20Z</time>
      </trkpt>
      <trkpt lat="43.75109" lon="7.01605">
        <ele>924</ele>
        <time>2012-04-20T07:16:24Z</time>
      </trkpt>
      <trkpt lat="43.75123" lon="7.01609">
        <ele>925</ele>
        <time>2012-04-20T07:16:30Z</time>
      </trkpt>
      <trkpt lat="43.75145" lon="7.01619">
        <ele>926</ele>
        <time>2012-04-20T07:16:37Z</time>
      </trkpt>
      <trkpt lat="43.75172" lon="7.01634">
        <ele>923</ele>
        <time>2012-04-20T07:16:45Z</time>
      </trkpt>
      <trkpt lat="43.75199" lon="7.01661">
        <ele>924</ele>
        <time>2012-04-20T07:16:54Z</time>
      </trkpt>
      <trkpt lat="43.75208" lon="7.01672">
        <ele>939</ele>
        <time>2012-04-20T07:16:57Z</time>
      </trkpt>
      <trkpt lat="43.75244" lon="7.01701">
        <ele>938</ele>
        <time>2012-04-20T07:17:07Z</time>
      </trkpt>
      <trkpt lat="43.75273" lon="7.01728">
        <ele>930</ele>
        <time>2012-04-20T07:17:15Z</time>
      </trkpt>
      <trkpt lat="43.75291" lon="7.01744">
        <ele>930</ele>
        <time>2012-04-20T07:17:22Z</time>
      </trkpt>
      <trkpt lat="43.7531" lon="7.0176">
        <ele>939</ele>
        <time>2012-04-20T07:17:31Z</time>
      </trkpt>
      <trkpt lat="43.75331" lon="7.01775">
        <ele>939</ele>
        <time>2012-04-20T07:17:41Z</time>
      </trkpt>
      <trkpt lat="43.75344" lon="7.01788">
        <ele>938</ele>
        <time>2012-04-20T07:17:48Z</time>
      </trkpt>
      <trkpt lat="43.7536" lon="7.018">
        <ele>939</ele>
        <time>2012-04-20T07:17:55Z</time>
      </trkpt>
      <trkpt lat="43.75374" lon="7.01798">
        <ele>939</ele>
        <time>2012-04-20T07:18:01Z</time>
      </trkpt>
      <trkpt lat="43.75387" lon="7.01794">
        <ele>939</ele>
        <time>2012-04-20T07:18:07Z</time>
      </trkpt>
      <trkpt lat="43.75404" lon="7.01791">
        <ele>938</ele>
        <time>2012-04-20T07:18:13Z</time>
      </trkpt>
      <trkpt lat="43.75425" lon="7.01791">
        <ele>940</ele>
        <time>2012-04-20T07:18:20Z</time>
      </trkpt>
      <trkpt lat="43.75448" lon="7.01802">
        <ele>941</ele>
        <time>2012-04-20T07:18:28Z</time>
      </trkpt>
      <trkpt lat="43.75462" lon="7.01806">
        <ele>942</ele>
        <time>2012-04-20T07:18:33Z</time>
      </trkpt>
      <trkpt lat="43.75485" lon="7.01811">
        <ele>943</ele>
        <time>2012-04-20T07:18:40Z</time>
      </trkpt>
      <trkpt lat="43.75518" lon="7.01819">
        <ele>945</ele>
        <time>2012-04-20T07:18:50Z</time>
      </trkpt>
      <trkpt lat="43.75553" lon="7.01827">
        <ele>944</ele>
        <time>2012-04-20T07:18:59Z</time>
      </trkpt>
      <trkpt lat="43.75581" lon="7.01833">
        <ele>944</ele>
        <time>2012-04-20T07:19:05Z</time>
      </trkpt>
      <trkpt lat="43.75603" lon="7.01835">
        <ele>944</ele>
        <time>2012-04-20T07:19:11Z</time>
      </trkpt>
      <trkpt lat="43.7562" lon="7.0184">
        <ele>944</ele>
        <time>2012-04-20T07:19:17Z</time>
      </trkpt>
      <trkpt lat="43.75639" lon="7.01847">
        <ele>944</ele>
        <time>2012-04-20T07:19:24Z</time>
      </trkpt>
      <trkpt lat="43.75667" lon="7.01855">
        <ele>944</ele>
        <time>2012-04-20T07:19:34Z</time>
      </trkpt>
      <trkpt lat="43.75695" lon="7.01865">
        <ele>946</ele>
        <time>2012-04-20T07:19:44Z</time>
      </trkpt>
      <trkpt lat="43.75724" lon="7.01876">
        <ele>947</ele>
        <time>2012-04-20T07:19:54Z</time>
      </trkpt>
      <trkpt lat="43.7575" lon="7.01886">
        <ele>947</ele>
        <time>2012-04-20T07:20:03Z</time>
      </trkpt>
      <trkpt lat="43.75778" lon="7.01897">
        <ele>951</ele>
        <time>2012-04-20T07:20:13Z</time>
      </trkpt>
      <trkpt lat="43.75791" lon="7.01903">
        <ele>952</ele>
        <time>2012-04-20T07:20:18Z</time>
      </trkpt>
      <trkpt lat="43.75798" lon="7.01897">
        <ele>952</ele>
        <time>2012-04-20T07:20:22Z</time>
      </trkpt>
      <trkpt lat="43.75804" lon="7.01874">
        <ele>953</ele>
        <time>2012-04-20T07:20:29Z</time>
      </trkpt>
      <trkpt lat="43.75807" lon="7.01842">
        <ele>953</ele>
        <time>2012-04-20T07:20:37Z</time>
      </trkpt>
      <trkpt lat="43.75805" lon="7.01816">
        <ele>955</ele>
        <time>2012-04-20T07:20:44Z</time>
      </trkpt>
      <trkpt lat="43.75806" lon="7.01785">
        <ele>955</ele>
        <time>2012-04-20T07:20:52Z</time>
      </trkpt>
      <trkpt lat="43.75805" lon="7.01761">
        <ele>955</ele>
        <time>2012-04-20T07:20:58Z</time>
      </trkpt>
      <trkpt lat="43.75808" lon="7.01738">
        <ele>957</ele>
        <time>2012-04-20T07:21:03Z</time>
      </trkpt>
      <trkpt lat="43.75815" lon="7.01714">
        <ele>957</ele>
        <time>2012-04-20T07:21:09Z</time>
      </trkpt>
      <trkpt lat="43.75814" lon="7.01687">
        <ele>958</ele>
        <time>2012-04-20T07:21:16Z</time>
      </trkpt>
      <trkpt lat="43.75805" lon="7.01659">
        <ele>959</ele>
        <time>2012-04-20T07:21:23Z</time>
      </trkpt>
      <trkpt lat="43.75801" lon="7.01653">
        <ele>959</ele>
        <time>2012-04-20T07:21:25Z</time>
      </trkpt>
      <trkpt lat="43.75797" lon="7.01628">
        <ele>958</ele>
        <time>2012-04-20T07:21:31Z</time>
      </trkpt>
      <trkpt lat="43.75795" lon="7.01596">
        <ele>958</ele>
        <time>2012-04-20T07:21:38Z</time>
      </trkpt>
      <trkpt lat="43.75792" lon="7.01581">
        <ele>953</ele>
        <time>2012-04-20T07:21:43Z</time>
      </trkpt>
      <trkpt lat="43.75792" lon="7.01564">
        <ele>952</ele>
        <time>2012-04-20T07:21:49Z</time>
      </trkpt>
      <trkpt lat="43.75792" lon="7.01563">
        <ele>952</ele>
        <time>2012-04-20T07:21:53Z</time>
      </trkpt>
      <trkpt lat="43.75793" lon="7.01564">
        <ele>952</ele>
        <time>2012-04-20T07:22:12Z</time>
      </trkpt>
      <trkpt lat="43.75795" lon="7.01556">
        <ele>952</ele>
        <time>2012-04-20T07:22:17Z</time>
      </trkpt>
      <trkpt lat="43.75802" lon="7.01541">
        <ele>951</ele>
        <time>2012-04-20T07:22:22Z</time>
      </trkpt>
      <trkpt lat="43.75802" lon="7.0154">
        <ele>951</ele>
        <time>2012-04-20T07:22:23Z</time>
      </trkpt>
      <trkpt lat="43.75807" lon="7.01535">
        <ele>950</ele>
        <time>2012-04-20T07:22:27Z</time>
      </trkpt>
      <trkpt lat="43.7582" lon="7.01528">
        <ele>949</ele>
        <time>2012-04-20T07:22:32Z</time>
      </trkpt>
      <trkpt lat="43.75834" lon="7.0152">
        <ele>950</ele>
        <time>2012-04-20T07:22:37Z</time>
      </trkpt>
      <trkpt lat="43.75844" lon="7.01513">
        <ele>949</ele>
        <time>2012-04-20T07:22:42Z</time>
      </trkpt>
      <trkpt lat="43.75855" lon="7.01503">
        <ele>950</ele>
        <time>2012-04-20T07:22:46Z</time>
      </trkpt>
      <trkpt lat="43.75881" lon="7.01482">
        <ele>934</ele>
        <time>2012-04-20T07:22:53Z</time>
      </trkpt>
      <trkpt lat="43.75897" lon="7.01468">
        <ele>932</ele>
        <time>2012-04-20T07:22:57Z</time>
      </trkpt>
      <trkpt lat="43.75915" lon="7.01459">
        <ele>931</ele>
        <time>2012-04-20T07:23:02Z</time>
      </trkpt>
      <trkpt lat="43.75926" lon="7.01455">
        <ele>934</ele>
        <time>2012-04-20T07:23:06Z</time>
      </trkpt>
      <trkpt lat="43.75941" lon="7.01448">
        <ele>933</ele>
        <time>2012-04-20T07:23:11Z</time>
      </trkpt>
      <trkpt lat="43.75955" lon="7.0144">
        <ele>933</ele>
        <time>2012-04-20T07:23:15Z</time>
      </trkpt>
      <trkpt lat="43.75979" lon="7.01423">
        <ele>931</ele>
        <time>2012-04-20T07:23:21Z</time>
      </trkpt>
      <trkpt lat="43.75983" lon="7.0142">
        <ele>930</ele>
        <time>2012-04-20T07:23:22Z</time>
      </trkpt>
      <trkpt lat="43.75994" lon="7.01411">
        <ele>921</ele>
        <time>2012-04-20T07:23:26Z</time>
      </trkpt>
      <trkpt lat="43.76007" lon="7.01398">
        <ele>923</ele>
        <time>2012-04-20T07:23:30Z</time>
      </trkpt>
      <trkpt lat="43.76022" lon="7.01369">
        <ele>918</ele>
        <time>2012-04-20T07:23:36Z</time>
      </trkpt>
      <trkpt lat="43.76028" lon="7.01354">
        <ele>916</ele>
        <time>2012-04-20T07:23:40Z</time>
      </trkpt>
      <trkpt lat="43.76037" lon="7.01341">
        <ele>917</ele>
        <time>2012-04-20T07:23:44Z</time>
      </trkpt>
      <trkpt lat="43.7605" lon="7.01324">
        <ele>908</ele>
        <time>2012-04-20T07:23:49Z</time>
      </trkpt>
      <trkpt lat="43.76049" lon="7.01312">
        <ele>907</ele>
        <time>2012-04-20T07:23:53Z</time>
      </trkpt>
      <trkpt lat="43.7605" lon="7.01298">
        <ele>905</ele>
        <time>2012-04-20T07:23:56Z</time>
      </trkpt>
      <trkpt lat="43.76055" lon="7.01285">
        <ele>905</ele>
        <time>2012-04-20T07:24:00Z</time>
      </trkpt>
      <trkpt lat="43.76057" lon="7.01282">
        <ele>905</ele>
        <time>2012-04-20T07:24:04Z</time>
      </trkpt>
      <trkpt lat="43.76061" lon="7.01268">
        <ele>905</ele>
        <time>2012-04-20T07:24:09Z</time>
      </trkpt>
      <trkpt lat="43.76062" lon="7.01256">
        <ele>905</ele>
        <time>2012-04-20T07:24:12Z</time>
      </trkpt>
      <trkpt lat="43.76054" lon="7.01227">
        <ele>893</ele>
        <time>2012-04-20T07:24:18Z</time>
      </trkpt>
      <trkpt lat="43.76052" lon="7.012">
        <ele>890</ele>
        <time>2012-04-20T07:24:23Z</time>
      </trkpt>
      <trkpt lat="43.76052" lon="7.01197">
        <ele>890</ele>
        <time>2012-04-20T07:24:26Z</time>
      </trkpt>
      <trkpt lat="43.76051" lon="7.01198">
        <ele>890</ele>
        <time>2012-04-20T07:24:55Z</time>
      </trkpt>
      <trkpt lat="43.76052" lon="7.01189">
        <ele>890</ele>
        <time>2012-04-20T07:24:59Z</time>
      </trkpt>
      <trkpt lat="43.76059" lon="7.01168">
        <ele>892</ele>
        <time>2012-04-20T07:25:05Z</time>
      </trkpt>
      <trkpt lat="43.76068" lon="7.01149">
        <ele>887</ele>
        <time>2012-04-20T07:25:11Z</time>
      </trkpt>
      <trkpt lat="43.7607" lon="7.01147">
        <ele>887</ele>
        <time>2012-04-20T07:25:12Z</time>
      </trkpt>
      <trkpt lat="43.76075" lon="7.0113">
        <ele>884</ele>
        <time>2012-04-20T07:25:17Z</time>
      </trkpt>
      <trkpt lat="43.76076" lon="7.01127">
        <ele>884</ele>
        <time>2012-04-20T07:25:18Z</time>
      </trkpt>
      <trkpt lat="43.76083" lon="7.01115">
        <ele>906</ele>
        <time>2012-04-20T07:25:23Z</time>
      </trkpt>
      <trkpt lat="43.76086" lon="7.01095">
        <ele>900</ele>
        <time>2012-04-20T07:25:29Z</time>
      </trkpt>
      <trkpt lat="43.7609" lon="7.01063">
        <ele>898</ele>
        <time>2012-04-20T07:25:35Z</time>
      </trkpt>
      <trkpt lat="43.76094" lon="7.01039">
        <ele>898</ele>
        <time>2012-04-20T07:25:40Z</time>
      </trkpt>
      <trkpt lat="43.761" lon="7.01009">
        <ele>893</ele>
        <time>2012-04-20T07:25:46Z</time>
      </trkpt>
      <trkpt lat="43.76102" lon="7.00989">
        <ele>890</ele>
        <time>2012-04-20T07:25:50Z</time>
      </trkpt>
      <trkpt lat="43.76107" lon="7.00968">
        <ele>893</ele>
        <time>2012-04-20T07:25:55Z</time>
      </trkpt>
      <trkpt lat="43.76112" lon="7.00958">
        <ele>893</ele>
        <time>2012-04-20T07:25:59Z</time>
      </trkpt>
      <trkpt lat="43.76118" lon="7.00942">
        <ele>894</ele>
        <time>2012-04-20T07:26:05Z</time>
      </trkpt>
      <trkpt lat="43.76124" lon="7.00929">
        <ele>895</ele>
        <time>2012-04-20T07:26:09Z</time>
      </trkpt>
      <trkpt lat="43.76126" lon="7.00923">
        <ele>896</ele>
        <time>2012-04-20T07:26:11Z</time>
      </trkpt>
      <trkpt lat="43.76122" lon="7.00913">
        <ele>895</ele>
        <time>2012-04-20T07:26:16Z</time>
      </trkpt>
      <trkpt lat="43.76113" lon="7.00899">
        <ele>893</ele>
        <time>2012-04-20T07:26:21Z</time>
      </trkpt>
      <trkpt lat="43.76099" lon="7.00871">
        <ele>893</ele>
        <time>2012-04-20T07:26:28Z</time>
      </trkpt>
      <trkpt lat="43.76085" lon="7.00842">
        <ele>887</ele>
        <time>2012-04-20T07:26:35Z</time>
      </trkpt>
      <trkpt lat="43.76084" lon="7.00826">
        <ele>888</ele>
        <time>2012-04-20T07:26:40Z</time>
      </trkpt>
      <trkpt lat="43.76083" lon="7.00817">
        <ele>875</ele>
        <time>2012-04-20T07:26:43Z</time>
      </trkpt>
      <trkpt lat="43.76078" lon="7.00798">
        <ele>873</ele>
        <time>2012-04-20T07:26:49Z</time>
      </trkpt>
      <trkpt lat="43.76076" lon="7.00781">
        <ele>875</ele>
        <time>2012-04-20T07:26:54Z</time>
      </trkpt>
      <trkpt lat="43.76074" lon="7.00767">
        <ele>878</ele>
        <time>2012-04-20T07:26:58Z</time>
      </trkpt>
      <trkpt lat="43.76068" lon="7.00738">
        <ele>882</ele>
        <time>2012-04-20T07:27:05Z</time>
      </trkpt>
      <trkpt lat="43.76064" lon="7.00724">
        <ele>879</ele>
        <time>2012-04-20T07:27:10Z</time>
      </trkpt>
      <trkpt lat="43.76059" lon="7.00706">
        <ele>878</ele>
        <time>2012-04-20T07:27:15Z</time>
      </trkpt>
      <trkpt lat="43.76053" lon="7.00687">
        <ele>878</ele>
        <time>2012-04-20T07:27:20Z</time>
      </trkpt>
      <trkpt lat="43.76051" lon="7.00672">
        <ele>878</ele>
        <time>2012-04-20T07:27:24Z</time>
      </trkpt>
      <trkpt lat="43.76048" lon="7.00657">
        <ele>876</ele>
        <time>2012-04-20T07:27:28Z</time>
      </trkpt>
      <trkpt lat="43.76048" lon="7.00639">
        <ele>875</ele>
        <time>2012-04-20T07:27:31Z</time>
      </trkpt>
      <trkpt lat="43.76052" lon="7.00607">
        <ele>874</ele>
        <time>2012-04-20T07:27:37Z</time>
      </trkpt>
      <trkpt lat="43.76058" lon="7.00595">
        <ele>875</ele>
        <time>2012-04-20T07:27:41Z</time>
      </trkpt>
      <trkpt lat="43.76059" lon="7.00593">
        <ele>876</ele>
        <time>2012-04-20T07:27:42Z</time>
      </trkpt>
      <trkpt lat="43.76064" lon="7.00581">
        <ele>871</ele>
        <time>2012-04-20T07:27:47Z</time>
      </trkpt>
      <trkpt lat="43.76072" lon="7.00566">
        <ele>870</ele>
        <time>2012-04-20T07:27:51Z</time>
      </trkpt>
      <trkpt lat="43.76078" lon="7.00556">
        <ele>868</ele>
        <time>2012-04-20T07:27:53Z</time>
      </trkpt>
      <trkpt lat="43.76089" lon="7.00537">
        <ele>879</ele>
        <time>2012-04-20T07:27:57Z</time>
      </trkpt>
      <trkpt lat="43.76092" lon="7.00534">
        <ele>879</ele>
        <time>2012-04-20T07:27:58Z</time>
      </trkpt>
      <trkpt lat="43.7611" lon="7.00514">
        <ele>878</ele>
        <time>2012-04-20T07:28:03Z</time>
      </trkpt>
      <trkpt lat="43.76128" lon="7.00487">
        <ele>867</ele>
        <time>2012-04-20T07:28:09Z</time>
      </trkpt>
      <trkpt lat="43.76132" lon="7.00474">
        <ele>867</ele>
        <time>2012-04-20T07:28:13Z</time>
      </trkpt>
      <trkpt lat="43.76136" lon="7.0046">
        <ele>866</ele>
        <time>2012-04-20T07:28:17Z</time>
      </trkpt>
      <trkpt lat="43.76138" lon="7.00455">
        <ele>865</ele>
        <time>2012-04-20T07:28:18Z</time>
      </trkpt>
      <trkpt lat="43.76148" lon="7.00441">
        <ele>864</ele>
        <time>2012-04-20T07:28:22Z</time>
      </trkpt>
      <trkpt lat="43.76152" lon="7.00435">
        <ele>864</ele>
        <time>2012-04-20T07:28:24Z</time>
      </trkpt>
      <trkpt lat="43.76145" lon="7.00429">
        <ele>863</ele>
        <time>2012-04-20T07:28:28Z</time>
      </trkpt>
      <trkpt lat="43.76126" lon="7.00426">
        <ele>862</ele>
        <time>2012-04-20T07:28:33Z</time>
      </trkpt>
      <trkpt lat="43.76121" lon="7.00423">
        <ele>862</ele>
        <time>2012-04-20T07:28:35Z</time>
      </trkpt>
      <trkpt lat="43.7612" lon="7.00421">
        <ele>861</ele>
        <time>2012-04-20T07:28:37Z</time>
      </trkpt>
      <trkpt lat="43.76126" lon="7.00417">
        <ele>862</ele>
        <time>2012-04-20T07:28:41Z</time>
      </trkpt>
      <trkpt lat="43.76131" lon="7.00403">
        <ele>859</ele>
        <time>2012-04-20T07:28:45Z</time>
      </trkpt>
      <trkpt lat="43.76129" lon="7.00371">
        <ele>859</ele>
        <time>2012-04-20T07:28:51Z</time>
      </trkpt>
      <trkpt lat="43.76129" lon="7.0037">
        <ele>859</ele>
        <time>2012-04-20T07:28:55Z</time>
      </trkpt>
      <trkpt lat="43.7613" lon="7.0037">
        <ele>859</ele>
        <time>2012-04-20T07:29:00Z</time>
      </trkpt>
      <trkpt lat="43.76135" lon="7.00363">
        <ele>859</ele>
        <time>2012-04-20T07:29:04Z</time>
      </trkpt>
      <trkpt lat="43.76162" lon="7.00352">
        <ele>858</ele>
        <time>2012-04-20T07:29:12Z</time>
      </trkpt>
      <trkpt lat="43.76166" lon="7.0035">
        <ele>858</ele>
        <time>2012-04-20T07:29:13Z</time>
      </trkpt>
      <trkpt lat="43.76191" lon="7.00342">
        <ele>859</ele>
        <time>2012-04-20T07:29:19Z</time>
      </trkpt>
      <trkpt lat="43.76222" lon="7.00331">
        <ele>858</ele>
        <time>2012-04-20T07:29:27Z</time>
      </trkpt>
      <trkpt lat="43.76229" lon="7.00326">
        <ele>858</ele>
        <time>2012-04-20T07:29:29Z</time>
      </trkpt>
      <trkpt lat="43.76248" lon="7.00307">
        <ele>858</ele>
        <time>2012-04-20T07:29:34Z</time>
      </trkpt>
      <trkpt lat="43.7628" lon="7.0029">
        <ele>856</ele>
        <time>2012-04-20T07:29:41Z</time>
      </trkpt>
      <trkpt lat="43.76322" lon="7.00272">
        <ele>854</ele>
        <time>2012-04-20T07:29:50Z</time>
      </trkpt>
      <trkpt lat="43.76342" lon="7.00261">
        <ele>855</ele>
        <time>2012-04-20T07:29:55Z</time>
      </trkpt>
      <trkpt lat="43.76354" lon="7.00232">
        <ele>852</ele>
        <time>2012-04-20T07:30:00Z</time>
      </trkpt>
      <trkpt lat="43.76353" lon="7.002">
        <ele>853</ele>
        <time>2012-04-20T07:30:05Z</time>
      </trkpt>
      <trkpt lat="43.7636" lon="7.00186">
        <ele>854</ele>
        <time>2012-04-20T07:30:09Z</time>
      </trkpt>
      <trkpt lat="43.76379" lon="7.0018">
        <ele>853</ele>
        <time>2012-04-20T07:30:14Z</time>
      </trkpt>
      <trkpt lat="43.76396" lon="7.00168">
        <ele>851</ele>
        <time>2012-04-20T07:30:19Z</time>
      </trkpt>
      <trkpt lat="43.76419" lon="7.00147">
        <ele>850</ele>
        <time>2012-04-20T07:30:25Z</time>
      </trkpt>
      <trkpt lat="43.76445" lon="7.00119">
        <ele>851</ele>
        <time>2012-04-20T07:30:32Z</time>
      </trkpt>
      <trkpt lat="43.76463" lon="7.001">
        <ele>852</ele>
        <time>2012-04-20T07:30:38Z</time>
      </trkpt>
      <trkpt lat="43.76479" lon="7.00097">
        <ele>852</ele>
        <time>2012-04-20T07:30:43Z</time>
      </trkpt>
      <trkpt lat="43.76501" lon="7.00102">
        <ele>852</ele>
        <time>2012-04-20T07:30:49Z</time>
      </trkpt>
      <trkpt lat="43.76519" lon="7.0011">
        <ele>852</ele>
        <time>2012-04-20T07:30:55Z</time>
      </trkpt>
      <trkpt lat="43.76537" lon="7.00122">
        <ele>852</ele>
        <time>2012-04-20T07:31:02Z</time>
      </trkpt>
      <trkpt lat="43.76548" lon="7.00131">
        <ele>851</ele>
        <time>2012-04-20T07:31:07Z</time>
      </trkpt>
      <trkpt lat="43.76556" lon="7.00135">
        <ele>851</ele>
        <time>2012-04-20T07:31:12Z</time>
      </trkpt>
      <trkpt lat="43.76557" lon="7.00137">
        <ele>851</ele>
        <time>2012-04-20T07:31:22Z</time>
      </trkpt>
      <trkpt lat="43.76557" lon="7.00138">
        <ele>851</ele>
        <time>2012-04-20T07:31:33Z</time>
      </trkpt>
      <trkpt lat="43.76556" lon="7.00138">
        <ele>851</ele>
        <time>2012-04-20T07:31:39Z</time>
      </trkpt>
      <trkpt lat="43.76559" lon="7.00139">
        <ele>851</ele>
        <time>2012-04-20T07:31:43Z</time>
      </trkpt>
      <trkpt lat="43.7656" lon="7.00139">
        <ele>851</ele>
        <time>2012-04-20T07:31:45Z</time>
      </trkpt>
      <trkpt lat="43.76568" lon="7.00143">
        <ele>851</ele>
        <time>2012-04-20T07:31:50Z</time>
      </trkpt>
      <trkpt lat="43.76582" lon="7.00152">
        <ele>850</ele>
        <time>2012-04-20T07:31:56Z</time>
      </trkpt>
      <trkpt lat="43.76599" lon="7.00164">
        <ele>851</ele>
        <time>2012-04-20T07:32:03Z</time>
      </trkpt>
      <trkpt lat="43.76625" lon="7.00184">
        <ele>852</ele>
        <time>2012-04-20T07:32:13Z</time>
      </trkpt>
      <trkpt lat="43.76647" lon="7.00197">
        <ele>852</ele>
        <time>2012-04-20T07:32:22Z</time>
      </trkpt>
      <trkpt lat="43.76668" lon="7.00207">
        <ele>855</ele>
        <time>2012-04-20T07:32:31Z</time>
      </trkpt>
      <trkpt lat="43.76678" lon="7.00207">
        <ele>855</ele>
        <time>2012-04-20T07:32:36Z</time>
      </trkpt>
      <trkpt lat="43.76696" lon="7.00208">
        <ele>856</ele>
        <time>2012-04-20T07:32:45Z</time>
      </trkpt>
      <trkpt lat="43.76705" lon="7.00213">
        <ele>857</ele>
        <time>2012-04-20T07:32:51Z</time>
      </trkpt>
      <trkpt lat="43.76714" lon="7.00221">
        <ele>857</ele>
        <time>2012-04-20T07:32:58Z</time>
      </trkpt>
      <trkpt lat="43.76725" lon="7.00231">
        <ele>858</ele>
        <time>2012-04-20T07:33:06Z</time>
      </trkpt>
      <trkpt lat="43.7673" lon="7.00236">
        <ele>859</ele>
        <time>2012-04-20T07:33:12Z</time>
      </trkpt>
      <trkpt lat="43.76733" lon="7.00238">
        <ele>859</ele>
        <time>2012-04-20T07:33:19Z</time>
      </trkpt>
      <trkpt lat="43.76744" lon="7.00245">
        <ele>861</ele>
        <time>2012-04-20T07:33:27Z</time>
      </trkpt>
      <trkpt lat="43.7675" lon="7.0025">
        <ele>863</ele>
        <time>2012-04-20T07:33:33Z</time>
      </trkpt>
      <trkpt lat="43.76751" lon="7.00251">
        <ele>864</ele>
        <time>2012-04-20T07:33:38Z</time>
      </trkpt>
      <trkpt lat="43.76754" lon="7.00253">
        <ele>866</ele>
        <time>2012-04-20T07:33:44Z</time>
      </trkpt>
      <trkpt lat="43.76761" lon="7.00258">
        <ele>870</ele>
        <time>2012-04-20T07:33:51Z</time>
      </trkpt>
      <trkpt lat="43.76765" lon="7.0026">
        <ele>872</ele>
        <time>2012-04-20T07:33:56Z</time>
      </trkpt>
      <trkpt lat="43.76774" lon="7.00264">
        <ele>874</ele>
        <time>2012-04-20T07:34:02Z</time>
      </trkpt>
      <trkpt lat="43.76785" lon="7.00268">
        <ele>877</ele>
        <time>2012-04-20T07:34:10Z</time>
      </trkpt>
      <trkpt lat="43.76801" lon="7.00273">
        <ele>878</ele>
        <time>2012-04-20T07:34:20Z</time>
      </trkpt>
      <trkpt lat="43.76811" lon="7.00269">
        <ele>878</ele>
        <time>2012-04-20T07:34:26Z</time>
      </trkpt>
      <trkpt lat="43.76823" lon="7.00254">
        <ele>876</ele>
        <time>2012-04-20T07:34:34Z</time>
      </trkpt>
      <trkpt lat="43.76843" lon="7.00231">
        <ele>879</ele>
        <time>2012-04-20T07:34:46Z</time>
      </trkpt>
      <trkpt lat="43.76856" lon="7.00214">
        <ele>881</ele>
        <time>2012-04-20T07:34:55Z</time>
      </trkpt>
      <trkpt lat="43.76865" lon="7.00196">
        <ele>881</ele>
        <time>2012-04-20T07:35:03Z</time>
      </trkpt>
      <trkpt lat="43.76871" lon="7.00179">
        <ele>881</ele>
        <time>2012-04-20T07:35:10Z</time>
      </trkpt>
      <trkpt lat="43.76872" lon="7.00153">
        <ele>877</ele>
        <time>2012-04-20T07:35:19Z</time>
      </trkpt>
      <trkpt lat="43.7687" lon="7.00136">
        <ele>877</ele>
        <time>2012-04-20T07:35:25Z</time>
      </trkpt>
      <trkpt lat="43.76867" lon="7.00119">
        <ele>877</ele>
        <time>2012-04-20T07:35:32Z</time>
      </trkpt>
      <trkpt lat="43.76862" lon="7.00106">
        <ele>876</ele>
        <time>2012-04-20T07:35:38Z</time>
      </trkpt>
      <trkpt lat="43.7685" lon="7.00101">
        <ele>875</ele>
        <time>2012-04-20T07:35:44Z</time>
      </trkpt>
      <trkpt lat="43.76842" lon="7.00091">
        <ele>875</ele>
        <time>2012-04-20T07:35:48Z</time>
      </trkpt>
      <trkpt lat="43.76844" lon="7.00078">
        <ele>875</ele>
        <time>2012-04-20T07:35:52Z</time>
      </trkpt>
      <trkpt lat="43.76851" lon="7.00072">
        <ele>876</ele>
        <time>2012-04-20T07:35:55Z</time>
      </trkpt>
      <trkpt lat="43.76858" lon="7.00056">
        <ele>878</ele>
        <time>2012-04-20T07:35:59Z</time>
      </trkpt>
      <trkpt lat="43.76871" lon="7.0003">
        <ele>879</ele>
        <time>2012-04-20T07:36:05Z</time>
      </trkpt>
      <trkpt lat="43.76874" lon="7.0002">
        <ele>879</ele>
        <time>2012-04-20T07:36:08Z</time>
      </trkpt>
      <trkpt lat="43.76868" lon="7">
        <ele>879</ele>
        <time>2012-04-20T07:36:14Z</time>
      </trkpt>
      <trkpt lat="43.76865" lon="6.99977">
        <ele>880</ele>
        <time>2012-04-20T07:36:21Z</time>
      </trkpt>
      <trkpt lat="43.76866" lon="6.99958">
        <ele>880</ele>
        <time>2012-04-20T07:36:27Z</time>
      </trkpt>
      <trkpt lat="43.76876" lon="6.99942">
        <ele>880</ele>
        <time>2012-04-20T07:36:33Z</time>
      </trkpt>
      <trkpt lat="43.76889" lon="6.99937">
        <ele>880</ele>
        <time>2012-04-20T07:36:38Z</time>
      </trkpt>
      <trkpt lat="43.769" lon="6.9993">
        <ele>879</ele>
        <time>2012-04-20T07:36:43Z</time>
      </trkpt>
      <trkpt lat="43.76909" lon="6.99921">
        <ele>879</ele>
        <time>2012-04-20T07:36:48Z</time>
      </trkpt>
      <trkpt lat="43.76923" lon="6.99906">
        <ele>878</ele>
        <time>2012-04-20T07:36:54Z</time>
      </trkpt>
      <trkpt lat="43.76943" lon="6.99892">
        <ele>877</ele>
        <time>2012-04-20T07:37:01Z</time>
      </trkpt>
      <trkpt lat="43.76951" lon="6.99887">
        <ele>877</ele>
        <time>2012-04-20T07:37:06Z</time>
      </trkpt>
      <trkpt lat="43.76952" lon="6.99887">
        <ele>877</ele>
        <time>2012-04-20T07:37:07Z</time>
      </trkpt>
      <trkpt lat="43.76953" lon="6.99888">
        <ele>877</ele>
        <time>2012-04-20T07:37:09Z</time>
      </trkpt>
      <trkpt lat="43.76957" lon="6.99892">
        <ele>878</ele>
        <time>2012-04-20T07:37:13Z</time>
      </trkpt>
      <trkpt lat="43.76955" lon="6.9989">
        <ele>878</ele>
        <time>2012-04-20T07:37:18Z</time>
      </trkpt>
      <trkpt lat="43.76955" lon="6.9989">
        <ele>878</ele>
        <time>2012-04-20T07:37:20Z</time>
      </trkpt>
      <trkpt lat="43.76957" lon="6.99885">
        <ele>877</ele>
        <time>2012-04-20T07:37:24Z</time>
      </trkpt>
      <trkpt lat="43.76971" lon="6.9988">
        <ele>878</ele>
        <time>2012-04-20T07:37:30Z</time>
      </trkpt>
      <trkpt lat="43.76988" lon="6.99876">
        <ele>878</ele>
        <time>2012-04-20T07:37:38Z</time>
      </trkpt>
      <trkpt lat="43.76988" lon="6.99877">
        <ele>878</ele>
        <time>2012-04-20T07:37:43Z</time>
      </trkpt>
      <trkpt lat="43.76986" lon="6.99877">
        <ele>878</ele>
        <time>2012-04-20T07:38:26Z</time>
      </trkpt>
      <trkpt lat="43.76988" lon="6.99874">
        <ele>878</ele>
        <time>2012-04-20T07:38:28Z</time>
      </trkpt>
      <trkpt lat="43.76988" lon="6.99852">
        <ele>877</ele>
        <time>2012-04-20T07:38:35Z</time>
      </trkpt>
      <trkpt lat="43.76986" lon="6.99837">
        <ele>877</ele>
        <time>2012-04-20T07:38:40Z</time>
      </trkpt>
      <trkpt lat="43.76981" lon="6.99814">
        <ele>873</ele>
        <time>2012-04-20T07:38:48Z</time>
      </trkpt>
      <trkpt lat="43.76979" lon="6.99812">
        <ele>873</ele>
        <time>2012-04-20T07:38:49Z</time>
      </trkpt>
      <trkpt lat="43.76967" lon="6.99811">
        <ele>872</ele>
        <time>2012-04-20T07:38:54Z</time>
      </trkpt>
      <trkpt lat="43.76947" lon="6.99818">
        <ele>872</ele>
        <time>2012-04-20T07:39:01Z</time>
      </trkpt>
      <trkpt lat="43.76921" lon="6.99831">
        <ele>873</ele>
        <time>2012-04-20T07:39:10Z</time>
      </trkpt>
      <trkpt lat="43.76907" lon="6.99833">
        <ele>872</ele>
        <time>2012-04-20T07:39:17Z</time>
      </trkpt>
      <trkpt lat="43.76907" lon="6.99833">
        <ele>872</ele>
        <time>2012-04-20T07:39:25Z</time>
      </trkpt>
      <trkpt lat="43.76907" lon="6.99833">
        <ele>872</ele>
        <time>2012-04-20T07:39:37Z</time>
      </trkpt>
      <trkpt lat="43.76898" lon="6.99825">
        <ele>871</ele>
        <time>2012-04-20T07:39:43Z</time>
      </trkpt>
      <trkpt lat="43.76892" lon="6.99821">
        <ele>870</ele>
        <time>2012-04-20T07:39:45Z</time>
      </trkpt>
      <trkpt lat="43.7687" lon="6.99803">
        <ele>868</ele>
        <time>2012-04-20T07:39:51Z</time>
      </trkpt>
      <trkpt lat="43.76846" lon="6.9979">
        <ele>867</ele>
        <time>2012-04-20T07:39:57Z</time>
      </trkpt>
      <trkpt lat="43.76827" lon="6.99782">
        <ele>862</ele>
        <time>2012-04-20T07:40:01Z</time>
      </trkpt>
      <trkpt lat="43.768" lon="6.99767">
        <ele>860</ele>
        <time>2012-04-20T07:40:07Z</time>
      </trkpt>
      <trkpt lat="43.76786" lon="6.99762">
        <ele>859</ele>
        <time>2012-04-20T07:40:10Z</time>
      </trkpt>
      <trkpt lat="43.76769" lon="6.99748">
        <ele>848</ele>
        <time>2012-04-20T07:40:15Z</time>
      </trkpt>
      <trkpt lat="43.76763" lon="6.99742">
        <ele>848</ele>
        <time>2012-04-20T07:40:17Z</time>
      </trkpt>
      <trkpt lat="43.76745" lon="6.99742">
        <ele>845</ele>
        <time>2012-04-20T07:40:21Z</time>
      </trkpt>
      <trkpt lat="43.76729" lon="6.99738">
        <ele>840</ele>
        <time>2012-04-20T07:40:25Z</time>
      </trkpt>
      <trkpt lat="43.76714" lon="6.99732">
        <ele>837</ele>
        <time>2012-04-20T07:40:29Z</time>
      </trkpt>
      <trkpt lat="43.76706" lon="6.99728">
        <ele>836</ele>
        <time>2012-04-20T07:40:31Z</time>
      </trkpt>
      <trkpt lat="43.7668" lon="6.99716">
        <ele>833</ele>
        <time>2012-04-20T07:40:37Z</time>
      </trkpt>
      <trkpt lat="43.76662" lon="6.99712">
        <ele>828</ele>
        <time>2012-04-20T07:40:41Z</time>
      </trkpt>
      <trkpt lat="43.76646" lon="6.99702">
        <ele>826</ele>
        <time>2012-04-20T07:40:45Z</time>
      </trkpt>
      <trkpt lat="43.76625" lon="6.99687">
        <ele>825</ele>
        <time>2012-04-20T07:40:50Z</time>
      </trkpt>
      <trkpt lat="43.76621" lon="6.99685">
        <ele>824</ele>
        <time>2012-04-20T07:40:51Z</time>
      </trkpt>
      <trkpt lat="43.76608" lon="6.99676">
        <ele>823</ele>
        <time>2012-04-20T07:40:54Z</time>
      </trkpt>
      <trkpt lat="43.76597" lon="6.99668">
        <ele>820</ele>
        <time>2012-04-20T07:40:57Z</time>
      </trkpt>
      <trkpt lat="43.76584" lon="6.99654">
        <ele>810</ele>
        <time>2012-04-20T07:41:02Z</time>
      </trkpt>
      <trkpt lat="43.76567" lon="6.99642">
        <ele>808</ele>
        <time>2012-04-20T07:41:07Z</time>
      </trkpt>
      <trkpt lat="43.76552" lon="6.9963">
        <ele>806</ele>
        <time>2012-04-20T07:41:11Z</time>
      </trkpt>
      <trkpt lat="43.76536" lon="6.99607">
        <ele>803</ele>
        <time>2012-04-20T07:41:17Z</time>
      </trkpt>
      <trkpt lat="43.7652" lon="6.99593">
        <ele>801</ele>
        <time>2012-04-20T07:41:22Z</time>
      </trkpt>
      <trkpt lat="43.76514" lon="6.9959">
        <ele>800</ele>
        <time>2012-04-20T07:41:24Z</time>
      </trkpt>
      <trkpt lat="43.76516" lon="6.99586">
        <ele>800</ele>
        <time>2012-04-20T07:41:28Z</time>
      </trkpt>
      <trkpt lat="43.76526" lon="6.99584">
        <ele>801</ele>
        <time>2012-04-20T07:41:33Z</time>
      </trkpt>
      <trkpt lat="43.7653" lon="6.99581">
        <ele>784</ele>
        <time>2012-04-20T07:41:35Z</time>
      </trkpt>
      <trkpt lat="43.76529" lon="6.99575">
        <ele>783</ele>
        <time>2012-04-20T07:41:38Z</time>
      </trkpt>
      <trkpt lat="43.76532" lon="6.99567">
        <ele>782</ele>
        <time>2012-04-20T07:41:42Z</time>
      </trkpt>
      <trkpt lat="43.7654" lon="6.99562">
        <ele>780</ele>
        <time>2012-04-20T07:41:45Z</time>
      </trkpt>
      <trkpt lat="43.76545" lon="6.99561">
        <ele>780</ele>
        <time>2012-04-20T07:41:47Z</time>
      </trkpt>
      <trkpt lat="43.76559" lon="6.99551">
        <ele>778</ele>
        <time>2012-04-20T07:41:52Z</time>
      </trkpt>
      <trkpt lat="43.76564" lon="6.99548">
        <ele>777</ele>
        <time>2012-04-20T07:41:54Z</time>
      </trkpt>
      <trkpt lat="43.7656" lon="6.99542">
        <ele>776</ele>
        <time>2012-04-20T07:41:58Z</time>
      </trkpt>
      <trkpt lat="43.76549" lon="6.99534">
        <ele>775</ele>
        <time>2012-04-20T07:42:02Z</time>
      </trkpt>
      <trkpt lat="43.76541" lon="6.99522">
        <ele>773</ele>
        <time>2012-04-20T07:42:07Z</time>
      </trkpt>
      <trkpt lat="43.76541" lon="6.99521">
        <ele>773</ele>
        <time>2012-04-20T07:42:08Z</time>
      </trkpt>
      <trkpt lat="43.76539" lon="6.99515">
        <ele>773</ele>
        <time>2012-04-20T07:42:13Z</time>
      </trkpt>
      <trkpt lat="43.76534" lon="6.99508">
        <ele>772</ele>
        <time>2012-04-20T07:42:18Z</time>
      </trkpt>
      <trkpt lat="43.76528" lon="6.99501">
        <ele>771</ele>
        <time>2012-04-20T07:42:22Z</time>
      </trkpt>
      <trkpt lat="43.76522" lon="6.99497">
        <ele>756</ele>
        <time>2012-04-20T07:42:24Z</time>
      </trkpt>
      <trkpt lat="43.76519" lon="6.99494">
        <ele>757</ele>
        <time>2012-04-20T07:42:29Z</time>
      </trkpt>
      <trkpt lat="43.76515" lon="6.99486">
        <ele>756</ele>
        <time>2012-04-20T07:43:14Z</time>
      </trkpt>
      <trkpt lat="43.76507" lon="6.99474">
        <ele>754</ele>
        <time>2012-04-20T07:43:18Z</time>
      </trkpt>
      <trkpt lat="43.76503" lon="6.99466">
        <ele>752</ele>
        <time>2012-04-20T07:43:21Z</time>
      </trkpt>
      <trkpt lat="43.76503" lon="6.99463">
        <ele>751</ele>
        <time>2012-04-20T07:43:24Z</time>
      </trkpt>
      <trkpt lat="43.76515" lon="6.9946">
        <ele>750</ele>
        <time>2012-04-20T07:43:29Z</time>
      </trkpt>
      <trkpt lat="43.76523" lon="6.99457">
        <ele>749</ele>
        <time>2012-04-20T07:43:32Z</time>
      </trkpt>
      <trkpt lat="43.76528" lon="6.99455">
        <ele>749</ele>
        <time>2012-04-20T07:43:34Z</time>
      </trkpt>
      <trkpt lat="43.76544" lon="6.99442">
        <ele>746</ele>
        <time>2012-04-20T07:43:39Z</time>
      </trkpt>
      <trkpt lat="43.76555" lon="6.99432">
        <ele>744</ele>
        <time>2012-04-20T07:43:43Z</time>
      </trkpt>
      <trkpt lat="43.76569" lon="6.99434">
        <ele>742</ele>
        <time>2012-04-20T07:43:47Z</time>
      </trkpt>
      <trkpt lat="43.76574" lon="6.99432">
        <ele>740</ele>
        <time>2012-04-20T07:43:50Z</time>
      </trkpt>
      <trkpt lat="43.76565" lon="6.99422">
        <ele>741</ele>
        <time>2012-04-20T07:43:55Z</time>
      </trkpt>
      <trkpt lat="43.76545" lon="6.99419">
        <ele>743</ele>
        <time>2012-04-20T07:44:02Z</time>
      </trkpt>
      <trkpt lat="43.7653" lon="6.99415">
        <ele>725</ele>
        <time>2012-04-20T07:44:07Z</time>
      </trkpt>
      <trkpt lat="43.76512" lon="6.99401">
        <ele>726</ele>
        <time>2012-04-20T07:44:13Z</time>
      </trkpt>
      <trkpt lat="43.76507" lon="6.99395">
        <ele>725</ele>
        <time>2012-04-20T07:44:15Z</time>
      </trkpt>
      <trkpt lat="43.76505" lon="6.99391">
        <ele>723</ele>
        <time>2012-04-20T07:44:18Z</time>
      </trkpt>
      <trkpt lat="43.76516" lon="6.9939">
        <ele>722</ele>
        <time>2012-04-20T07:44:23Z</time>
      </trkpt>
      <trkpt lat="43.76521" lon="6.99388">
        <ele>721</ele>
        <time>2012-04-20T07:44:25Z</time>
      </trkpt>
      <trkpt lat="43.76534" lon="6.9937">
        <ele>716</ele>
        <time>2012-04-20T07:44:30Z</time>
      </trkpt>
      <trkpt lat="43.76549" lon="6.9936">
        <ele>713</ele>
        <time>2012-04-20T07:44:35Z</time>
      </trkpt>
      <trkpt lat="43.76552" lon="6.99359">
        <ele>713</ele>
        <time>2012-04-20T07:44:37Z</time>
      </trkpt>
      <trkpt lat="43.76546" lon="6.99353">
        <ele>712</ele>
        <time>2012-04-20T07:44:42Z</time>
      </trkpt>
      <trkpt lat="43.76539" lon="6.99354">
        <ele>712</ele>
        <time>2012-04-20T07:44:45Z</time>
      </trkpt>
      <trkpt lat="43.76539" lon="6.99347">
        <ele>711</ele>
        <time>2012-04-20T07:44:49Z</time>
      </trkpt>
      <trkpt lat="43.76552" lon="6.99341">
        <ele>710</ele>
        <time>2012-04-20T07:44:54Z</time>
      </trkpt>
      <trkpt lat="43.76562" lon="6.99343">
        <ele>709</ele>
        <time>2012-04-20T07:44:58Z</time>
      </trkpt>
      <trkpt lat="43.76564" lon="6.99344">
        <ele>709</ele>
        <time>2012-04-20T07:44:59Z</time>
      </trkpt>
      <trkpt lat="43.76568" lon="6.99342">
        <ele>707</ele>
        <time>2012-04-20T07:45:05Z</time>
      </trkpt>
      <trkpt lat="43.76568" lon="6.99341">
        <ele>707</ele>
        <time>2012-04-20T07:45:07Z</time>
      </trkpt>
      <trkpt lat="43.76559" lon="6.99332">
        <ele>689</ele>
        <time>2012-04-20T07:45:13Z</time>
      </trkpt>
      <trkpt lat="43.76557" lon="6.99328">
        <ele>689</ele>
        <time>2012-04-20T07:45:17Z</time>
      </trkpt>
      <trkpt lat="43.76553" lon="6.99322">
        <ele>687</ele>
        <time>2012-04-20T07:45:20Z</time>
      </trkpt>
      <trkpt lat="43.76535" lon="6.99317">
        <ele>686</ele>
        <time>2012-04-20T07:45:26Z</time>
      </trkpt>
      <trkpt lat="43.7652" lon="6.99315">
        <ele>687</ele>
        <time>2012-04-20T07:45:31Z</time>
      </trkpt>
      <trkpt lat="43.76509" lon="6.99307">
        <ele>685</ele>
        <time>2012-04-20T07:45:35Z</time>
      </trkpt>
      <trkpt lat="43.76499" lon="6.99299">
        <ele>677</ele>
        <time>2012-04-20T07:45:39Z</time>
      </trkpt>
      <trkpt lat="43.76492" lon="6.99296">
        <ele>676</ele>
        <time>2012-04-20T07:45:44Z</time>
      </trkpt>
      <trkpt lat="43.76487" lon="6.99294">
        <ele>675</ele>
        <time>2012-04-20T07:45:49Z</time>
      </trkpt>
      <trkpt lat="43.76481" lon="6.99291">
        <ele>673</ele>
        <time>2012-04-20T07:45:53Z</time>
      </trkpt>
      <trkpt lat="43.76476" lon="6.9929">
        <ele>673</ele>
        <time>2012-04-20T07:45:55Z</time>
      </trkpt>
      <trkpt lat="43.7647" lon="6.99286">
        <ele>671</ele>
        <time>2012-04-20T07:45:59Z</time>
      </trkpt>
      <trkpt lat="43.76471" lon="6.99283">
        <ele>671</ele>
        <time>2012-04-20T07:46:04Z</time>
      </trkpt>
      <trkpt lat="43.76479" lon="6.99276">
        <ele>670</ele>
        <time>2012-04-20T07:46:08Z</time>
      </trkpt>
      <trkpt lat="43.76481" lon="6.99275">
        <ele>670</ele>
        <time>2012-04-20T07:46:09Z</time>
      </trkpt>
      <trkpt lat="43.76482" lon="6.99266">
        <ele>668</ele>
        <time>2012-04-20T07:46:13Z</time>
      </trkpt>
      <trkpt lat="43.7648" lon="6.9926">
        <ele>667</ele>
        <time>2012-04-20T07:46:15Z</time>
      </trkpt>
      <trkpt lat="43.76473" lon="6.99246">
        <ele>649</ele>
        <time>2012-04-20T07:46:20Z</time>
      </trkpt>
      <trkpt lat="43.76472" lon="6.99246">
        <ele>649</ele>
        <time>2012-04-20T07:46:25Z</time>
      </trkpt>
      <trkpt lat="43.76471" lon="6.99246">
        <ele>649</ele>
        <time>2012-04-20T07:46:53Z</time>
      </trkpt>
      <trkpt lat="43.76466" lon="6.99242">
        <ele>647</ele>
        <time>2012-04-20T07:46:58Z</time>
      </trkpt>
      <trkpt lat="43.7646" lon="6.9924">
        <ele>646</ele>
        <time>2012-04-20T07:47:02Z</time>
      </trkpt>
      <trkpt lat="43.76459" lon="6.99234">
        <ele>645</ele>
        <time>2012-04-20T07:47:06Z</time>
      </trkpt>
      <trkpt lat="43.76465" lon="6.99227">
        <ele>645</ele>
        <time>2012-04-20T07:47:10Z</time>
      </trkpt>
      <trkpt lat="43.76468" lon="6.99224">
        <ele>645</ele>
        <time>2012-04-20T07:47:14Z</time>
      </trkpt>
      <trkpt lat="43.76471" lon="6.99218">
        <ele>645</ele>
        <time>2012-04-20T07:47:16Z</time>
      </trkpt>
      <trkpt lat="43.76476" lon="6.99211">
        <ele>644</ele>
        <time>2012-04-20T07:47:19Z</time>
      </trkpt>
      <trkpt lat="43.76482" lon="6.99201">
        <ele>643</ele>
        <time>2012-04-20T07:47:24Z</time>
      </trkpt>
      <trkpt lat="43.76477" lon="6.99199">
        <ele>642</ele>
        <time>2012-04-20T07:47:27Z</time>
      </trkpt>
      <trkpt lat="43.76473" lon="6.99196">
        <ele>641</ele>
        <time>2012-04-20T07:47:29Z</time>
      </trkpt>
      <trkpt lat="43.76475" lon="6.99185">
        <ele>640</ele>
        <time>2012-04-20T07:47:33Z</time>
      </trkpt>
      <trkpt lat="43.76475" lon="6.99171">
        <ele>639</ele>
        <time>2012-04-20T07:47:36Z</time>
      </trkpt>
      <trkpt lat="43.7647" lon="6.99166">
        <ele>622</ele>
        <time>2012-04-20T07:47:39Z</time>
      </trkpt>
      <trkpt lat="43.7647" lon="6.99158">
        <ele>621</ele>
        <time>2012-04-20T07:47:42Z</time>
      </trkpt>
      <trkpt lat="43.76471" lon="6.99154">
        <ele>621</ele>
        <time>2012-04-20T07:47:43Z</time>
      </trkpt>
      <trkpt lat="43.76474" lon="6.99144">
        <ele>619</ele>
        <time>2012-04-20T07:47:45Z</time>
      </trkpt>
      <trkpt lat="43.76483" lon="6.99133">
        <ele>618</ele>
        <time>2012-04-20T07:47:49Z</time>
      </trkpt>
      <trkpt lat="43.76485" lon="6.99134">
        <ele>618</ele>
        <time>2012-04-20T07:47:50Z</time>
      </trkpt>
      <trkpt lat="43.76489" lon="6.99134">
        <ele>619</ele>
        <time>2012-04-20T07:47:53Z</time>
      </trkpt>
      <trkpt lat="43.76482" lon="6.99115">
        <ele>613</ele>
        <time>2012-04-20T07:47:58Z</time>
      </trkpt>
      <trkpt lat="43.7648" lon="6.99111">
        <ele>612</ele>
        <time>2012-04-20T07:47:59Z</time>
      </trkpt>
      <trkpt lat="43.76468" lon="6.99111">
        <ele>611</ele>
        <time>2012-04-20T07:48:03Z</time>
      </trkpt>
      <trkpt lat="43.76465" lon="6.99111">
        <ele>611</ele>
        <time>2012-04-20T07:48:04Z</time>
      </trkpt>
      <trkpt lat="43.76459" lon="6.99109">
        <ele>611</ele>
        <time>2012-04-20T07:48:06Z</time>
      </trkpt>
      <trkpt lat="43.76443" lon="6.99117">
        <ele>610</ele>
        <time>2012-04-20T07:48:12Z</time>
      </trkpt>
      <trkpt lat="43.76433" lon="6.99121">
        <ele>610</ele>
        <time>2012-04-20T07:48:15Z</time>
      </trkpt>
      <trkpt lat="43.76429" lon="6.99113">
        <ele>608</ele>
        <time>2012-04-20T07:48:19Z</time>
      </trkpt>
      <trkpt lat="43.7643" lon="6.99105">
        <ele>606</ele>
        <time>2012-04-20T07:48:24Z</time>
      </trkpt>
      <trkpt lat="43.76431" lon="6.99104">
        <ele>605</ele>
        <time>2012-04-20T07:48:29Z</time>
      </trkpt>
      <trkpt lat="43.76425" lon="6.99095">
        <ele>601</ele>
        <time>2012-04-20T07:48:34Z</time>
      </trkpt>
      <trkpt lat="43.76431" lon="6.99083">
        <ele>588</ele>
        <time>2012-04-20T07:48:37Z</time>
      </trkpt>
      <trkpt lat="43.76436" lon="6.99074">
        <ele>587</ele>
        <time>2012-04-20T07:48:39Z</time>
      </trkpt>
      <trkpt lat="43.76437" lon="6.9907">
        <ele>586</ele>
        <time>2012-04-20T07:48:44Z</time>
      </trkpt>
      <trkpt lat="43.76438" lon="6.99072">
        <ele>587</ele>
        <time>2012-04-20T07:48:59Z</time>
      </trkpt>
      <trkpt lat="43.76438" lon="6.99073">
        <ele>587</ele>
        <time>2012-04-20T07:49:25Z</time>
      </trkpt>
      <trkpt lat="43.76432" lon="6.99071">
        <ele>587</ele>
        <time>2012-04-20T07:49:29Z</time>
      </trkpt>
      <trkpt lat="43.76428" lon="6.99058">
        <ele>585</ele>
        <time>2012-04-20T07:49:33Z</time>
      </trkpt>
      <trkpt lat="43.76433" lon="6.99042">
        <ele>581</ele>
        <time>2012-04-20T07:49:37Z</time>
      </trkpt>
      <trkpt lat="43.76435" lon="6.99036">
        <ele>580</ele>
        <time>2012-04-20T07:49:40Z</time>
      </trkpt>
      <trkpt lat="43.76426" lon="6.99037">
        <ele>580</ele>
        <time>2012-04-20T07:49:45Z</time>
      </trkpt>
      <trkpt lat="43.76418" lon="6.99036">
        <ele>580</ele>
        <time>2012-04-20T07:49:50Z</time>
      </trkpt>
      <trkpt lat="43.76409" lon="6.99035">
        <ele>566</ele>
        <time>2012-04-20T07:49:53Z</time>
      </trkpt>
      <trkpt lat="43.76398" lon="6.99043">
        <ele>566</ele>
        <time>2012-04-20T07:49:58Z</time>
      </trkpt>
      <trkpt lat="43.76388" lon="6.99054">
        <ele>566</ele>
        <time>2012-04-20T07:50:02Z</time>
      </trkpt>
      <trkpt lat="43.76385" lon="6.99048">
        <ele>565</ele>
        <time>2012-04-20T07:50:05Z</time>
      </trkpt>
      <trkpt lat="43.76382" lon="6.99027">
        <ele>561</ele>
        <time>2012-04-20T07:50:10Z</time>
      </trkpt>
      <trkpt lat="43.76382" lon="6.99021">
        <ele>561</ele>
        <time>2012-04-20T07:50:12Z</time>
      </trkpt>
      <trkpt lat="43.76383" lon="6.99009">
        <ele>560</ele>
        <time>2012-04-20T07:50:17Z</time>
      </trkpt>
      <trkpt lat="43.76388" lon="6.98996">
        <ele>547</ele>
        <time>2012-04-20T07:50:21Z</time>
      </trkpt>
      <trkpt lat="43.76388" lon="6.98993">
        <ele>546</ele>
        <time>2012-04-20T07:50:23Z</time>
      </trkpt>
      <trkpt lat="43.76385" lon="6.98992">
        <ele>545</ele>
        <time>2012-04-20T07:50:29Z</time>
      </trkpt>
      <trkpt lat="43.76379" lon="6.98992">
        <ele>543</ele>
        <time>2012-04-20T07:50:33Z</time>
      </trkpt>
      <trkpt lat="43.7637" lon="6.98997">
        <ele>542</ele>
        <time>2012-04-20T07:50:37Z</time>
      </trkpt>
      <trkpt lat="43.76371" lon="6.9899">
        <ele>541</ele>
        <time>2012-04-20T07:50:41Z</time>
      </trkpt>
      <trkpt lat="43.76366" lon="6.98993">
        <ele>541</ele>
        <time>2012-04-20T07:50:44Z</time>
      </trkpt>
      <trkpt lat="43.76359" lon="6.98993">
        <ele>539</ele>
        <time>2012-04-20T07:50:48Z</time>
      </trkpt>
      <trkpt lat="43.76351" lon="6.98998">
        <ele>538</ele>
        <time>2012-04-20T07:50:51Z</time>
      </trkpt>
      <trkpt lat="43.76338" lon="6.99013">
        <ele>546</ele>
        <time>2012-04-20T07:50:57Z</time>
      </trkpt>
      <trkpt lat="43.76337" lon="6.99012">
        <ele>546</ele>
        <time>2012-04-20T07:51:02Z</time>
      </trkpt>
      <trkpt lat="43.76335" lon="6.99005">
        <ele>541</ele>
        <time>2012-04-20T07:51:05Z</time>
      </trkpt>
      <trkpt lat="43.76333" lon="6.99007">
        <ele>535</ele>
        <time>2012-04-20T07:51:09Z</time>
      </trkpt>
      <trkpt lat="43.76326" lon="6.99023">
        <ele>534</ele>
        <time>2012-04-20T07:51:15Z</time>
      </trkpt>
      <trkpt lat="43.76323" lon="6.99036">
        <ele>534</ele>
        <time>2012-04-20T07:51:17Z</time>
      </trkpt>
      <trkpt lat="43.76306" lon="6.99071">
        <ele>536</ele>
        <time>2012-04-20T07:51:22Z</time>
      </trkpt>
      <trkpt lat="43.76297" lon="6.99077">
        <ele>534</ele>
        <time>2012-04-20T07:51:25Z</time>
      </trkpt>
      <trkpt lat="43.76296" lon="6.99074">
        <ele>534</ele>
        <time>2012-04-20T07:51:30Z</time>
      </trkpt>
      <trkpt lat="43.76295" lon="6.99073">
        <ele>533</ele>
        <time>2012-04-20T07:51:36Z</time>
      </trkpt>
      <trkpt lat="43.7629" lon="6.9907">
        <ele>532</ele>
        <time>2012-04-20T07:51:40Z</time>
      </trkpt>
      <trkpt lat="43.76275" lon="6.9905">
        <ele>528</ele>
        <time>2012-04-20T07:51:45Z</time>
      </trkpt>
      <trkpt lat="43.7627" lon="6.99038">
        <ele>527</ele>
        <time>2012-04-20T07:51:49Z</time>
      </trkpt>
      <trkpt lat="43.76261" lon="6.99023">
        <ele>523</ele>
        <time>2012-04-20T07:51:53Z</time>
      </trkpt>
      <trkpt lat="43.76249" lon="6.9901">
        <ele>509</ele>
        <time>2012-04-20T07:51:56Z</time>
      </trkpt>
      <trkpt lat="43.76246" lon="6.99005">
        <ele>509</ele>
        <time>2012-04-20T07:51:57Z</time>
      </trkpt>
      <trkpt lat="43.76233" lon="6.98992">
        <ele>502</ele>
        <time>2012-04-20T07:52:01Z</time>
      </trkpt>
      <trkpt lat="43.7622" lon="6.98967">
        <ele>497</ele>
        <time>2012-04-20T07:52:05Z</time>
      </trkpt>
      <trkpt lat="43.76201" lon="6.98935">
        <ele>493</ele>
        <time>2012-04-20T07:52:10Z</time>
      </trkpt>
      <trkpt lat="43.76198" lon="6.98928">
        <ele>492</ele>
        <time>2012-04-20T07:52:11Z</time>
      </trkpt>
      <trkpt lat="43.7619" lon="6.98905">
        <ele>484</ele>
        <time>2012-04-20T07:52:14Z</time>
      </trkpt>
      <trkpt lat="43.76193" lon="6.98864">
        <ele>483</ele>
        <time>2012-04-20T07:52:18Z</time>
      </trkpt>
      <trkpt lat="43.76205" lon="6.98828">
        <ele>478</ele>
        <time>2012-04-20T07:52:21Z</time>
      </trkpt>
      <trkpt lat="43.76233" lon="6.98799">
        <ele>480</ele>
        <time>2012-04-20T07:52:25Z</time>
      </trkpt>
      <trkpt lat="43.76247" lon="6.9879">
        <ele>479</ele>
        <time>2012-04-20T07:52:27Z</time>
      </trkpt>
      <trkpt lat="43.76263" lon="6.98774">
        <ele>482</ele>
        <time>2012-04-20T07:52:31Z</time>
      </trkpt>
      <trkpt lat="43.76259" lon="6.98768">
        <ele>480</ele>
        <time>2012-04-20T07:52:33Z</time>
      </trkpt>
      <trkpt lat="43.76252" lon="6.98772">
        <ele>481</ele>
        <time>2012-04-20T07:52:35Z</time>
      </trkpt>
      <trkpt lat="43.76223" lon="6.98788">
        <ele>478</ele>
        <time>2012-04-20T07:52:41Z</time>
      </trkpt>
      <trkpt lat="43.76212" lon="6.98794">
        <ele>478</ele>
        <time>2012-04-20T07:52:43Z</time>
      </trkpt>
      <trkpt lat="43.76182" lon="6.98827">
        <ele>475</ele>
        <time>2012-04-20T07:52:49Z</time>
      </trkpt>
      <trkpt lat="43.76162" lon="6.98863">
        <ele>481</ele>
        <time>2012-04-20T07:52:54Z</time>
      </trkpt>
      <trkpt lat="43.76154" lon="6.98877">
        <ele>482</ele>
        <time>2012-04-20T07:52:56Z</time>
      </trkpt>
      <trkpt lat="43.76129" lon="6.98892">
        <ele>484</ele>
        <time>2012-04-20T07:53:00Z</time>
      </trkpt>
      <trkpt lat="43.76111" lon="6.98887">
        <ele>486</ele>
        <time>2012-04-20T07:53:03Z</time>
      </trkpt>
      <trkpt lat="43.7609" lon="6.98891">
        <ele>487</ele>
        <time>2012-04-20T07:53:07Z</time>
      </trkpt>
      <trkpt lat="43.76082" lon="6.98909">
        <ele>495</ele>
        <time>2012-04-20T07:53:10Z</time>
      </trkpt>
      <trkpt lat="43.7607" lon="6.98939">
        <ele>489</ele>
        <time>2012-04-20T07:53:16Z</time>
      </trkpt>
      <trkpt lat="43.76062" lon="6.98964">
        <ele>487</ele>
        <time>2012-04-20T07:53:23Z</time>
      </trkpt>
      <trkpt lat="43.76049" lon="6.98976">
        <ele>487</ele>
        <time>2012-04-20T07:53:28Z</time>
      </trkpt>
      <trkpt lat="43.7603" lon="6.98986">
        <ele>488</ele>
        <time>2012-04-20T07:53:35Z</time>
      </trkpt>
      <trkpt lat="43.76012" lon="6.98994">
        <ele>486</ele>
        <time>2012-04-20T07:53:42Z</time>
      </trkpt>
      <trkpt lat="43.75994" lon="6.99">
        <ele>488</ele>
        <time>2012-04-20T07:53:49Z</time>
      </trkpt>
      <trkpt lat="43.75981" lon="6.99002">
        <ele>478</ele>
        <time>2012-04-20T07:53:54Z</time>
      </trkpt>
      <trkpt lat="43.75959" lon="6.98997">
        <ele>499</ele>
        <time>2012-04-20T07:54:02Z</time>
      </trkpt>
      <trkpt lat="43.75946" lon="6.98997">
        <ele>499</ele>
        <time>2012-04-20T07:54:07Z</time>
      </trkpt>
      <trkpt lat="43.75929" lon="6.98993">
        <ele>495</ele>
        <time>2012-04-20T07:54:14Z</time>
      </trkpt>
      <trkpt lat="43.75915" lon="6.98987">
        <ele>497</ele>
        <time>2012-04-20T07:54:20Z</time>
      </trkpt>
      <trkpt lat="43.75897" lon="6.98983">
        <ele>502</ele>
        <time>2012-04-20T07:54:27Z</time>
      </trkpt>
      <trkpt lat="43.75876" lon="6.98982">
        <ele>505</ele>
        <time>2012-04-20T07:54:35Z</time>
      </trkpt>
      <trkpt lat="43.75854" lon="6.98984">
        <ele>503</ele>
        <time>2012-04-20T07:54:43Z</time>
      </trkpt>
      <trkpt lat="43.75831" lon="6.98985">
        <ele>498</ele>
        <time>2012-04-20T07:54:51Z</time>
      </trkpt>
      <trkpt lat="43.75809" lon="6.98976">
        <ele>505</ele>
        <time>2012-04-20T07:54:59Z</time>
      </trkpt>
      <trkpt lat="43.75787" lon="6.98969">
        <ele>507</ele>
        <time>2012-04-20T07:55:07Z</time>
      </trkpt>
      <trkpt lat="43.75759" lon="6.9896">
        <ele>509</ele>
        <time>2012-04-20T07:55:17Z</time>
      </trkpt>
      <trkpt lat="43.75731" lon="6.98953">
        <ele>505</ele>
        <time>2012-04-20T07:55:27Z</time>
      </trkpt>
      <trkpt lat="43.7571" lon="6.9895">
        <ele>504</ele>
        <time>2012-04-20T07:55:35Z</time>
      </trkpt>
      <trkpt lat="43.75689" lon="6.98944">
        <ele>505</ele>
        <time>2012-04-20T07:55:43Z</time>
      </trkpt>
      <trkpt lat="43.75665" lon="6.98934">
        <ele>505</ele>
        <time>2012-04-20T07:55:52Z</time>
      </trkpt>
      <trkpt lat="43.75644" lon="6.98927">
        <ele>504</ele>
        <time>2012-04-20T07:56:00Z</time>
      </trkpt>
      <trkpt lat="43.75622" lon="6.98925">
        <ele>502</ele>
        <time>2012-04-20T07:56:09Z</time>
      </trkpt>
      <trkpt lat="43.75604" lon="6.98927">
        <ele>503</ele>
        <time>2012-04-20T07:56:16Z</time>
      </trkpt>
      <trkpt lat="43.75582" lon="6.98926">
        <ele>509</ele>
        <time>2012-04-20T07:56:24Z</time>
      </trkpt>
      <trkpt lat="43.75557" lon="6.98924">
        <ele>505</ele>
        <time>2012-04-20T07:56:33Z</time>
      </trkpt>
      <trkpt lat="43.75532" lon="6.98923">
        <ele>506</ele>
        <time>2012-04-20T07:56:41Z</time>
      </trkpt>
      <trkpt lat="43.75508" lon="6.98926">
        <ele>511</ele>
        <time>2012-04-20T07:56:49Z</time>
      </trkpt>
      <trkpt lat="43.75478" lon="6.98934">
        <ele>513</ele>
        <time>2012-04-20T07:56:59Z</time>
      </trkpt>
      <trkpt lat="43.75452" lon="6.9894">
        <ele>513</ele>
        <time>2012-04-20T07:57:08Z</time>
      </trkpt>
      <trkpt lat="43.75428" lon="6.98945">
        <ele>515</ele>
        <time>2012-04-20T07:57:16Z</time>
      </trkpt>
      <trkpt lat="43.75402" lon="6.98945">
        <ele>523</ele>
        <time>2012-04-20T07:57:24Z</time>
      </trkpt>
      <trkpt lat="43.75388" lon="6.98952">
        <ele>521</ele>
        <time>2012-04-20T07:57:30Z</time>
      </trkpt>
      <trkpt lat="43.75383" lon="6.98957">
        <ele>521</ele>
        <time>2012-04-20T07:57:32Z</time>
      </trkpt>
      <trkpt lat="43.7537" lon="6.98972">
        <ele>519</ele>
        <time>2012-04-20T07:57:36Z</time>
      </trkpt>
      <trkpt lat="43.75344" lon="6.98993">
        <ele>517</ele>
        <time>2012-04-20T07:57:43Z</time>
      </trkpt>
      <trkpt lat="43.7534" lon="6.98995">
        <ele>516</ele>
        <time>2012-04-20T07:57:44Z</time>
      </trkpt>
      <trkpt lat="43.75323" lon="6.99001">
        <ele>513</ele>
        <time>2012-04-20T07:57:49Z</time>
      </trkpt>
      <trkpt lat="43.75316" lon="6.99002">
        <ele>513</ele>
        <time>2012-04-20T07:57:51Z</time>
      </trkpt>
      <trkpt lat="43.75301" lon="6.99021">
        <ele>513</ele>
        <time>2012-04-20T07:57:56Z</time>
      </trkpt>
      <trkpt lat="43.75277" lon="6.99037">
        <ele>514</ele>
        <time>2012-04-20T07:58:02Z</time>
      </trkpt>
      <trkpt lat="43.75258" lon="6.9905">
        <ele>513</ele>
        <time>2012-04-20T07:58:07Z</time>
      </trkpt>
      <trkpt lat="43.75254" lon="6.99054">
        <ele>513</ele>
        <time>2012-04-20T07:58:08Z</time>
      </trkpt>
      <trkpt lat="43.75236" lon="6.9907">
        <ele>520</ele>
        <time>2012-04-20T07:58:13Z</time>
      </trkpt>
      <trkpt lat="43.75233" lon="6.99073">
        <ele>520</ele>
        <time>2012-04-20T07:58:14Z</time>
      </trkpt>
      <trkpt lat="43.75213" lon="6.99081">
        <ele>523</ele>
        <time>2012-04-20T07:58:19Z</time>
      </trkpt>
      <trkpt lat="43.75206" lon="6.99083">
        <ele>524</ele>
        <time>2012-04-20T07:58:21Z</time>
      </trkpt>
      <trkpt lat="43.75194" lon="6.99096">
        <ele>511</ele>
        <time>2012-04-20T07:58:25Z</time>
      </trkpt>
      <trkpt lat="43.7518" lon="6.99115">
        <ele>509</ele>
        <time>2012-04-20T07:58:30Z</time>
      </trkpt>
      <trkpt lat="43.75157" lon="6.99113">
        <ele>521</ele>
        <time>2012-04-20T07:58:36Z</time>
      </trkpt>
      <trkpt lat="43.75146" lon="6.99121">
        <ele>521</ele>
        <time>2012-04-20T07:58:39Z</time>
      </trkpt>
      <trkpt lat="43.75119" lon="6.9915">
        <ele>520</ele>
        <time>2012-04-20T07:58:47Z</time>
      </trkpt>
      <trkpt lat="43.75117" lon="6.99154">
        <ele>520</ele>
        <time>2012-04-20T07:58:48Z</time>
      </trkpt>
      <trkpt lat="43.75107" lon="6.99186">
        <ele>505</ele>
        <time>2012-04-20T07:58:54Z</time>
      </trkpt>
      <trkpt lat="43.75095" lon="6.99192">
        <ele>505</ele>
        <time>2012-04-20T07:58:58Z</time>
      </trkpt>
      <trkpt lat="43.75076" lon="6.99193">
        <ele>513</ele>
        <time>2012-04-20T07:59:03Z</time>
      </trkpt>
      <trkpt lat="43.75065" lon="6.99191">
        <ele>513</ele>
        <time>2012-04-20T07:59:07Z</time>
      </trkpt>
      <trkpt lat="43.75055" lon="6.99184">
        <ele>514</ele>
        <time>2012-04-20T07:59:10Z</time>
      </trkpt>
      <trkpt lat="43.75034" lon="6.9918">
        <ele>515</ele>
        <time>2012-04-20T07:59:16Z</time>
      </trkpt>
      <trkpt lat="43.75025" lon="6.99188">
        <ele>515</ele>
        <time>2012-04-20T07:59:20Z</time>
      </trkpt>
      <trkpt lat="43.7501" lon="6.99205">
        <ele>513</ele>
        <time>2012-04-20T07:59:25Z</time>
      </trkpt>
      <trkpt lat="43.74996" lon="6.99217">
        <ele>516</ele>
        <time>2012-04-20T07:59:30Z</time>
      </trkpt>
      <trkpt lat="43.7498" lon="6.99229">
        <ele>515</ele>
        <time>2012-04-20T07:59:35Z</time>
      </trkpt>
      <trkpt lat="43.74957" lon="6.9923">
        <ele>516</ele>
        <time>2012-04-20T07:59:42Z</time>
      </trkpt>
      <trkpt lat="43.74951" lon="6.9923">
        <ele>517</ele>
        <time>2012-04-20T07:59:44Z</time>
      </trkpt>
      <trkpt lat="43.74935" lon="6.99255">
        <ele>509</ele>
        <time>2012-04-20T07:59:51Z</time>
      </trkpt>
      <trkpt lat="43.74915" lon="6.99276">
        <ele>512</ele>
        <time>2012-04-20T07:59:57Z</time>
      </trkpt>
      <trkpt lat="43.74909" lon="6.99281">
        <ele>512</ele>
        <time>2012-04-20T08:00:01Z</time>
      </trkpt>
      <trkpt lat="43.74908" lon="6.99284">
        <ele>512</ele>
        <time>2012-04-20T08:00:10Z</time>
      </trkpt>
      <trkpt lat="43.74918" lon="6.99289">
        <ele>505</ele>
        <time>2012-04-20T08:00:16Z</time>
      </trkpt>
      <trkpt lat="43.74925" lon="6.99295">
        <ele>504</ele>
        <time>2012-04-20T08:00:19Z</time>
      </trkpt>
      <trkpt lat="43.74927" lon="6.99299">
        <ele>504</ele>
        <time>2012-04-20T08:00:20Z</time>
      </trkpt>
      <trkpt lat="43.74934" lon="6.99322">
        <ele>502</ele>
        <time>2012-04-20T08:00:25Z</time>
      </trkpt>
      <trkpt lat="43.74944" lon="6.99337">
        <ele>492</ele>
        <time>2012-04-20T08:00:29Z</time>
      </trkpt>
      <trkpt lat="43.74958" lon="6.99361">
        <ele>488</ele>
        <time>2012-04-20T08:00:34Z</time>
      </trkpt>
      <trkpt lat="43.74959" lon="6.99366">
        <ele>487</ele>
        <time>2012-04-20T08:00:35Z</time>
      </trkpt>
      <trkpt lat="43.74969" lon="6.99384">
        <ele>485</ele>
        <time>2012-04-20T08:00:41Z</time>
      </trkpt>
      <trkpt lat="43.74977" lon="6.99387">
        <ele>483</ele>
        <time>2012-04-20T08:00:44Z</time>
      </trkpt>
      <trkpt lat="43.74982" lon="6.994">
        <ele>480</ele>
        <time>2012-04-20T08:00:49Z</time>
      </trkpt>
      <trkpt lat="43.74979" lon="6.99423">
        <ele>471</ele>
        <time>2012-04-20T08:00:54Z</time>
      </trkpt>
      <trkpt lat="43.74978" lon="6.99426">
        <ele>470</ele>
        <time>2012-04-20T08:00:55Z</time>
      </trkpt>
      <trkpt lat="43.74975" lon="6.99433">
        <ele>470</ele>
        <time>2012-04-20T08:00:57Z</time>
      </trkpt>
      <trkpt lat="43.7497" lon="6.99446">
        <ele>470</ele>
        <time>2012-04-20T08:01:01Z</time>
      </trkpt>
      <trkpt lat="43.7497" lon="6.99448">
        <ele>470</ele>
        <time>2012-04-20T08:01:02Z</time>
      </trkpt>
      <trkpt lat="43.74984" lon="6.99444">
        <ele>469</ele>
        <time>2012-04-20T08:01:07Z</time>
      </trkpt>
      <trkpt lat="43.7499" lon="6.99439">
        <ele>469</ele>
        <time>2012-04-20T08:01:09Z</time>
      </trkpt>
      <trkpt lat="43.74995" lon="6.99443">
        <ele>469</ele>
        <time>2012-04-20T08:01:14Z</time>
      </trkpt>
      <trkpt lat="43.74999" lon="6.99466">
        <ele>466</ele>
        <time>2012-04-20T08:01:19Z</time>
      </trkpt>
      <trkpt lat="43.75" lon="6.99469">
        <ele>465</ele>
        <time>2012-04-20T08:01:20Z</time>
      </trkpt>
      <trkpt lat="43.75001" lon="6.99481">
        <ele>457</ele>
        <time>2012-04-20T08:01:24Z</time>
      </trkpt>
      <trkpt lat="43.75009" lon="6.99487">
        <ele>456</ele>
        <time>2012-04-20T08:01:28Z</time>
      </trkpt>
      <trkpt lat="43.7501" lon="6.99488">
        <ele>456</ele>
        <time>2012-04-20T08:01:35Z</time>
      </trkpt>
      <trkpt lat="43.75011" lon="6.99488">
        <ele>456</ele>
        <time>2012-04-20T08:01:38Z</time>
      </trkpt>
      <trkpt lat="43.75015" lon="6.99493">
        <ele>456</ele>
        <time>2012-04-20T08:01:42Z</time>
      </trkpt>
      <trkpt lat="43.75017" lon="6.99498">
        <ele>456</ele>
        <time>2012-04-20T08:01:45Z</time>
      </trkpt>
      <trkpt lat="43.75021" lon="6.99505">
        <ele>451</ele>
        <time>2012-04-20T08:01:47Z</time>
      </trkpt>
      <trkpt lat="43.75025" lon="6.99533">
        <ele>449</ele>
        <time>2012-04-20T08:01:53Z</time>
      </trkpt>
      <trkpt lat="43.75026" lon="6.99551">
        <ele>447</ele>
        <time>2012-04-20T08:01:57Z</time>
      </trkpt>
      <trkpt lat="43.75023" lon="6.9956">
        <ele>446</ele>
        <time>2012-04-20T08:02:01Z</time>
      </trkpt>
      <trkpt lat="43.75021" lon="6.99563">
        <ele>446</ele>
        <time>2012-04-20T08:02:03Z</time>
      </trkpt>
      <trkpt lat="43.75012" lon="6.99566">
        <ele>446</ele>
        <time>2012-04-20T08:02:09Z</time>
      </trkpt>
      <trkpt lat="43.75008" lon="6.99567">
        <ele>445</ele>
        <time>2012-04-20T08:02:14Z</time>
      </trkpt>
      <trkpt lat="43.75008" lon="6.99578">
        <ele>444</ele>
        <time>2012-04-20T08:02:19Z</time>
      </trkpt>
      <trkpt lat="43.75005" lon="6.99596">
        <ele>440</ele>
        <time>2012-04-20T08:02:22Z</time>
      </trkpt>
      <trkpt lat="43.75014" lon="6.99611">
        <ele>438</ele>
        <time>2012-04-20T08:02:26Z</time>
      </trkpt>
      <trkpt lat="43.75026" lon="6.99614">
        <ele>438</ele>
        <time>2012-04-20T08:02:28Z</time>
      </trkpt>
      <trkpt lat="43.75033" lon="6.99625">
        <ele>437</ele>
        <time>2012-04-20T08:02:32Z</time>
      </trkpt>
      <trkpt lat="43.75018" lon="6.9963">
        <ele>436</ele>
        <time>2012-04-20T08:02:36Z</time>
      </trkpt>
      <trkpt lat="43.75003" lon="6.99639">
        <ele>435</ele>
        <time>2012-04-20T08:02:40Z</time>
      </trkpt>
      <trkpt lat="43.74996" lon="6.99643">
        <ele>432</ele>
        <time>2012-04-20T08:02:42Z</time>
      </trkpt>
      <trkpt lat="43.74972" lon="6.99646">
        <ele>433</ele>
        <time>2012-04-20T08:02:48Z</time>
      </trkpt>
      <trkpt lat="43.74938" lon="6.99649">
        <ele>431</ele>
        <time>2012-04-20T08:02:55Z</time>
      </trkpt>
      <trkpt lat="43.74932" lon="6.99649">
        <ele>431</ele>
        <time>2012-04-20T08:02:56Z</time>
      </trkpt>
      <trkpt lat="43.74886" lon="6.9964">
        <ele>434</ele>
        <time>2012-04-20T08:03:04Z</time>
      </trkpt>
      <trkpt lat="43.7488" lon="6.99639">
        <ele>434</ele>
        <time>2012-04-20T08:03:05Z</time>
      </trkpt>
      <trkpt lat="43.74869" lon="6.99636">
        <ele>435</ele>
        <time>2012-04-20T08:03:07Z</time>
      </trkpt>
      <trkpt lat="43.74838" lon="6.99642">
        <ele>432</ele>
        <time>2012-04-20T08:03:11Z</time>
      </trkpt>
      <trkpt lat="43.74823" lon="6.99653">
        <ele>433</ele>
        <time>2012-04-20T08:03:13Z</time>
      </trkpt>
      <trkpt lat="43.74808" lon="6.99666">
        <ele>434</ele>
        <time>2012-04-20T08:03:15Z</time>
      </trkpt>
      <trkpt lat="43.74796" lon="6.99702">
        <ele>420</ele>
        <time>2012-04-20T08:03:19Z</time>
      </trkpt>
      <trkpt lat="43.74791" lon="6.9973">
        <ele>418</ele>
        <time>2012-04-20T08:03:22Z</time>
      </trkpt>
      <trkpt lat="43.74778" lon="6.99761">
        <ele>412</ele>
        <time>2012-04-20T08:03:26Z</time>
      </trkpt>
      <trkpt lat="43.74769" lon="6.99773">
        <ele>411</ele>
        <time>2012-04-20T08:03:28Z</time>
      </trkpt>
      <trkpt lat="43.74739" lon="6.99799">
        <ele>414</ele>
        <time>2012-04-20T08:03:34Z</time>
      </trkpt>
      <trkpt lat="43.74678" lon="6.99837">
        <ele>417</ele>
        <time>2012-04-20T08:03:43Z</time>
      </trkpt>
      <trkpt lat="43.74622" lon="6.99864">
        <ele>422</ele>
        <time>2012-04-20T08:03:48Z</time>
      </trkpt>
      <trkpt lat="43.74614" lon="6.99877">
        <ele>422</ele>
        <time>2012-04-20T08:03:49Z</time>
      </trkpt>
      <trkpt lat="43.74581" lon="6.99894">
        <ele>425</ele>
        <time>2012-04-20T08:03:53Z</time>
      </trkpt>
      <trkpt lat="43.74572" lon="6.99897">
        <ele>425</ele>
        <time>2012-04-20T08:03:54Z</time>
      </trkpt>
      <trkpt lat="43.74524" lon="6.99906">
        <ele>426</ele>
        <time>2012-04-20T08:03:59Z</time>
      </trkpt>
      <trkpt lat="43.74474" lon="6.99928">
        <ele>430</ele>
        <time>2012-04-20T08:04:04Z</time>
      </trkpt>
      <trkpt lat="43.7443" lon="6.99937">
        <ele>430</ele>
        <time>2012-04-20T08:04:09Z</time>
      </trkpt>
      <trkpt lat="43.74421" lon="6.99936">
        <ele>429</ele>
        <time>2012-04-20T08:04:10Z</time>
      </trkpt>
      <trkpt lat="43.74394" lon="6.99938">
        <ele>425</ele>
        <time>2012-04-20T08:04:13Z</time>
      </trkpt>
      <trkpt lat="43.74354" lon="6.99928">
        <ele>417</ele>
        <time>2012-04-20T08:04:17Z</time>
      </trkpt>
      <trkpt lat="43.74326" lon="6.99927">
        <ele>409</ele>
        <time>2012-04-20T08:04:20Z</time>
      </trkpt>
      <trkpt lat="43.74308" lon="6.99934">
        <ele>415</ele>
        <time>2012-04-20T08:04:22Z</time>
      </trkpt>
      <trkpt lat="43.74283" lon="6.99933">
        <ele>418</ele>
        <time>2012-04-20T08:04:25Z</time>
      </trkpt>
      <trkpt lat="43.74252" lon="6.99946">
        <ele>419</ele>
        <time>2012-04-20T08:04:29Z</time>
      </trkpt>
      <trkpt lat="43.74246" lon="6.99952">
        <ele>426</ele>
        <time>2012-04-20T08:04:30Z</time>
      </trkpt>
      <trkpt lat="43.74266" lon="6.99969">
        <ele>422</ele>
        <time>2012-04-20T08:04:36Z</time>
      </trkpt>
      <trkpt lat="43.74246" lon="6.9998">
        <ele>428</ele>
        <time>2012-04-20T08:04:40Z</time>
      </trkpt>
      <trkpt lat="43.74222" lon="6.99994">
        <ele>428</ele>
        <time>2012-04-20T08:04:45Z</time>
      </trkpt>
      <trkpt lat="43.74197" lon="7.00008">
        <ele>436</ele>
        <time>2012-04-20T08:04:51Z</time>
      </trkpt>
      <trkpt lat="43.74169" lon="7.0001">
        <ele>428</ele>
        <time>2012-04-20T08:04:56Z</time>
      </trkpt>
      <trkpt lat="43.74177" lon="7.00014">
        <ele>433</ele>
        <time>2012-04-20T08:04:59Z</time>
      </trkpt>
      <trkpt lat="43.74164" lon="7.0003">
        <ele>443</ele>
        <time>2012-04-20T08:06:02Z</time>
      </trkpt>
      <trkpt lat="43.74155" lon="7.00031">
        <ele>445</ele>
        <time>2012-04-20T08:06:06Z</time>
      </trkpt>
      <trkpt lat="43.74127" lon="7.00031">
        <ele>451</ele>
        <time>2012-04-20T08:06:12Z</time>
      </trkpt>
      <trkpt lat="43.74101" lon="7.00042">
        <ele>458</ele>
        <time>2012-04-20T08:06:17Z</time>
      </trkpt>
      <trkpt lat="43.74078" lon="7.0004">
        <ele>481</ele>
        <time>2012-04-20T08:06:21Z</time>
      </trkpt>
      <trkpt lat="43.74041" lon="7.00035">
        <ele>487</ele>
        <time>2012-04-20T08:06:27Z</time>
      </trkpt>
      <trkpt lat="43.73982" lon="7.00038">
        <ele>521</ele>
        <time>2012-04-20T08:06:35Z</time>
      </trkpt>
      <trkpt lat="43.73944" lon="7.00032">
        <ele>529</ele>
        <time>2012-04-20T08:06:40Z</time>
      </trkpt>
      <trkpt lat="43.73899" lon="7.0002">
        <ele>553</ele>
        <time>2012-04-20T08:06:46Z</time>
      </trkpt>
      <trkpt lat="43.73844" lon="7.00005">
        <ele>571</ele>
        <time>2012-04-20T08:06:54Z</time>
      </trkpt>
      <trkpt lat="43.73693" lon="6.99941">
        <ele>376</ele>
        <time>2012-04-20T08:07:26Z</time>
      </trkpt>
      <trkpt lat="43.73593" lon="6.99931">
        <ele>403</ele>
        <time>2012-04-20T08:07:29Z</time>
      </trkpt>
      <trkpt lat="43.73548" lon="6.99878">
        <ele>402</ele>
        <time>2012-04-20T08:07:32Z</time>
      </trkpt>
      <trkpt lat="43.73383" lon="6.99901">
        <ele>368</ele>
        <time>2012-04-20T08:07:34Z</time>
      </trkpt>
      <trkpt lat="43.73273" lon="6.99908">
        <ele>330</ele>
        <time>2012-04-20T08:07:35Z</time>
      </trkpt>
      <trkpt lat="43.73219" lon="6.99882">
        <ele>315</ele>
        <time>2012-04-20T08:07:40Z</time>
      </trkpt>
      <trkpt lat="43.73138" lon="6.99839">
        <ele>314</ele>
        <time>2012-04-20T08:07:45Z</time>
      </trkpt>
      <trkpt lat="43.73065" lon="6.9979">
        <ele>297</ele>
        <time>2012-04-20T08:07:47Z</time>
      </trkpt>
      <trkpt lat="43.73006" lon="6.99753">
        <ele>283</ele>
        <time>2012-04-20T08:07:50Z</time>
      </trkpt>
      <trkpt lat="43.72917" lon="6.99727">
        <ele>285</ele>
        <time>2012-04-20T08:07:54Z</time>
      </trkpt>
      <trkpt lat="43.72834" lon="6.99707">
        <ele>292</ele>
        <time>2012-04-20T08:07:59Z</time>
      </trkpt>
      <trkpt lat="43.72742" lon="6.9972">
        <ele>288</ele>
        <time>2012-04-20T08:09:07Z</time>
      </trkpt>
      <trkpt lat="43.72729" lon="6.9974">
        <ele>292</ele>
        <time>2012-04-20T08:09:09Z</time>
      </trkpt>
      <trkpt lat="43.72708" lon="6.99743">
        <ele>288</ele>
        <time>2012-04-20T08:09:12Z</time>
      </trkpt>
      <trkpt lat="43.72692" lon="6.99733">
        <ele>286</ele>
        <time>2012-04-20T08:09:14Z</time>
      </trkpt>
      <trkpt lat="43.72684" lon="6.99726">
        <ele>284</ele>
        <time>2012-04-20T08:09:15Z</time>
      </trkpt>
      <trkpt lat="43.72655" lon="6.99711">
        <ele>278</ele>
        <time>2012-04-20T08:09:19Z</time>
      </trkpt>
      <trkpt lat="43.72636" lon="6.99709">
        <ele>277</ele>
        <time>2012-04-20T08:09:21Z</time>
      </trkpt>
      <trkpt lat="43.72585" lon="6.99683">
        <ele>271</ele>
        <time>2012-04-20T08:09:27Z</time>
      </trkpt>
      <trkpt lat="43.72549" lon="6.99646">
        <ele>264</ele>
        <time>2012-04-20T08:09:32Z</time>
      </trkpt>
      <trkpt lat="43.72513" lon="6.99591">
        <ele>261</ele>
        <time>2012-04-20T08:09:38Z</time>
      </trkpt>
      <trkpt lat="43.72476" lon="6.99552">
        <ele>258</ele>
        <time>2012-04-20T08:09:43Z</time>
      </trkpt>
      <trkpt lat="43.72433" lon="6.99507">
        <ele>257</ele>
        <time>2012-04-20T08:09:49Z</time>
      </trkpt>
      <trkpt lat="43.7242" lon="6.9949">
        <ele>247</ele>
        <time>2012-04-20T08:09:51Z</time>
      </trkpt>
      <trkpt lat="43.72391" lon="6.99465">
        <ele>243</ele>
        <time>2012-04-20T08:09:55Z</time>
      </trkpt>
      <trkpt lat="43.72374" lon="6.99463">
        <ele>243</ele>
        <time>2012-04-20T08:09:57Z</time>
      </trkpt>
      <trkpt lat="43.72309" lon="6.99467">
        <ele>253</ele>
        <time>2012-04-20T08:10:04Z</time>
      </trkpt>
      <trkpt lat="43.72275" lon="6.99452">
        <ele>252</ele>
        <time>2012-04-20T08:10:08Z</time>
      </trkpt>
      <trkpt lat="43.72223" lon="6.99408">
        <ele>236</ele>
        <time>2012-04-20T08:10:15Z</time>
      </trkpt>
      <trkpt lat="43.72169" lon="6.99367">
        <ele>231</ele>
        <time>2012-04-20T08:10:22Z</time>
      </trkpt>
      <trkpt lat="43.72147" lon="6.99351">
        <ele>229</ele>
        <time>2012-04-20T08:10:25Z</time>
      </trkpt>
      <trkpt lat="43.72113" lon="6.99349">
        <ele>228</ele>
        <time>2012-04-20T08:10:29Z</time>
      </trkpt>
      <trkpt lat="43.721" lon="6.99364">
        <ele>229</ele>
        <time>2012-04-20T08:10:31Z</time>
      </trkpt>
      <trkpt lat="43.72055" lon="6.9943">
        <ele>245</ele>
        <time>2012-04-20T08:10:38Z</time>
      </trkpt>
      <trkpt lat="43.72049" lon="6.99439">
        <ele>246</ele>
        <time>2012-04-20T08:10:39Z</time>
      </trkpt>
      <trkpt lat="43.72029" lon="6.99446">
        <ele>246</ele>
        <time>2012-04-20T08:10:42Z</time>
      </trkpt>
      <trkpt lat="43.72018" lon="6.99431">
        <ele>244</ele>
        <time>2012-04-20T08:10:44Z</time>
      </trkpt>
      <trkpt lat="43.7202" lon="6.994">
        <ele>232</ele>
        <time>2012-04-20T08:10:47Z</time>
      </trkpt>
      <trkpt lat="43.72026" lon="6.99365">
        <ele>226</ele>
        <time>2012-04-20T08:10:50Z</time>
      </trkpt>
      <trkpt lat="43.72015" lon="6.99329">
        <ele>212</ele>
        <time>2012-04-20T08:10:54Z</time>
      </trkpt>
      <trkpt lat="43.71998" lon="6.99328">
        <ele>214</ele>
        <time>2012-04-20T08:10:57Z</time>
      </trkpt>
      <trkpt lat="43.71952" lon="6.99323">
        <ele>208</ele>
        <time>2012-04-20T08:11:02Z</time>
      </trkpt>
      <trkpt lat="43.71924" lon="6.99321">
        <ele>210</ele>
        <time>2012-04-20T08:11:05Z</time>
      </trkpt>
      <trkpt lat="43.71899" lon="6.99321">
        <ele>210</ele>
        <time>2012-04-20T08:11:08Z</time>
      </trkpt>
      <trkpt lat="43.71865" lon="6.99309">
        <ele>208</ele>
        <time>2012-04-20T08:11:12Z</time>
      </trkpt>
      <trkpt lat="43.71812" lon="6.99251">
        <ele>206</ele>
        <time>2012-04-20T08:11:19Z</time>
      </trkpt>
      <trkpt lat="43.71805" lon="6.99242">
        <ele>197</ele>
        <time>2012-04-20T08:11:20Z</time>
      </trkpt>
      <trkpt lat="43.71778" lon="6.99226">
        <ele>197</ele>
        <time>2012-04-20T08:11:24Z</time>
      </trkpt>
      <trkpt lat="43.71756" lon="6.99214">
        <ele>196</ele>
        <time>2012-04-20T08:11:29Z</time>
      </trkpt>
      <trkpt lat="43.71761" lon="6.99205">
        <ele>195</ele>
        <time>2012-04-20T08:11:32Z</time>
      </trkpt>
      <trkpt lat="43.71766" lon="6.99206">
        <ele>195</ele>
        <time>2012-04-20T08:11:35Z</time>
      </trkpt>
      <trkpt lat="43.71767" lon="6.99206">
        <ele>195</ele>
        <time>2012-04-20T08:11:54Z</time>
      </trkpt>
      <trkpt lat="43.71768" lon="6.99207">
        <ele>195</ele>
        <time>2012-04-20T08:12:17Z</time>
      </trkpt>
      <trkpt lat="43.71777" lon="6.99209">
        <ele>195</ele>
        <time>2012-04-20T08:13:39Z</time>
      </trkpt>
      <trkpt lat="43.71791" lon="6.99211">
        <ele>195</ele>
        <time>2012-04-20T08:13:43Z</time>
      </trkpt>
      <trkpt lat="43.71815" lon="6.9922">
        <ele>195</ele>
        <time>2012-04-20T08:13:48Z</time>
      </trkpt>
      <trkpt lat="43.71854" lon="6.99236">
        <ele>193</ele>
        <time>2012-04-20T08:13:55Z</time>
      </trkpt>
      <trkpt lat="43.71898" lon="6.99255">
        <ele>199</ele>
        <time>2012-04-20T08:14:02Z</time>
      </trkpt>
      <trkpt lat="43.71937" lon="6.99271">
        <ele>200</ele>
        <time>2012-04-20T08:14:08Z</time>
      </trkpt>
      <trkpt lat="43.71949" lon="6.99275">
        <ele>202</ele>
        <time>2012-04-20T08:14:10Z</time>
      </trkpt>
      <trkpt lat="43.71972" lon="6.99265">
        <ele>200</ele>
        <time>2012-04-20T08:14:14Z</time>
      </trkpt>
      <trkpt lat="43.71984" lon="6.99242">
        <ele>191</ele>
        <time>2012-04-20T08:14:17Z</time>
      </trkpt>
      <trkpt lat="43.71985" lon="6.99217">
        <ele>190</ele>
        <time>2012-04-20T08:14:20Z</time>
      </trkpt>
      <trkpt lat="43.71983" lon="6.99177">
        <ele>189</ele>
        <time>2012-04-20T08:14:26Z</time>
      </trkpt>
      <trkpt lat="43.71982" lon="6.99171">
        <ele>189</ele>
        <time>2012-04-20T08:14:27Z</time>
      </trkpt>
      <trkpt lat="43.71971" lon="6.99146">
        <ele>193</ele>
        <time>2012-04-20T08:14:32Z</time>
      </trkpt>
      <trkpt lat="43.71944" lon="6.99113">
        <ele>194</ele>
        <time>2012-04-20T08:14:41Z</time>
      </trkpt>
      <trkpt lat="43.71918" lon="6.99081">
        <ele>197</ele>
        <time>2012-04-20T08:14:50Z</time>
      </trkpt>
      <trkpt lat="43.71895" lon="6.99053">
        <ele>199</ele>
        <time>2012-04-20T08:14:58Z</time>
      </trkpt>
      <trkpt lat="43.71873" lon="6.99034">
        <ele>200</ele>
        <time>2012-04-20T08:15:05Z</time>
      </trkpt>
      <trkpt lat="43.71849" lon="6.99012">
        <ele>200</ele>
        <time>2012-04-20T08:15:13Z</time>
      </trkpt>
      <trkpt lat="43.71828" lon="6.98987">
        <ele>207</ele>
        <time>2012-04-20T08:15:21Z</time>
      </trkpt>
      <trkpt lat="43.71808" lon="6.98983">
        <ele>210</ele>
        <time>2012-04-20T08:15:27Z</time>
      </trkpt>
      <trkpt lat="43.7178" lon="6.98987">
        <ele>209</ele>
        <time>2012-04-20T08:15:35Z</time>
      </trkpt>
      <trkpt lat="43.71756" lon="6.98985">
        <ele>207</ele>
        <time>2012-04-20T08:15:42Z</time>
      </trkpt>
      <trkpt lat="43.71728" lon="6.98975">
        <ele>206</ele>
        <time>2012-04-20T08:15:50Z</time>
      </trkpt>
      <trkpt lat="43.71701" lon="6.98966">
        <ele>206</ele>
        <time>2012-04-20T08:15:58Z</time>
      </trkpt>
      <trkpt lat="43.71679" lon="6.98959">
        <ele>206</ele>
        <time>2012-04-20T08:16:05Z</time>
      </trkpt>
      <trkpt lat="43.71652" lon="6.9895">
        <ele>202</ele>
        <time>2012-04-20T08:16:15Z</time>
      </trkpt>
      <trkpt lat="43.71629" lon="6.98942">
        <ele>202</ele>
        <time>2012-04-20T08:16:23Z</time>
      </trkpt>
      <trkpt lat="43.71595" lon="6.98929">
        <ele>203</ele>
        <time>2012-04-20T08:16:35Z</time>
      </trkpt>
      <trkpt lat="43.71565" lon="6.98915">
        <ele>211</ele>
        <time>2012-04-20T08:16:46Z</time>
      </trkpt>
      <trkpt lat="43.71545" lon="6.98898">
        <ele>213</ele>
        <time>2012-04-20T08:16:54Z</time>
      </trkpt>
      <trkpt lat="43.71521" lon="6.98877">
        <ele>215</ele>
        <time>2012-04-20T08:17:04Z</time>
      </trkpt>
      <trkpt lat="43.715" lon="6.98875">
        <ele>215</ele>
        <time>2012-04-20T08:17:11Z</time>
      </trkpt>
      <trkpt lat="43.71472" lon="6.98888">
        <ele>209</ele>
        <time>2012-04-20T08:17:21Z</time>
      </trkpt>
      <trkpt lat="43.7145" lon="6.98898">
        <ele>208</ele>
        <time>2012-04-20T08:17:29Z</time>
      </trkpt>
      <trkpt lat="43.71433" lon="6.98893">
        <ele>207</ele>
        <time>2012-04-20T08:17:35Z</time>
      </trkpt>
      <trkpt lat="43.71417" lon="6.98877">
        <ele>209</ele>
        <time>2012-04-20T08:17:42Z</time>
      </trkpt>
      <trkpt lat="43.71411" lon="6.98854">
        <ele>205</ele>
        <time>2012-04-20T08:17:48Z</time>
      </trkpt>
      <trkpt lat="43.71409" lon="6.98816">
        <ele>213</ele>
        <time>2012-04-20T08:17:57Z</time>
      </trkpt>
      <trkpt lat="43.71403" lon="6.98786">
        <ele>214</ele>
        <time>2012-04-20T08:18:05Z</time>
      </trkpt>
      <trkpt lat="43.71389" lon="6.98761">
        <ele>216</ele>
        <time>2012-04-20T08:18:13Z</time>
      </trkpt>
      <trkpt lat="43.71373" lon="6.98733">
        <ele>224</ele>
        <time>2012-04-20T08:18:22Z</time>
      </trkpt>
      <trkpt lat="43.71355" lon="6.98706">
        <ele>224</ele>
        <time>2012-04-20T08:18:31Z</time>
      </trkpt>
      <trkpt lat="43.71346" lon="6.9868">
        <ele>224</ele>
        <time>2012-04-20T08:18:38Z</time>
      </trkpt>
      <trkpt lat="43.7134" lon="6.98634">
        <ele>234</ele>
        <time>2012-04-20T08:18:49Z</time>
      </trkpt>
      <trkpt lat="43.7133" lon="6.98598">
        <ele>228</ele>
        <time>2012-04-20T08:18:57Z</time>
      </trkpt>
      <trkpt lat="43.71322" lon="6.98555">
        <ele>237</ele>
        <time>2012-04-20T08:19:06Z</time>
      </trkpt>
      <trkpt lat="43.71312" lon="6.98533">
        <ele>240</ele>
        <time>2012-04-20T08:19:11Z</time>
      </trkpt>
      <trkpt lat="43.71297" lon="6.98522">
        <ele>241</ele>
        <time>2012-04-20T08:19:16Z</time>
      </trkpt>
      <trkpt lat="43.71294" lon="6.98521">
        <ele>241</ele>
        <time>2012-04-20T08:19:17Z</time>
      </trkpt>
      <trkpt lat="43.71275" lon="6.9853">
        <ele>240</ele>
        <time>2012-04-20T08:19:22Z</time>
      </trkpt>
      <trkpt lat="43.7126" lon="6.98553">
        <ele>238</ele>
        <time>2012-04-20T08:19:28Z</time>
      </trkpt>
      <trkpt lat="43.71259" lon="6.9858">
        <ele>235</ele>
        <time>2012-04-20T08:19:33Z</time>
      </trkpt>
      <trkpt lat="43.71258" lon="6.98608">
        <ele>230</ele>
        <time>2012-04-20T08:19:39Z</time>
      </trkpt>
      <trkpt lat="43.71248" lon="6.98642">
        <ele>236</ele>
        <time>2012-04-20T08:19:47Z</time>
      </trkpt>
      <trkpt lat="43.71236" lon="6.98678">
        <ele>231</ele>
        <time>2012-04-20T08:19:55Z</time>
      </trkpt>
      <trkpt lat="43.7123" lon="6.98699">
        <ele>231</ele>
        <time>2012-04-20T08:20:00Z</time>
      </trkpt>
      <trkpt lat="43.71218" lon="6.98718">
        <ele>232</ele>
        <time>2012-04-20T08:20:05Z</time>
      </trkpt>
      <trkpt lat="43.71209" lon="6.98729">
        <ele>232</ele>
        <time>2012-04-20T08:20:09Z</time>
      </trkpt>
      <trkpt lat="43.71193" lon="6.98754">
        <ele>230</ele>
        <time>2012-04-20T08:20:17Z</time>
      </trkpt>
      <trkpt lat="43.71185" lon="6.98777">
        <ele>229</ele>
        <time>2012-04-20T08:20:23Z</time>
      </trkpt>
      <trkpt lat="43.71181" lon="6.98795">
        <ele>229</ele>
        <time>2012-04-20T08:20:28Z</time>
      </trkpt>
      <trkpt lat="43.71171" lon="6.98827">
        <ele>232</ele>
        <time>2012-04-20T08:20:36Z</time>
      </trkpt>
      <trkpt lat="43.71159" lon="6.98844">
        <ele>235</ele>
        <time>2012-04-20T08:20:42Z</time>
      </trkpt>
      <trkpt lat="43.71134" lon="6.98858">
        <ele>237</ele>
        <time>2012-04-20T08:20:50Z</time>
      </trkpt>
      <trkpt lat="43.71107" lon="6.98871">
        <ele>239</ele>
        <time>2012-04-20T08:20:59Z</time>
      </trkpt>
      <trkpt lat="43.71078" lon="6.98885">
        <ele>247</ele>
        <time>2012-04-20T08:21:09Z</time>
      </trkpt>
      <trkpt lat="43.71054" lon="6.98897">
        <ele>247</ele>
        <time>2012-04-20T08:21:17Z</time>
      </trkpt>
      <trkpt lat="43.71031" lon="6.98902">
        <ele>248</ele>
        <time>2012-04-20T08:21:25Z</time>
      </trkpt>
      <trkpt lat="43.71002" lon="6.9891">
        <ele>247</ele>
        <time>2012-04-20T08:21:35Z</time>
      </trkpt>
      <trkpt lat="43.70983" lon="6.98919">
        <ele>245</ele>
        <time>2012-04-20T08:21:42Z</time>
      </trkpt>
      <trkpt lat="43.70961" lon="6.9893">
        <ele>245</ele>
        <time>2012-04-20T08:21:51Z</time>
      </trkpt>
      <trkpt lat="43.70944" lon="6.98938">
        <ele>246</ele>
        <time>2012-04-20T08:21:58Z</time>
      </trkpt>
      <trkpt lat="43.70926" lon="6.98945">
        <ele>247</ele>
        <time>2012-04-20T08:22:05Z</time>
      </trkpt>
      <trkpt lat="43.70913" lon="6.98952">
        <ele>253</ele>
        <time>2012-04-20T08:22:10Z</time>
      </trkpt>
      <trkpt lat="43.70896" lon="6.98956">
        <ele>253</ele>
        <time>2012-04-20T08:22:16Z</time>
      </trkpt>
      <trkpt lat="43.70874" lon="6.98952">
        <ele>254</ele>
        <time>2012-04-20T08:22:24Z</time>
      </trkpt>
      <trkpt lat="43.70855" lon="6.98951">
        <ele>255</ele>
        <time>2012-04-20T08:22:31Z</time>
      </trkpt>
      <trkpt lat="43.70836" lon="6.98956">
        <ele>255</ele>
        <time>2012-04-20T08:22:38Z</time>
      </trkpt>
      <trkpt lat="43.70811" lon="6.98969">
        <ele>260</ele>
        <time>2012-04-20T08:22:47Z</time>
      </trkpt>
      <trkpt lat="43.70782" lon="6.98984">
        <ele>261</ele>
        <time>2012-04-20T08:22:58Z</time>
      </trkpt>
      <trkpt lat="43.70752" lon="6.98999">
        <ele>259</ele>
        <time>2012-04-20T08:23:09Z</time>
      </trkpt>
      <trkpt lat="43.70727" lon="6.99011">
        <ele>259</ele>
        <time>2012-04-20T08:23:18Z</time>
      </trkpt>
      <trkpt lat="43.70698" lon="6.99027">
        <ele>261</ele>
        <time>2012-04-20T08:23:29Z</time>
      </trkpt>
      <trkpt lat="43.70681" lon="6.99035">
        <ele>262</ele>
        <time>2012-04-20T08:23:36Z</time>
      </trkpt>
      <trkpt lat="43.7067" lon="6.99042">
        <ele>262</ele>
        <time>2012-04-20T08:23:41Z</time>
      </trkpt>
      <trkpt lat="43.70659" lon="6.99048">
        <ele>271</ele>
        <time>2012-04-20T08:23:46Z</time>
      </trkpt>
      <trkpt lat="43.70642" lon="6.99062">
        <ele>271</ele>
        <time>2012-04-20T08:23:53Z</time>
      </trkpt>
      <trkpt lat="43.70623" lon="6.9909">
        <ele>263</ele>
        <time>2012-04-20T08:24:03Z</time>
      </trkpt>
      <trkpt lat="43.70606" lon="6.99115">
        <ele>263</ele>
        <time>2012-04-20T08:24:11Z</time>
      </trkpt>
      <trkpt lat="43.70585" lon="6.99124">
        <ele>264</ele>
        <time>2012-04-20T08:24:18Z</time>
      </trkpt>
      <trkpt lat="43.70555" lon="6.99128">
        <ele>271</ele>
        <time>2012-04-20T08:24:28Z</time>
      </trkpt>
      <trkpt lat="43.7053" lon="6.9913">
        <ele>271</ele>
        <time>2012-04-20T08:24:36Z</time>
      </trkpt>
      <trkpt lat="43.70503" lon="6.99131">
        <ele>271</ele>
        <time>2012-04-20T08:24:45Z</time>
      </trkpt>
      <trkpt lat="43.70476" lon="6.99134">
        <ele>274</ele>
        <time>2012-04-20T08:24:54Z</time>
      </trkpt>
      <trkpt lat="43.7044" lon="6.99137">
        <ele>274</ele>
        <time>2012-04-20T08:25:06Z</time>
      </trkpt>
      <trkpt lat="43.70416" lon="6.99135">
        <ele>275</ele>
        <time>2012-04-20T08:25:14Z</time>
      </trkpt>
      <trkpt lat="43.70384" lon="6.99124">
        <ele>276</ele>
        <time>2012-04-20T08:25:25Z</time>
      </trkpt>
      <trkpt lat="43.70359" lon="6.9911">
        <ele>276</ele>
        <time>2012-04-20T08:25:34Z</time>
      </trkpt>
      <trkpt lat="43.70337" lon="6.99091">
        <ele>279</ele>
        <time>2012-04-20T08:25:43Z</time>
      </trkpt>
      <trkpt lat="43.70326" lon="6.99079">
        <ele>284</ele>
        <time>2012-04-20T08:25:48Z</time>
      </trkpt>
      <trkpt lat="43.70308" lon="6.99059">
        <ele>290</ele>
        <time>2012-04-20T08:25:56Z</time>
      </trkpt>
      <trkpt lat="43.70295" lon="6.9905">
        <ele>292</ele>
        <time>2012-04-20T08:26:01Z</time>
      </trkpt>
      <trkpt lat="43.70278" lon="6.99045">
        <ele>292</ele>
        <time>2012-04-20T08:26:07Z</time>
      </trkpt>
      <trkpt lat="43.70259" lon="6.99051">
        <ele>292</ele>
        <time>2012-04-20T08:26:14Z</time>
      </trkpt>
      <trkpt lat="43.70251" lon="6.99044">
        <ele>293</ele>
        <time>2012-04-20T08:26:18Z</time>
      </trkpt>
      <trkpt lat="43.70245" lon="6.99032">
        <ele>303</ele>
        <time>2012-04-20T08:26:25Z</time>
      </trkpt>
      <trkpt lat="43.70244" lon="6.99023">
        <ele>303</ele>
        <time>2012-04-20T08:26:29Z</time>
      </trkpt>
      <trkpt lat="43.70248" lon="6.99008">
        <ele>303</ele>
        <time>2012-04-20T08:26:36Z</time>
      </trkpt>
      <trkpt lat="43.7026" lon="6.99005">
        <ele>299</ele>
        <time>2012-04-20T08:26:43Z</time>
      </trkpt>
      <trkpt lat="43.7028" lon="6.99014">
        <ele>296</ele>
        <time>2012-04-20T08:26:54Z</time>
      </trkpt>
      <trkpt lat="43.70298" lon="6.9902">
        <ele>295</ele>
        <time>2012-04-20T08:27:02Z</time>
      </trkpt>
      <trkpt lat="43.70315" lon="6.99023">
        <ele>295</ele>
        <time>2012-04-20T08:27:09Z</time>
      </trkpt>
      <trkpt lat="43.70339" lon="6.99025">
        <ele>293</ele>
        <time>2012-04-20T08:27:16Z</time>
      </trkpt>
      <trkpt lat="43.70365" lon="6.99027">
        <ele>292</ele>
        <time>2012-04-20T08:27:23Z</time>
      </trkpt>
      <trkpt lat="43.70388" lon="6.99024">
        <ele>292</ele>
        <time>2012-04-20T08:27:30Z</time>
      </trkpt>
      <trkpt lat="43.704" lon="6.99017">
        <ele>293</ele>
        <time>2012-04-20T08:27:36Z</time>
      </trkpt>
      <trkpt lat="43.70408" lon="6.99006">
        <ele>295</ele>
        <time>2012-04-20T08:27:43Z</time>
      </trkpt>
      <trkpt lat="43.70413" lon="6.9899">
        <ele>302</ele>
        <time>2012-04-20T08:27:52Z</time>
      </trkpt>
      <trkpt lat="43.70415" lon="6.98973">
        <ele>305</ele>
        <time>2012-04-20T08:28:01Z</time>
      </trkpt>
      <trkpt lat="43.70411" lon="6.98955">
        <ele>308</ele>
        <time>2012-04-20T08:28:11Z</time>
      </trkpt>
      <trkpt lat="43.70405" lon="6.98943">
        <ele>310</ele>
        <time>2012-04-20T08:28:19Z</time>
      </trkpt>
      <trkpt lat="43.70395" lon="6.98934">
        <ele>311</ele>
        <time>2012-04-20T08:28:27Z</time>
      </trkpt>
      <trkpt lat="43.70382" lon="6.98927">
        <ele>311</ele>
        <time>2012-04-20T08:28:37Z</time>
      </trkpt>
      <trkpt lat="43.70371" lon="6.98925">
        <ele>311</ele>
        <time>2012-04-20T08:28:46Z</time>
      </trkpt>
      <trkpt lat="43.7037" lon="6.98925">
        <ele>311</ele>
        <time>2012-04-20T08:28:47Z</time>
      </trkpt>
      <trkpt lat="43.70363" lon="6.98923">
        <ele>312</ele>
        <time>2012-04-20T08:28:52Z</time>
      </trkpt>
      <trkpt lat="43.70346" lon="6.9892">
        <ele>314</ele>
        <time>2012-04-20T08:29:04Z</time>
      </trkpt>
      <trkpt lat="43.70334" lon="6.98916">
        <ele>318</ele>
        <time>2012-04-20T08:29:13Z</time>
      </trkpt>
      <trkpt lat="43.70324" lon="6.98913">
        <ele>322</ele>
        <time>2012-04-20T08:29:21Z</time>
      </trkpt>
      <trkpt lat="43.70315" lon="6.9891">
        <ele>324</ele>
        <time>2012-04-20T08:29:29Z</time>
      </trkpt>
      <trkpt lat="43.70309" lon="6.98906">
        <ele>325</ele>
        <time>2012-04-20T08:29:34Z</time>
      </trkpt>
      <trkpt lat="43.70305" lon="6.98903">
        <ele>326</ele>
        <time>2012-04-20T08:29:38Z</time>
      </trkpt>
      <trkpt lat="43.70292" lon="6.98894">
        <ele>327</ele>
        <time>2012-04-20T08:29:48Z</time>
      </trkpt>
      <trkpt lat="43.70279" lon="6.98886">
        <ele>328</ele>
        <time>2012-04-20T08:29:58Z</time>
      </trkpt>
      <trkpt lat="43.70268" lon="6.98877">
        <ele>329</ele>
        <time>2012-04-20T08:30:07Z</time>
      </trkpt>
      <trkpt lat="43.70259" lon="6.9887">
        <ele>331</ele>
        <time>2012-04-20T08:30:14Z</time>
      </trkpt>
      <trkpt lat="43.70245" lon="6.98857">
        <ele>337</ele>
        <time>2012-04-20T08:30:22Z</time>
      </trkpt>
      <trkpt lat="43.7023" lon="6.98849">
        <ele>338</ele>
        <time>2012-04-20T08:30:27Z</time>
      </trkpt>
      <trkpt lat="43.70213" lon="6.98853">
        <ele>338</ele>
        <time>2012-04-20T08:30:31Z</time>
      </trkpt>
      <trkpt lat="43.70195" lon="6.98859">
        <ele>338</ele>
        <time>2012-04-20T08:30:36Z</time>
      </trkpt>
      <trkpt lat="43.70192" lon="6.98859">
        <ele>339</ele>
        <time>2012-04-20T08:30:37Z</time>
      </trkpt>
      <trkpt lat="43.70176" lon="6.98862">
        <ele>339</ele>
        <time>2012-04-20T08:30:45Z</time>
      </trkpt>
      <trkpt lat="43.70169" lon="6.98877">
        <ele>338</ele>
        <time>2012-04-20T08:30:52Z</time>
      </trkpt>
      <trkpt lat="43.70166" lon="6.98896">
        <ele>337</ele>
        <time>2012-04-20T08:31:00Z</time>
      </trkpt>
      <trkpt lat="43.70165" lon="6.98915">
        <ele>336</ele>
        <time>2012-04-20T08:31:08Z</time>
      </trkpt>
      <trkpt lat="43.70161" lon="6.98922">
        <ele>334</ele>
        <time>2012-04-20T08:31:11Z</time>
      </trkpt>
      <trkpt lat="43.70146" lon="6.98923">
        <ele>331</ele>
        <time>2012-04-20T08:31:17Z</time>
      </trkpt>
      <trkpt lat="43.70143" lon="6.98922">
        <ele>330</ele>
        <time>2012-04-20T08:31:18Z</time>
      </trkpt>
      <trkpt lat="43.70133" lon="6.98911">
        <ele>335</ele>
        <time>2012-04-20T08:31:24Z</time>
      </trkpt>
      <trkpt lat="43.70125" lon="6.98903">
        <ele>335</ele>
        <time>2012-04-20T08:31:27Z</time>
      </trkpt>
      <trkpt lat="43.70107" lon="6.98856">
        <ele>336</ele>
        <time>2012-04-20T08:31:34Z</time>
      </trkpt>
      <trkpt lat="43.70083" lon="6.98819">
        <ele>332</ele>
        <time>2012-04-20T08:31:39Z</time>
      </trkpt>
      <trkpt lat="43.70075" lon="6.98802">
        <ele>331</ele>
        <time>2012-04-20T08:31:41Z</time>
      </trkpt>
      <trkpt lat="43.7004" lon="6.98754">
        <ele>330</ele>
        <time>2012-04-20T08:31:48Z</time>
      </trkpt>
      <trkpt lat="43.70031" lon="6.98743">
        <ele>335</ele>
        <time>2012-04-20T08:31:50Z</time>
      </trkpt>
      <trkpt lat="43.70015" lon="6.98715">
        <ele>335</ele>
        <time>2012-04-20T08:31:56Z</time>
      </trkpt>
      <trkpt lat="43.70013" lon="6.9871">
        <ele>335</ele>
        <time>2012-04-20T08:31:57Z</time>
      </trkpt>
      <trkpt lat="43.70008" lon="6.9869">
        <ele>335</ele>
        <time>2012-04-20T08:32:01Z</time>
      </trkpt>
      <trkpt lat="43.70003" lon="6.98681">
        <ele>335</ele>
        <time>2012-04-20T08:32:03Z</time>
      </trkpt>
      <trkpt lat="43.6999" lon="6.98655">
        <ele>332</ele>
        <time>2012-04-20T08:32:09Z</time>
      </trkpt>
      <trkpt lat="43.6999" lon="6.98653">
        <ele>332</ele>
        <time>2012-04-20T08:32:12Z</time>
      </trkpt>
      <trkpt lat="43.6999" lon="6.98652">
        <ele>332</ele>
        <time>2012-04-20T08:32:20Z</time>
      </trkpt>
      <trkpt lat="43.69995" lon="6.9865">
        <ele>332</ele>
        <time>2012-04-20T08:34:42Z</time>
      </trkpt>
      <trkpt lat="43.69995" lon="6.9865">
        <ele>332</ele>
        <time>2012-04-20T08:35:49Z</time>
      </trkpt>
      <trkpt lat="43.69997" lon="6.98651">
        <ele>332</ele>
        <time>2012-04-20T08:36:22Z</time>
      </trkpt>
      <trkpt lat="43.70006" lon="6.9865">
        <ele>340</ele>
        <time>2012-04-20T08:36:39Z</time>
      </trkpt>
      <trkpt lat="43.7" lon="6.98651">
        <ele>339</ele>
        <time>2012-04-20T08:36:44Z</time>
      </trkpt>
      <trkpt lat="43.69998" lon="6.98649">
        <ele>333</ele>
        <time>2012-04-20T08:36:47Z</time>
      </trkpt>
      <trkpt lat="43.69996" lon="6.98647">
        <ele>332</ele>
        <time>2012-04-20T08:36:49Z</time>
      </trkpt>
      <trkpt lat="43.69997" lon="6.98642">
        <ele>333</ele>
        <time>2012-04-20T08:36:55Z</time>
      </trkpt>
      <trkpt lat="43.69991" lon="6.9864">
        <ele>332</ele>
        <time>2012-04-20T08:37:10Z</time>
      </trkpt>
      <trkpt lat="43.6999" lon="6.98633">
        <ele>333</ele>
        <time>2012-04-20T08:37:15Z</time>
      </trkpt>
      <trkpt lat="43.69993" lon="6.98624">
        <ele>333</ele>
        <time>2012-04-20T08:37:20Z</time>
      </trkpt>
      <trkpt lat="43.70017" lon="6.98647">
        <ele>342</ele>
        <time>2012-04-20T08:37:39Z</time>
      </trkpt>
      <trkpt lat="43.69978" lon="6.98681">
        <ele>327</ele>
        <time>2012-04-20T08:38:01Z</time>
      </trkpt>
      <trkpt lat="43.69967" lon="6.98711">
        <ele>324</ele>
        <time>2012-04-20T08:38:06Z</time>
      </trkpt>
      <trkpt lat="43.69966" lon="6.98708">
        <ele>324</ele>
        <time>2012-04-20T08:38:11Z</time>
      </trkpt>
      <trkpt lat="43.69965" lon="6.98706">
        <ele>324</ele>
        <time>2012-04-20T08:38:15Z</time>
      </trkpt>
      <trkpt lat="43.69973" lon="6.98677">
        <ele>326</ele>
        <time>2012-04-20T08:38:28Z</time>
      </trkpt>
      <trkpt lat="43.69977" lon="6.98666">
        <ele>331</ele>
        <time>2012-04-20T08:38:34Z</time>
      </trkpt>
      <trkpt lat="43.69985" lon="6.98659">
        <ele>332</ele>
        <time>2012-04-20T08:39:01Z</time>
      </trkpt>
      <trkpt lat="43.69982" lon="6.98659">
        <ele>332</ele>
        <time>2012-04-20T08:39:09Z</time>
      </trkpt>
      <trkpt lat="43.69978" lon="6.98658">
        <ele>332</ele>
        <time>2012-04-20T08:39:24Z</time>
      </trkpt>
      <trkpt lat="43.69979" lon="6.98658">
        <ele>332</ele>
        <time>2012-04-20T08:39:30Z</time>
      </trkpt>
      <trkpt lat="43.69979" lon="6.98657">
        <ele>332</ele>
        <time>2012-04-20T08:39:33Z</time>
      </trkpt>
      <trkpt lat="43.69978" lon="6.98659">
        <ele>332</ele>
        <time>2012-04-20T08:39:42Z</time>
      </trkpt>
      <trkpt lat="43.69978" lon="6.98662">
        <ele>332</ele>
        <time>2012-04-20T08:39:47Z</time>
      </trkpt>
      <trkpt lat="43.69979" lon="6.98663">
        <ele>332</ele>
        <time>2012-04-20T08:39:50Z</time>
      </trkpt>
      <trkpt lat="43.69984" lon="6.9867">
        <ele>328</ele>
        <time>2012-04-20T08:39:54Z</time>
      </trkpt>
      <trkpt lat="43.70002" lon="6.98693">
        <ele>335</ele>
        <time>2012-04-20T08:40:01Z</time>
      </trkpt>
      <trkpt lat="43.70015" lon="6.98714">
        <ele>335</ele>
        <time>2012-04-20T08:40:06Z</time>
      </trkpt>
      <trkpt lat="43.70029" lon="6.98737">
        <ele>335</ele>
        <time>2012-04-20T08:40:12Z</time>
      </trkpt>
      <trkpt lat="43.70044" lon="6.98758">
        <ele>331</ele>
        <time>2012-04-20T08:40:18Z</time>
      </trkpt>
      <trkpt lat="43.70054" lon="6.98779">
        <ele>331</ele>
        <time>2012-04-20T08:40:22Z</time>
      </trkpt>
      <trkpt lat="43.70058" lon="6.98828">
        <ele>330</ele>
        <time>2012-04-20T08:40:27Z</time>
      </trkpt>
      <trkpt lat="43.70058" lon="6.98846">
        <ele>324</ele>
        <time>2012-04-20T08:40:29Z</time>
      </trkpt>
      <trkpt lat="43.70064" lon="6.98865">
        <ele>323</ele>
        <time>2012-04-20T08:40:32Z</time>
      </trkpt>
      <trkpt lat="43.70078" lon="6.98892">
        <ele>323</ele>
        <time>2012-04-20T08:40:36Z</time>
      </trkpt>
      <trkpt lat="43.70082" lon="6.98924">
        <ele>323</ele>
        <time>2012-04-20T08:40:41Z</time>
      </trkpt>
      <trkpt lat="43.70083" lon="6.98931">
        <ele>327</ele>
        <time>2012-04-20T08:40:45Z</time>
      </trkpt>
      <trkpt lat="43.70083" lon="6.98931">
        <ele>320</ele>
        <time>2012-04-20T08:40:48Z</time>
      </trkpt>
      <trkpt lat="43.70083" lon="6.98934">
        <ele>319</ele>
        <time>2012-04-20T08:40:50Z</time>
      </trkpt>
      <trkpt lat="43.70078" lon="6.98952">
        <ele>315</ele>
        <time>2012-04-20T08:40:55Z</time>
      </trkpt>
      <trkpt lat="43.70062" lon="6.98957">
        <ele>313</ele>
        <time>2012-04-20T08:40:59Z</time>
      </trkpt>
      <trkpt lat="43.70057" lon="6.98957">
        <ele>313</ele>
        <time>2012-04-20T08:41:00Z</time>
      </trkpt>
      <trkpt lat="43.70041" lon="6.98955">
        <ele>311</ele>
        <time>2012-04-20T08:41:04Z</time>
      </trkpt>
      <trkpt lat="43.70032" lon="6.98963">
        <ele>309</ele>
        <time>2012-04-20T08:41:08Z</time>
      </trkpt>
      <trkpt lat="43.70028" lon="6.98969">
        <ele>308</ele>
        <time>2012-04-20T08:41:12Z</time>
      </trkpt>
      <trkpt lat="43.70024" lon="6.98964">
        <ele>308</ele>
        <time>2012-04-20T08:41:14Z</time>
      </trkpt>
      <trkpt lat="43.70019" lon="6.98956">
        <ele>308</ele>
        <time>2012-04-20T08:41:16Z</time>
      </trkpt>
      <trkpt lat="43.70009" lon="6.98946">
        <ele>307</ele>
        <time>2012-04-20T08:41:19Z</time>
      </trkpt>
      <trkpt lat="43.69989" lon="6.98939">
        <ele>296</ele>
        <time>2012-04-20T08:41:23Z</time>
      </trkpt>
      <trkpt lat="43.69969" lon="6.98942">
        <ele>294</ele>
        <time>2012-04-20T08:41:27Z</time>
      </trkpt>
      <trkpt lat="43.69944" lon="6.98942">
        <ele>292</ele>
        <time>2012-04-20T08:41:31Z</time>
      </trkpt>
      <trkpt lat="43.69915" lon="6.98943">
        <ele>281</ele>
        <time>2012-04-20T08:41:35Z</time>
      </trkpt>
      <trkpt lat="43.69899" lon="6.98929">
        <ele>282</ele>
        <time>2012-04-20T08:41:38Z</time>
      </trkpt>
      <trkpt lat="43.69893" lon="6.98932">
        <ele>280</ele>
        <time>2012-04-20T08:41:40Z</time>
      </trkpt>
      <trkpt lat="43.69885" lon="6.98952">
        <ele>277</ele>
        <time>2012-04-20T08:41:43Z</time>
      </trkpt>
      <trkpt lat="43.69873" lon="6.98974">
        <ele>273</ele>
        <time>2012-04-20T08:41:47Z</time>
      </trkpt>
      <trkpt lat="43.69866" lon="6.98979">
        <ele>272</ele>
        <time>2012-04-20T08:41:49Z</time>
      </trkpt>
      <trkpt lat="43.69846" lon="6.98978">
        <ele>269</ele>
        <time>2012-04-20T08:41:54Z</time>
      </trkpt>
      <trkpt lat="43.69842" lon="6.9898">
        <ele>268</ele>
        <time>2012-04-20T08:41:56Z</time>
      </trkpt>
      <trkpt lat="43.69843" lon="6.98997">
        <ele>264</ele>
        <time>2012-04-20T08:41:59Z</time>
      </trkpt>
      <trkpt lat="43.69845" lon="6.99007">
        <ele>259</ele>
        <time>2012-04-20T08:42:01Z</time>
      </trkpt>
      <trkpt lat="43.69849" lon="6.99034">
        <ele>259</ele>
        <time>2012-04-20T08:42:06Z</time>
      </trkpt>
      <trkpt lat="43.69853" lon="6.99049">
        <ele>258</ele>
        <time>2012-04-20T08:42:10Z</time>
      </trkpt>
      <trkpt lat="43.69847" lon="6.99059">
        <ele>256</ele>
        <time>2012-04-20T08:42:14Z</time>
      </trkpt>
      <trkpt lat="43.69834" lon="6.99073">
        <ele>250</ele>
        <time>2012-04-20T08:42:19Z</time>
      </trkpt>
      <trkpt lat="43.69826" lon="6.99086">
        <ele>241</ele>
        <time>2012-04-20T08:42:23Z</time>
      </trkpt>
      <trkpt lat="43.69821" lon="6.99092">
        <ele>238</ele>
        <time>2012-04-20T08:42:25Z</time>
      </trkpt>
      <trkpt lat="43.69803" lon="6.99098">
        <ele>235</ele>
        <time>2012-04-20T08:42:29Z</time>
      </trkpt>
      <trkpt lat="43.69795" lon="6.9909">
        <ele>234</ele>
        <time>2012-04-20T08:42:31Z</time>
      </trkpt>
      <trkpt lat="43.69778" lon="6.99091">
        <ele>231</ele>
        <time>2012-04-20T08:42:36Z</time>
      </trkpt>
      <trkpt lat="43.69769" lon="6.99098">
        <ele>230</ele>
        <time>2012-04-20T08:42:39Z</time>
      </trkpt>
      <trkpt lat="43.6976" lon="6.99092">
        <ele>230</ele>
        <time>2012-04-20T08:42:42Z</time>
      </trkpt>
      <trkpt lat="43.6976" lon="6.99099">
        <ele>230</ele>
        <time>2012-04-20T08:42:45Z</time>
      </trkpt>
      <trkpt lat="43.69765" lon="6.99105">
        <ele>230</ele>
        <time>2012-04-20T08:42:47Z</time>
      </trkpt>
      <trkpt lat="43.6979" lon="6.99132">
        <ele>231</ele>
        <time>2012-04-20T08:42:54Z</time>
      </trkpt>
      <trkpt lat="43.69793" lon="6.99138">
        <ele>231</ele>
        <time>2012-04-20T08:42:55Z</time>
      </trkpt>
      <trkpt lat="43.69801" lon="6.99163">
        <ele>231</ele>
        <time>2012-04-20T08:42:59Z</time>
      </trkpt>
      <trkpt lat="43.69809" lon="6.99215">
        <ele>225</ele>
        <time>2012-04-20T08:43:06Z</time>
      </trkpt>
      <trkpt lat="43.69811" lon="6.99223">
        <ele>225</ele>
        <time>2012-04-20T08:43:07Z</time>
      </trkpt>
      <trkpt lat="43.69829" lon="6.99264">
        <ele>222</ele>
        <time>2012-04-20T08:43:12Z</time>
      </trkpt>
      <trkpt lat="43.69858" lon="6.99315">
        <ele>227</ele>
        <time>2012-04-20T08:43:18Z</time>
      </trkpt>
      <trkpt lat="43.69885" lon="6.99363">
        <ele>222</ele>
        <time>2012-04-20T08:43:24Z</time>
      </trkpt>
      <trkpt lat="43.69892" lon="6.99375">
        <ele>222</ele>
        <time>2012-04-20T08:43:26Z</time>
      </trkpt>
      <trkpt lat="43.69933" lon="6.99417">
        <ele>228</ele>
        <time>2012-04-20T08:43:35Z</time>
      </trkpt>
      <trkpt lat="43.69962" lon="6.99447">
        <ele>223</ele>
        <time>2012-04-20T08:43:42Z</time>
      </trkpt>
      <trkpt lat="43.69983" lon="6.99467">
        <ele>223</ele>
        <time>2012-04-20T08:43:48Z</time>
      </trkpt>
      <trkpt lat="43.70014" lon="6.99481">
        <ele>228</ele>
        <time>2012-04-20T08:43:56Z</time>
      </trkpt>
      <trkpt lat="43.70039" lon="6.99485">
        <ele>230</ele>
        <time>2012-04-20T08:44:03Z</time>
      </trkpt>
      <trkpt lat="43.70069" lon="6.9949">
        <ele>231</ele>
        <time>2012-04-20T08:44:11Z</time>
      </trkpt>
      <trkpt lat="43.70097" lon="6.99498">
        <ele>232</ele>
        <time>2012-04-20T08:44:19Z</time>
      </trkpt>
      <trkpt lat="43.70126" lon="6.995">
        <ele>225</ele>
        <time>2012-04-20T08:44:27Z</time>
      </trkpt>
      <trkpt lat="43.70154" lon="6.99493">
        <ele>233</ele>
        <time>2012-04-20T08:44:34Z</time>
      </trkpt>
      <trkpt lat="43.70161" lon="6.99506">
        <ele>228</ele>
        <time>2012-04-20T08:44:38Z</time>
      </trkpt>
      <trkpt lat="43.70164" lon="6.99528">
        <ele>224</ele>
        <time>2012-04-20T08:44:42Z</time>
      </trkpt>
      <trkpt lat="43.70182" lon="6.99527">
        <ele>222</ele>
        <time>2012-04-20T08:44:45Z</time>
      </trkpt>
      <trkpt lat="43.70188" lon="6.99522">
        <ele>222</ele>
        <time>2012-04-20T08:44:46Z</time>
      </trkpt>
      <trkpt lat="43.70202" lon="6.99506">
        <ele>223</ele>
        <time>2012-04-20T08:44:50Z</time>
      </trkpt>
      <trkpt lat="43.70213" lon="6.99503">
        <ele>222</ele>
        <time>2012-04-20T08:44:56Z</time>
      </trkpt>
      <trkpt lat="43.70213" lon="6.99503">
        <ele>222</ele>
        <time>2012-04-20T08:44:57Z</time>
      </trkpt>
    </trkseg>
  </trk>
</gpx>